<?xml version="1.0" encoding="UTF-8" standalone="no" ?>
<gpx xmlns="http://www.topografix.com/GPX/1/1" xmlns:xsi="http://www.w3.org/2001/XMLSchema-instance" xsi:schemaLocation="http://www.topografix.com/GPX/1/1 http://www.topografix.com/GPX/1/1/gpx.xsd" version="1.1" creator="VisuGPX - https://www.visugpx.com">
  <metadata>
    <name>ECT Vosges 2011</name>
    <desc><![CDATA[Trace VTT pour la sortie Vosges 2011 ECT. ]]></desc>
  </metadata>
  <trk>
    <name><![CDATA[ACTIVE LOG104627]]></name>
    <trkseg>
      <trkpt lat="48.00882" lon="6.71669">
        <ele>411.687</ele>
        <time>2011-04-16T15:18:22Z</time>
      </trkpt>
      <trkpt lat="48.0088" lon="6.7167">
        <ele>410.987</ele>
        <time>2011-04-16T15:18:30Z</time>
      </trkpt>
      <trkpt lat="48.00841" lon="6.7167">
        <ele>411.52</ele>
        <time>2011-04-16T15:18:36Z</time>
      </trkpt>
      <trkpt lat="48.00846" lon="6.71751">
        <ele>411.485</ele>
        <time>2011-04-16T15:18:44Z</time>
      </trkpt>
      <trkpt lat="48.00847" lon="6.71759">
        <ele>411.484</ele>
        <time>2011-04-16T15:18:45Z</time>
      </trkpt>
      <trkpt lat="48.0085" lon="6.7178">
        <ele>411.656</ele>
        <time>2011-04-16T15:18:48Z</time>
      </trkpt>
      <trkpt lat="48.00853" lon="6.71814">
        <ele>411.802</ele>
        <time>2011-04-16T15:18:53Z</time>
      </trkpt>
      <trkpt lat="48.00858" lon="6.71963">
        <ele>412.243</ele>
        <time>2011-04-16T15:19:12Z</time>
      </trkpt>
      <trkpt lat="48.00858" lon="6.72007">
        <ele>412.344</ele>
        <time>2011-04-16T15:19:18Z</time>
      </trkpt>
      <trkpt lat="48.00832" lon="6.72041">
        <ele>412.899</ele>
        <time>2011-04-16T15:19:25Z</time>
      </trkpt>
      <trkpt lat="48.00813" lon="6.72058">
        <ele>413.314</ele>
        <time>2011-04-16T15:19:29Z</time>
      </trkpt>
      <trkpt lat="48.00721" lon="6.72102">
        <ele>413.359</ele>
        <time>2011-04-16T15:19:46Z</time>
      </trkpt>
      <trkpt lat="48.00706" lon="6.7212">
        <ele>413.185</ele>
        <time>2011-04-16T15:19:50Z</time>
      </trkpt>
      <trkpt lat="48.00612" lon="6.72234">
        <ele>413.358</ele>
        <time>2011-04-16T15:20:12Z</time>
      </trkpt>
      <trkpt lat="48.00506" lon="6.72362">
        <ele>413.665</ele>
        <time>2011-04-16T15:20:34Z</time>
      </trkpt>
      <trkpt lat="48.00484" lon="6.72387">
        <ele>413.746</ele>
        <time>2011-04-16T15:20:39Z</time>
      </trkpt>
      <trkpt lat="48.00467" lon="6.72418">
        <ele>413.698</ele>
        <time>2011-04-16T15:20:44Z</time>
      </trkpt>
      <trkpt lat="48.00455" lon="6.72452">
        <ele>415.497</ele>
        <time>2011-04-16T15:20:50Z</time>
      </trkpt>
      <trkpt lat="48.00434" lon="6.72513">
        <ele>419.217</ele>
        <time>2011-04-16T15:21:05Z</time>
      </trkpt>
      <trkpt lat="48.00412" lon="6.72572">
        <ele>422.336</ele>
        <time>2011-04-16T15:21:23Z</time>
      </trkpt>
      <trkpt lat="48.00408" lon="6.72584">
        <ele>423.991</ele>
        <time>2011-04-16T15:21:27Z</time>
      </trkpt>
      <trkpt lat="48.00387" lon="6.72646">
        <ele>426.987</ele>
        <time>2011-04-16T15:21:46Z</time>
      </trkpt>
      <trkpt lat="48.00382" lon="6.72683">
        <ele>428.949</ele>
        <time>2011-04-16T15:21:55Z</time>
      </trkpt>
      <trkpt lat="48.00375" lon="6.72734">
        <ele>431.018</ele>
        <time>2011-04-16T15:22:08Z</time>
      </trkpt>
      <trkpt lat="48.00368" lon="6.7278">
        <ele>432.375</ele>
        <time>2011-04-16T15:22:22Z</time>
      </trkpt>
      <trkpt lat="48.00364" lon="6.72814">
        <ele>434.84</ele>
        <time>2011-04-16T15:22:38Z</time>
      </trkpt>
      <trkpt lat="48.00364" lon="6.72814">
        <ele>434.589</ele>
        <time>2011-04-16T15:22:49Z</time>
      </trkpt>
      <trkpt lat="48.0041" lon="6.72837">
        <ele>442.986</ele>
        <time>2011-04-16T08:46:26Z</time>
      </trkpt>
      <trkpt lat="48.0041" lon="6.72837">
        <ele>442.85</ele>
        <time>2011-04-16T08:46:48Z</time>
      </trkpt>
      <trkpt lat="48.00406" lon="6.72844">
        <ele>442.853</ele>
        <time>2011-04-16T08:46:53Z</time>
      </trkpt>
      <trkpt lat="48.00406" lon="6.7289">
        <ele>445.759</ele>
        <time>2011-04-16T08:47:06Z</time>
      </trkpt>
      <trkpt lat="48.00413" lon="6.72925">
        <ele>448.098</ele>
        <time>2011-04-16T08:47:17Z</time>
      </trkpt>
      <trkpt lat="48.00415" lon="6.72937">
        <ele>448.53</ele>
        <time>2011-04-16T08:47:21Z</time>
      </trkpt>
      <trkpt lat="48.00422" lon="6.72985">
        <ele>452.106</ele>
        <time>2011-04-16T08:47:34Z</time>
      </trkpt>
      <trkpt lat="48.00421" lon="6.7305">
        <ele>452.632</ele>
        <time>2011-04-16T08:47:47Z</time>
      </trkpt>
      <trkpt lat="48.00415" lon="6.73109">
        <ele>453.657</ele>
        <time>2011-04-16T08:47:58Z</time>
      </trkpt>
      <trkpt lat="48.0041" lon="6.73165">
        <ele>455.587</ele>
        <time>2011-04-16T08:48:11Z</time>
      </trkpt>
      <trkpt lat="48.00412" lon="6.73186">
        <ele>456.708</ele>
        <time>2011-04-16T08:48:16Z</time>
      </trkpt>
      <trkpt lat="48.00419" lon="6.73214">
        <ele>457.642</ele>
        <time>2011-04-16T08:48:23Z</time>
      </trkpt>
      <trkpt lat="48.00413" lon="6.73247">
        <ele>459.457</ele>
        <time>2011-04-16T08:48:30Z</time>
      </trkpt>
      <trkpt lat="48.004" lon="6.73287">
        <ele>461.905</ele>
        <time>2011-04-16T08:48:41Z</time>
      </trkpt>
      <trkpt lat="48.00405" lon="6.73299">
        <ele>462.773</ele>
        <time>2011-04-16T08:48:47Z</time>
      </trkpt>
      <trkpt lat="48.00416" lon="6.7332">
        <ele>465.326</ele>
        <time>2011-04-16T08:48:59Z</time>
      </trkpt>
      <trkpt lat="48.00419" lon="6.73343">
        <ele>468.171</ele>
        <time>2011-04-16T08:49:11Z</time>
      </trkpt>
      <trkpt lat="48.00428" lon="6.73349">
        <ele>469.467</ele>
        <time>2011-04-16T08:49:18Z</time>
      </trkpt>
      <trkpt lat="48.00436" lon="6.73349">
        <ele>470.375</ele>
        <time>2011-04-16T08:49:23Z</time>
      </trkpt>
      <trkpt lat="48.00439" lon="6.73352">
        <ele>470.048</ele>
        <time>2011-04-16T08:49:42Z</time>
      </trkpt>
      <trkpt lat="48.00442" lon="6.73353">
        <ele>470.69</ele>
        <time>2011-04-16T08:50:07Z</time>
      </trkpt>
      <trkpt lat="48.00443" lon="6.73353">
        <ele>470.69</ele>
        <time>2011-04-16T08:50:08Z</time>
      </trkpt>
      <trkpt lat="48.00444" lon="6.73337">
        <ele>471.379</ele>
        <time>2011-04-16T08:50:16Z</time>
      </trkpt>
      <trkpt lat="48.00454" lon="6.73335">
        <ele>472.632</ele>
        <time>2011-04-16T08:50:23Z</time>
      </trkpt>
      <trkpt lat="48.00465" lon="6.73325">
        <ele>475.422</ele>
        <time>2011-04-16T08:50:32Z</time>
      </trkpt>
      <trkpt lat="48.00466" lon="6.73319">
        <ele>476.712</ele>
        <time>2011-04-16T08:50:35Z</time>
      </trkpt>
      <trkpt lat="48.00467" lon="6.73313">
        <ele>476.617</ele>
        <time>2011-04-16T08:50:38Z</time>
      </trkpt>
      <trkpt lat="48.00475" lon="6.73297">
        <ele>477.985</ele>
        <time>2011-04-16T08:50:44Z</time>
      </trkpt>
      <trkpt lat="48.0048" lon="6.73294">
        <ele>478.356</ele>
        <time>2011-04-16T08:50:49Z</time>
      </trkpt>
      <trkpt lat="48.00483" lon="6.73292">
        <ele>479.144</ele>
        <time>2011-04-16T08:50:51Z</time>
      </trkpt>
      <trkpt lat="48.00494" lon="6.73292">
        <ele>480.502</ele>
        <time>2011-04-16T08:50:57Z</time>
      </trkpt>
      <trkpt lat="48.00501" lon="6.73297">
        <ele>482.003</ele>
        <time>2011-04-16T08:51:03Z</time>
      </trkpt>
      <trkpt lat="48.00502" lon="6.73304">
        <ele>482.257</ele>
        <time>2011-04-16T08:51:06Z</time>
      </trkpt>
      <trkpt lat="48.00506" lon="6.73314">
        <ele>482.972</ele>
        <time>2011-04-16T08:51:11Z</time>
      </trkpt>
      <trkpt lat="48.00506" lon="6.73324">
        <ele>483.636</ele>
        <time>2011-04-16T08:51:15Z</time>
      </trkpt>
      <trkpt lat="48.00509" lon="6.73333">
        <ele>484.797</ele>
        <time>2011-04-16T08:51:19Z</time>
      </trkpt>
      <trkpt lat="48.00512" lon="6.73348">
        <ele>485.777</ele>
        <time>2011-04-16T08:51:25Z</time>
      </trkpt>
      <trkpt lat="48.00517" lon="6.73381">
        <ele>487.541</ele>
        <time>2011-04-16T08:51:37Z</time>
      </trkpt>
      <trkpt lat="48.00517" lon="6.73397">
        <ele>488.349</ele>
        <time>2011-04-16T08:51:42Z</time>
      </trkpt>
      <trkpt lat="48.00521" lon="6.73413">
        <ele>489.529</ele>
        <time>2011-04-16T08:51:48Z</time>
      </trkpt>
      <trkpt lat="48.00523" lon="6.73417">
        <ele>490.051</ele>
        <time>2011-04-16T08:51:50Z</time>
      </trkpt>
      <trkpt lat="48.00521" lon="6.73466">
        <ele>492.243</ele>
        <time>2011-04-16T08:52:06Z</time>
      </trkpt>
      <trkpt lat="48.00518" lon="6.73474">
        <ele>492.338</ele>
        <time>2011-04-16T08:52:08Z</time>
      </trkpt>
      <trkpt lat="48.00523" lon="6.73492">
        <ele>493.854</ele>
        <time>2011-04-16T08:52:16Z</time>
      </trkpt>
      <trkpt lat="48.00524" lon="6.73496">
        <ele>493.822</ele>
        <time>2011-04-16T08:52:18Z</time>
      </trkpt>
      <trkpt lat="48.00527" lon="6.73524">
        <ele>495.82</ele>
        <time>2011-04-16T08:52:29Z</time>
      </trkpt>
      <trkpt lat="48.00529" lon="6.73534">
        <ele>497.299</ele>
        <time>2011-04-16T08:52:34Z</time>
      </trkpt>
      <trkpt lat="48.00532" lon="6.73541">
        <ele>497.692</ele>
        <time>2011-04-16T08:52:37Z</time>
      </trkpt>
      <trkpt lat="48.00536" lon="6.7355">
        <ele>498.57</ele>
        <time>2011-04-16T08:52:41Z</time>
      </trkpt>
      <trkpt lat="48.0054" lon="6.73568">
        <ele>500.116</ele>
        <time>2011-04-16T08:52:47Z</time>
      </trkpt>
      <trkpt lat="48.00542" lon="6.73595">
        <ele>501.369</ele>
        <time>2011-04-16T08:52:57Z</time>
      </trkpt>
      <trkpt lat="48.00542" lon="6.73598">
        <ele>501.557</ele>
        <time>2011-04-16T08:52:58Z</time>
      </trkpt>
      <trkpt lat="48.00544" lon="6.73608">
        <ele>502.63</ele>
        <time>2011-04-16T08:53:02Z</time>
      </trkpt>
      <trkpt lat="48.00551" lon="6.7365">
        <ele>505.254</ele>
        <time>2011-04-16T08:53:17Z</time>
      </trkpt>
      <trkpt lat="48.00553" lon="6.73658">
        <ele>505.537</ele>
        <time>2011-04-16T08:53:20Z</time>
      </trkpt>
      <trkpt lat="48.00557" lon="6.73669">
        <ele>506.362</ele>
        <time>2011-04-16T08:53:25Z</time>
      </trkpt>
      <trkpt lat="48.00571" lon="6.73707">
        <ele>508.429</ele>
        <time>2011-04-16T08:53:39Z</time>
      </trkpt>
      <trkpt lat="48.00578" lon="6.73742">
        <ele>510.391</ele>
        <time>2011-04-16T08:53:52Z</time>
      </trkpt>
      <trkpt lat="48.00577" lon="6.73749">
        <ele>510.899</ele>
        <time>2011-04-16T08:53:55Z</time>
      </trkpt>
      <trkpt lat="48.00585" lon="6.73784">
        <ele>513.875</ele>
        <time>2011-04-16T08:54:10Z</time>
      </trkpt>
      <trkpt lat="48.00594" lon="6.73806">
        <ele>515.248</ele>
        <time>2011-04-16T08:54:20Z</time>
      </trkpt>
      <trkpt lat="48.00595" lon="6.73815">
        <ele>516.026</ele>
        <time>2011-04-16T08:54:23Z</time>
      </trkpt>
      <trkpt lat="48.00601" lon="6.73832">
        <ele>516.766</ele>
        <time>2011-04-16T08:54:29Z</time>
      </trkpt>
      <trkpt lat="48.00607" lon="6.73844">
        <ele>518.071</ele>
        <time>2011-04-16T08:54:35Z</time>
      </trkpt>
      <trkpt lat="48.0061" lon="6.73854">
        <ele>518.981</ele>
        <time>2011-04-16T08:54:38Z</time>
      </trkpt>
      <trkpt lat="48.00616" lon="6.73861">
        <ele>519.574</ele>
        <time>2011-04-16T08:54:42Z</time>
      </trkpt>
      <trkpt lat="48.00626" lon="6.73903">
        <ele>519.837</ele>
        <time>2011-04-16T08:54:59Z</time>
      </trkpt>
      <trkpt lat="48.00639" lon="6.73932">
        <ele>520.079</ele>
        <time>2011-04-16T08:55:12Z</time>
      </trkpt>
      <trkpt lat="48.00645" lon="6.73944">
        <ele>520.091</ele>
        <time>2011-04-16T08:55:17Z</time>
      </trkpt>
      <trkpt lat="48.00653" lon="6.73962">
        <ele>520.618</ele>
        <time>2011-04-16T08:55:24Z</time>
      </trkpt>
      <trkpt lat="48.00664" lon="6.74005">
        <ele>521.46</ele>
        <time>2011-04-16T08:55:36Z</time>
      </trkpt>
      <trkpt lat="48.00691" lon="6.74069">
        <ele>523.525</ele>
        <time>2011-04-16T08:55:56Z</time>
      </trkpt>
      <trkpt lat="48.00709" lon="6.74119">
        <ele>525.239</ele>
        <time>2011-04-16T08:56:13Z</time>
      </trkpt>
      <trkpt lat="48.00723" lon="6.74144">
        <ele>527.308</ele>
        <time>2011-04-16T08:56:25Z</time>
      </trkpt>
      <trkpt lat="48.00728" lon="6.7416">
        <ele>527.84</ele>
        <time>2011-04-16T08:56:39Z</time>
      </trkpt>
      <trkpt lat="48.00743" lon="6.7418">
        <ele>528.567</ele>
        <time>2011-04-16T08:56:51Z</time>
      </trkpt>
      <trkpt lat="48.00753" lon="6.74203">
        <ele>528.056</ele>
        <time>2011-04-16T08:57:15Z</time>
      </trkpt>
      <trkpt lat="48.0076" lon="6.74242">
        <ele>527.088</ele>
        <time>2011-04-16T08:57:25Z</time>
      </trkpt>
      <trkpt lat="48.00761" lon="6.74262">
        <ele>525.517</ele>
        <time>2011-04-16T08:57:28Z</time>
      </trkpt>
      <trkpt lat="48.0076" lon="6.74279">
        <ele>523.662</ele>
        <time>2011-04-16T08:57:30Z</time>
      </trkpt>
      <trkpt lat="48.00759" lon="6.74293">
        <ele>521.767</ele>
        <time>2011-04-16T08:57:32Z</time>
      </trkpt>
      <trkpt lat="48.00759" lon="6.743">
        <ele>521.5</ele>
        <time>2011-04-16T08:57:33Z</time>
      </trkpt>
      <trkpt lat="48.00762" lon="6.74313">
        <ele>520.511</ele>
        <time>2011-04-16T08:57:35Z</time>
      </trkpt>
      <trkpt lat="48.00769" lon="6.74359">
        <ele>522.812</ele>
        <time>2011-04-16T08:57:44Z</time>
      </trkpt>
      <trkpt lat="48.00778" lon="6.74413">
        <ele>522.482</ele>
        <time>2011-04-16T08:57:54Z</time>
      </trkpt>
      <trkpt lat="48.00788" lon="6.74456">
        <ele>523.85</ele>
        <time>2011-04-16T08:58:04Z</time>
      </trkpt>
      <trkpt lat="48.0081" lon="6.7451">
        <ele>525.808</ele>
        <time>2011-04-16T08:58:21Z</time>
      </trkpt>
      <trkpt lat="48.00823" lon="6.74531">
        <ele>528.937</ele>
        <time>2011-04-16T08:58:31Z</time>
      </trkpt>
      <trkpt lat="48.00832" lon="6.74551">
        <ele>531.807</ele>
        <time>2011-04-16T08:58:39Z</time>
      </trkpt>
      <trkpt lat="48.00837" lon="6.74543">
        <ele>532.633</ele>
        <time>2011-04-16T08:58:45Z</time>
      </trkpt>
      <trkpt lat="48.00837" lon="6.74479">
        <ele>535.926</ele>
        <time>2011-04-16T08:59:06Z</time>
      </trkpt>
      <trkpt lat="48.00835" lon="6.74446">
        <ele>538.086</ele>
        <time>2011-04-16T08:59:16Z</time>
      </trkpt>
      <trkpt lat="48.00834" lon="6.74403">
        <ele>540.099</ele>
        <time>2011-04-16T08:59:34Z</time>
      </trkpt>
      <trkpt lat="48.00837" lon="6.74371">
        <ele>543.109</ele>
        <time>2011-04-16T08:59:48Z</time>
      </trkpt>
      <trkpt lat="48.00844" lon="6.74343">
        <ele>546.192</ele>
        <time>2011-04-16T09:00:00Z</time>
      </trkpt>
      <trkpt lat="48.00849" lon="6.74307">
        <ele>549.699</ele>
        <time>2011-04-16T09:00:15Z</time>
      </trkpt>
      <trkpt lat="48.00845" lon="6.74263">
        <ele>552.403</ele>
        <time>2011-04-16T09:00:33Z</time>
      </trkpt>
      <trkpt lat="48.00841" lon="6.7423">
        <ele>555.711</ele>
        <time>2011-04-16T09:00:48Z</time>
      </trkpt>
      <trkpt lat="48.0084" lon="6.74214">
        <ele>557.166</ele>
        <time>2011-04-16T09:00:55Z</time>
      </trkpt>
      <trkpt lat="48.00841" lon="6.74211">
        <ele>557.465</ele>
        <time>2011-04-16T09:01:15Z</time>
      </trkpt>
      <trkpt lat="48.00844" lon="6.74211">
        <ele>557.004</ele>
        <time>2011-04-16T09:02:34Z</time>
      </trkpt>
      <trkpt lat="48.00842" lon="6.74209">
        <ele>556.57</ele>
        <time>2011-04-16T09:03:07Z</time>
      </trkpt>
      <trkpt lat="48.0084" lon="6.74201">
        <ele>557.158</ele>
        <time>2011-04-16T09:03:11Z</time>
      </trkpt>
      <trkpt lat="48.00841" lon="6.74162">
        <ele>560.866</ele>
        <time>2011-04-16T09:03:25Z</time>
      </trkpt>
      <trkpt lat="48.00842" lon="6.74136">
        <ele>561.892</ele>
        <time>2011-04-16T09:03:33Z</time>
      </trkpt>
      <trkpt lat="48.00836" lon="6.741">
        <ele>563.64</ele>
        <time>2011-04-16T09:03:46Z</time>
      </trkpt>
      <trkpt lat="48.00833" lon="6.74056">
        <ele>564.966</ele>
        <time>2011-04-16T09:03:59Z</time>
      </trkpt>
      <trkpt lat="48.00833" lon="6.73985">
        <ele>566.147</ele>
        <time>2011-04-16T09:04:14Z</time>
      </trkpt>
      <trkpt lat="48.00824" lon="6.73931">
        <ele>567.805</ele>
        <time>2011-04-16T09:04:27Z</time>
      </trkpt>
      <trkpt lat="48.00817" lon="6.73867">
        <ele>569.337</ele>
        <time>2011-04-16T09:04:44Z</time>
      </trkpt>
      <trkpt lat="48.00817" lon="6.73865">
        <ele>569.338</ele>
        <time>2011-04-16T09:04:45Z</time>
      </trkpt>
      <trkpt lat="48.00822" lon="6.73858">
        <ele>569.893</ele>
        <time>2011-04-16T09:04:50Z</time>
      </trkpt>
      <trkpt lat="48.00836" lon="6.73858">
        <ele>572.318</ele>
        <time>2011-04-16T09:04:59Z</time>
      </trkpt>
      <trkpt lat="48.00843" lon="6.73858">
        <ele>573.701</ele>
        <time>2011-04-16T09:05:04Z</time>
      </trkpt>
      <trkpt lat="48.00862" lon="6.73861">
        <ele>574.377</ele>
        <time>2011-04-16T09:05:16Z</time>
      </trkpt>
      <trkpt lat="48.00885" lon="6.73861">
        <ele>575.48</ele>
        <time>2011-04-16T09:05:27Z</time>
      </trkpt>
      <trkpt lat="48.00887" lon="6.7386">
        <ele>575.551</ele>
        <time>2011-04-16T09:05:29Z</time>
      </trkpt>
      <trkpt lat="48.00894" lon="6.73856">
        <ele>576.609</ele>
        <time>2011-04-16T09:05:34Z</time>
      </trkpt>
      <trkpt lat="48.00903" lon="6.73855">
        <ele>578.762</ele>
        <time>2011-04-16T09:05:39Z</time>
      </trkpt>
      <trkpt lat="48.00921" lon="6.73844">
        <ele>581.821</ele>
        <time>2011-04-16T09:05:49Z</time>
      </trkpt>
      <trkpt lat="48.00928" lon="6.73845">
        <ele>582.335</ele>
        <time>2011-04-16T09:05:53Z</time>
      </trkpt>
      <trkpt lat="48.00937" lon="6.73843">
        <ele>582.692</ele>
        <time>2011-04-16T09:05:59Z</time>
      </trkpt>
      <trkpt lat="48.00945" lon="6.73847">
        <ele>585.066</ele>
        <time>2011-04-16T09:06:08Z</time>
      </trkpt>
      <trkpt lat="48.00951" lon="6.73853">
        <ele>586.451</ele>
        <time>2011-04-16T09:06:24Z</time>
      </trkpt>
      <trkpt lat="48.00952" lon="6.73854">
        <ele>586.853</ele>
        <time>2011-04-16T09:06:29Z</time>
      </trkpt>
      <trkpt lat="48.00956" lon="6.7386">
        <ele>587.355</ele>
        <time>2011-04-16T09:06:33Z</time>
      </trkpt>
      <trkpt lat="48.00977" lon="6.73872">
        <ele>589.146</ele>
        <time>2011-04-16T09:06:45Z</time>
      </trkpt>
      <trkpt lat="48.00994" lon="6.73884">
        <ele>589.906</ele>
        <time>2011-04-16T09:06:56Z</time>
      </trkpt>
      <trkpt lat="48.00999" lon="6.73886">
        <ele>590.524</ele>
        <time>2011-04-16T09:06:59Z</time>
      </trkpt>
      <trkpt lat="48.01022" lon="6.73895">
        <ele>593.811</ele>
        <time>2011-04-16T09:07:13Z</time>
      </trkpt>
      <trkpt lat="48.01037" lon="6.7391">
        <ele>595.538</ele>
        <time>2011-04-16T09:07:23Z</time>
      </trkpt>
      <trkpt lat="48.01043" lon="6.7391">
        <ele>596.64</ele>
        <time>2011-04-16T09:07:28Z</time>
      </trkpt>
      <trkpt lat="48.0105" lon="6.73905">
        <ele>595.965</ele>
        <time>2011-04-16T09:07:33Z</time>
      </trkpt>
      <trkpt lat="48.01054" lon="6.73906">
        <ele>596.007</ele>
        <time>2011-04-16T09:07:36Z</time>
      </trkpt>
      <trkpt lat="48.01057" lon="6.73909">
        <ele>595.445</ele>
        <time>2011-04-16T09:07:56Z</time>
      </trkpt>
      <trkpt lat="48.01056" lon="6.7391">
        <ele>595.162</ele>
        <time>2011-04-16T09:09:20Z</time>
      </trkpt>
      <trkpt lat="48.01061" lon="6.73919">
        <ele>595.816</ele>
        <time>2011-04-16T09:11:18Z</time>
      </trkpt>
      <trkpt lat="48.0106" lon="6.73921">
        <ele>597.569</ele>
        <time>2011-04-16T09:11:31Z</time>
      </trkpt>
      <trkpt lat="48.01055" lon="6.73926">
        <ele>599.754</ele>
        <time>2011-04-16T09:11:52Z</time>
      </trkpt>
      <trkpt lat="48.01057" lon="6.73937">
        <ele>602.252</ele>
        <time>2011-04-16T09:12:05Z</time>
      </trkpt>
      <trkpt lat="48.01055" lon="6.73944">
        <ele>604.192</ele>
        <time>2011-04-16T09:12:19Z</time>
      </trkpt>
      <trkpt lat="48.01051" lon="6.73943">
        <ele>606.524</ele>
        <time>2011-04-16T09:12:31Z</time>
      </trkpt>
      <trkpt lat="48.01049" lon="6.7395">
        <ele>607.861</ele>
        <time>2011-04-16T09:12:44Z</time>
      </trkpt>
      <trkpt lat="48.01045" lon="6.7396">
        <ele>610.083</ele>
        <time>2011-04-16T09:12:59Z</time>
      </trkpt>
      <trkpt lat="48.01045" lon="6.73968">
        <ele>611.669</ele>
        <time>2011-04-16T09:13:11Z</time>
      </trkpt>
      <trkpt lat="48.01045" lon="6.73979">
        <ele>612.415</ele>
        <time>2011-04-16T09:13:25Z</time>
      </trkpt>
      <trkpt lat="48.01044" lon="6.73981">
        <ele>613.74</ele>
        <time>2011-04-16T09:13:29Z</time>
      </trkpt>
      <trkpt lat="48.01045" lon="6.73983">
        <ele>613.458</ele>
        <time>2011-04-16T09:13:35Z</time>
      </trkpt>
      <trkpt lat="48.01047" lon="6.73996">
        <ele>613.695</ele>
        <time>2011-04-16T09:13:42Z</time>
      </trkpt>
      <trkpt lat="48.0104" lon="6.74002">
        <ele>616.195</ele>
        <time>2011-04-16T09:13:53Z</time>
      </trkpt>
      <trkpt lat="48.01035" lon="6.74014">
        <ele>617.83</ele>
        <time>2011-04-16T09:14:08Z</time>
      </trkpt>
      <trkpt lat="48.01032" lon="6.74021">
        <ele>618.685</ele>
        <time>2011-04-16T09:14:21Z</time>
      </trkpt>
      <trkpt lat="48.01023" lon="6.74023">
        <ele>620.913</ele>
        <time>2011-04-16T09:14:37Z</time>
      </trkpt>
      <trkpt lat="48.01019" lon="6.74025">
        <ele>621.679</ele>
        <time>2011-04-16T09:14:42Z</time>
      </trkpt>
      <trkpt lat="48.01011" lon="6.74028">
        <ele>622.534</ele>
        <time>2011-04-16T09:14:55Z</time>
      </trkpt>
      <trkpt lat="48.01012" lon="6.74029">
        <ele>623.044</ele>
        <time>2011-04-16T09:15:22Z</time>
      </trkpt>
      <trkpt lat="48.01004" lon="6.74042">
        <ele>625.011</ele>
        <time>2011-04-16T09:15:30Z</time>
      </trkpt>
      <trkpt lat="48.01" lon="6.74046">
        <ele>626.72</ele>
        <time>2011-04-16T09:15:33Z</time>
      </trkpt>
      <trkpt lat="48.00993" lon="6.74057">
        <ele>626.699</ele>
        <time>2011-04-16T09:15:48Z</time>
      </trkpt>
      <trkpt lat="48.00991" lon="6.74058">
        <ele>625.915</ele>
        <time>2011-04-16T09:16:24Z</time>
      </trkpt>
      <trkpt lat="48.0099" lon="6.74055">
        <ele>625.724</ele>
        <time>2011-04-16T09:22:17Z</time>
      </trkpt>
      <trkpt lat="48.0099" lon="6.74056">
        <ele>625.518</ele>
        <time>2011-04-16T09:22:33Z</time>
      </trkpt>
      <trkpt lat="48.00989" lon="6.74058">
        <ele>623.368</ele>
        <time>2011-04-16T09:22:39Z</time>
      </trkpt>
      <trkpt lat="48.0099" lon="6.74078">
        <ele>621.21</ele>
        <time>2011-04-16T09:22:51Z</time>
      </trkpt>
      <trkpt lat="48.00987" lon="6.74079">
        <ele>621.53</ele>
        <time>2011-04-16T09:22:59Z</time>
      </trkpt>
      <trkpt lat="48.00992" lon="6.74097">
        <ele>617.915</ele>
        <time>2011-04-16T09:23:11Z</time>
      </trkpt>
      <trkpt lat="48.00992" lon="6.74107">
        <ele>615.852</ele>
        <time>2011-04-16T09:23:29Z</time>
      </trkpt>
      <trkpt lat="48.00989" lon="6.74127">
        <ele>615.087</ele>
        <time>2011-04-16T09:23:56Z</time>
      </trkpt>
      <trkpt lat="48.00992" lon="6.74152">
        <ele>611.938</ele>
        <time>2011-04-16T09:24:07Z</time>
      </trkpt>
      <trkpt lat="48.00995" lon="6.74159">
        <ele>611.232</ele>
        <time>2011-04-16T09:24:26Z</time>
      </trkpt>
      <trkpt lat="48.00993" lon="6.74163">
        <ele>609.478</ele>
        <time>2011-04-16T09:24:37Z</time>
      </trkpt>
      <trkpt lat="48.00991" lon="6.74169">
        <ele>608.021</ele>
        <time>2011-04-16T09:24:41Z</time>
      </trkpt>
      <trkpt lat="48.00991" lon="6.74173">
        <ele>606.781</ele>
        <time>2011-04-16T09:24:43Z</time>
      </trkpt>
      <trkpt lat="48.00995" lon="6.74183">
        <ele>604.366</ele>
        <time>2011-04-16T09:24:48Z</time>
      </trkpt>
      <trkpt lat="48.00997" lon="6.74193">
        <ele>602.401</ele>
        <time>2011-04-16T09:24:50Z</time>
      </trkpt>
      <trkpt lat="48.00997" lon="6.74203">
        <ele>598.983</ele>
        <time>2011-04-16T09:24:51Z</time>
      </trkpt>
      <trkpt lat="48.00999" lon="6.74211">
        <ele>598.986</ele>
        <time>2011-04-16T09:24:52Z</time>
      </trkpt>
      <trkpt lat="48.01001" lon="6.74227">
        <ele>596.075</ele>
        <time>2011-04-16T09:24:54Z</time>
      </trkpt>
      <trkpt lat="48.01003" lon="6.74238">
        <ele>594.824</ele>
        <time>2011-04-16T09:24:56Z</time>
      </trkpt>
      <trkpt lat="48.01006" lon="6.7425">
        <ele>596.552</ele>
        <time>2011-04-16T09:25:06Z</time>
      </trkpt>
      <trkpt lat="48.01009" lon="6.74265">
        <ele>593.693</ele>
        <time>2011-04-16T09:25:27Z</time>
      </trkpt>
      <trkpt lat="48.01011" lon="6.74275">
        <ele>590.685</ele>
        <time>2011-04-16T09:25:30Z</time>
      </trkpt>
      <trkpt lat="48.01012" lon="6.74279">
        <ele>590.69</ele>
        <time>2011-04-16T09:25:31Z</time>
      </trkpt>
      <trkpt lat="48.01014" lon="6.74289">
        <ele>587.109</ele>
        <time>2011-04-16T09:25:33Z</time>
      </trkpt>
      <trkpt lat="48.01016" lon="6.74294">
        <ele>587.116</ele>
        <time>2011-04-16T09:25:34Z</time>
      </trkpt>
      <trkpt lat="48.01018" lon="6.74303">
        <ele>585.826</ele>
        <time>2011-04-16T09:25:36Z</time>
      </trkpt>
      <trkpt lat="48.01018" lon="6.74306">
        <ele>584.708</ele>
        <time>2011-04-16T09:25:37Z</time>
      </trkpt>
      <trkpt lat="48.01021" lon="6.74319">
        <ele>582.744</ele>
        <time>2011-04-16T09:25:42Z</time>
      </trkpt>
      <trkpt lat="48.01023" lon="6.74332">
        <ele>580.955</ele>
        <time>2011-04-16T09:25:47Z</time>
      </trkpt>
      <trkpt lat="48.01023" lon="6.74338">
        <ele>579.063</ele>
        <time>2011-04-16T09:25:50Z</time>
      </trkpt>
      <trkpt lat="48.01024" lon="6.7434">
        <ele>578.301</ele>
        <time>2011-04-16T09:25:51Z</time>
      </trkpt>
      <trkpt lat="48.0102" lon="6.74349">
        <ele>576.512</ele>
        <time>2011-04-16T09:25:55Z</time>
      </trkpt>
      <trkpt lat="48.0102" lon="6.74357">
        <ele>575.504</ele>
        <time>2011-04-16T09:25:57Z</time>
      </trkpt>
      <trkpt lat="48.01014" lon="6.74373">
        <ele>573.663</ele>
        <time>2011-04-16T09:25:59Z</time>
      </trkpt>
      <trkpt lat="48.0101" lon="6.74385">
        <ele>571.599</ele>
        <time>2011-04-16T09:26:01Z</time>
      </trkpt>
      <trkpt lat="48.01004" lon="6.74399">
        <ele>568.144</ele>
        <time>2011-04-16T09:26:03Z</time>
      </trkpt>
      <trkpt lat="48.01001" lon="6.74405">
        <ele>568.15</ele>
        <time>2011-04-16T09:26:04Z</time>
      </trkpt>
      <trkpt lat="48.00995" lon="6.74416">
        <ele>567.467</ele>
        <time>2011-04-16T09:26:06Z</time>
      </trkpt>
      <trkpt lat="48.00994" lon="6.74429">
        <ele>564.569</ele>
        <time>2011-04-16T09:26:09Z</time>
      </trkpt>
      <trkpt lat="48.0099" lon="6.74438">
        <ele>563.108</ele>
        <time>2011-04-16T09:26:11Z</time>
      </trkpt>
      <trkpt lat="48.00983" lon="6.74452">
        <ele>561.108</ele>
        <time>2011-04-16T09:26:13Z</time>
      </trkpt>
      <trkpt lat="48.00977" lon="6.74463">
        <ele>559.009</ele>
        <time>2011-04-16T09:26:15Z</time>
      </trkpt>
      <trkpt lat="48.00974" lon="6.74476">
        <ele>555.483</ele>
        <time>2011-04-16T09:26:18Z</time>
      </trkpt>
      <trkpt lat="48.00971" lon="6.74489">
        <ele>553.606</ele>
        <time>2011-04-16T09:26:29Z</time>
      </trkpt>
      <trkpt lat="48.00972" lon="6.74491">
        <ele>553.758</ele>
        <time>2011-04-16T09:28:30Z</time>
      </trkpt>
      <trkpt lat="48.00979" lon="6.74513">
        <ele>551.907</ele>
        <time>2011-04-16T09:28:36Z</time>
      </trkpt>
      <trkpt lat="48.00987" lon="6.74539">
        <ele>548.906</ele>
        <time>2011-04-16T09:28:39Z</time>
      </trkpt>
      <trkpt lat="48.0099" lon="6.74547">
        <ele>548.327</ele>
        <time>2011-04-16T09:28:40Z</time>
      </trkpt>
      <trkpt lat="48.00994" lon="6.74576">
        <ele>547.003</ele>
        <time>2011-04-16T09:28:43Z</time>
      </trkpt>
      <trkpt lat="48.00996" lon="6.74599">
        <ele>543.107</ele>
        <time>2011-04-16T09:28:45Z</time>
      </trkpt>
      <trkpt lat="48.01002" lon="6.74638">
        <ele>540.3</ele>
        <time>2011-04-16T09:28:49Z</time>
      </trkpt>
      <trkpt lat="48.0101" lon="6.74668">
        <ele>538.28</ele>
        <time>2011-04-16T09:28:53Z</time>
      </trkpt>
      <trkpt lat="48.0101" lon="6.74687">
        <ele>537.258</ele>
        <time>2011-04-16T09:29:00Z</time>
      </trkpt>
      <trkpt lat="48.01014" lon="6.74715">
        <ele>536.41</ele>
        <time>2011-04-16T09:29:14Z</time>
      </trkpt>
      <trkpt lat="48.01014" lon="6.74755">
        <ele>539.709</ele>
        <time>2011-04-16T09:29:26Z</time>
      </trkpt>
      <trkpt lat="48.01001" lon="6.74806">
        <ele>539.027</ele>
        <time>2011-04-16T09:29:41Z</time>
      </trkpt>
      <trkpt lat="48.01" lon="6.7484">
        <ele>536.382</ele>
        <time>2011-04-16T09:29:46Z</time>
      </trkpt>
      <trkpt lat="48.01001" lon="6.74848">
        <ele>535.052</ele>
        <time>2011-04-16T09:29:47Z</time>
      </trkpt>
      <trkpt lat="48.01004" lon="6.74875">
        <ele>531.828</ele>
        <time>2011-04-16T09:29:50Z</time>
      </trkpt>
      <trkpt lat="48.01004" lon="6.74882">
        <ele>531.836</ele>
        <time>2011-04-16T09:29:51Z</time>
      </trkpt>
      <trkpt lat="48.01015" lon="6.74916">
        <ele>528.589</ele>
        <time>2011-04-16T09:29:55Z</time>
      </trkpt>
      <trkpt lat="48.01025" lon="6.74936">
        <ele>527.029</ele>
        <time>2011-04-16T09:29:57Z</time>
      </trkpt>
      <trkpt lat="48.01029" lon="6.74955">
        <ele>525.638</ele>
        <time>2011-04-16T09:29:59Z</time>
      </trkpt>
      <trkpt lat="48.01028" lon="6.74977">
        <ele>525.998</ele>
        <time>2011-04-16T09:30:02Z</time>
      </trkpt>
      <trkpt lat="48.01038" lon="6.75012">
        <ele>523.487</ele>
        <time>2011-04-16T09:30:07Z</time>
      </trkpt>
      <trkpt lat="48.0105" lon="6.75026">
        <ele>522.752</ele>
        <time>2011-04-16T09:30:10Z</time>
      </trkpt>
      <trkpt lat="48.01066" lon="6.75039">
        <ele>519.481</ele>
        <time>2011-04-16T09:30:13Z</time>
      </trkpt>
      <trkpt lat="48.01072" lon="6.75044">
        <ele>519.487</ele>
        <time>2011-04-16T09:30:14Z</time>
      </trkpt>
      <trkpt lat="48.01098" lon="6.75036">
        <ele>518.467</ele>
        <time>2011-04-16T09:30:20Z</time>
      </trkpt>
      <trkpt lat="48.01114" lon="6.75017">
        <ele>515.885</ele>
        <time>2011-04-16T09:30:23Z</time>
      </trkpt>
      <trkpt lat="48.01126" lon="6.75002">
        <ele>512.941</ele>
        <time>2011-04-16T09:30:25Z</time>
      </trkpt>
      <trkpt lat="48.01141" lon="6.74981">
        <ele>509.994</ele>
        <time>2011-04-16T09:30:28Z</time>
      </trkpt>
      <trkpt lat="48.01145" lon="6.74971">
        <ele>510.132</ele>
        <time>2011-04-16T09:30:35Z</time>
      </trkpt>
      <trkpt lat="48.0115" lon="6.74968">
        <ele>509.672</ele>
        <time>2011-04-16T09:30:51Z</time>
      </trkpt>
      <trkpt lat="48.01162" lon="6.74962">
        <ele>508.681</ele>
        <time>2011-04-16T09:31:03Z</time>
      </trkpt>
      <trkpt lat="48.01167" lon="6.74954">
        <ele>508.18</ele>
        <time>2011-04-16T09:31:14Z</time>
      </trkpt>
      <trkpt lat="48.01179" lon="6.74933">
        <ele>504.928</ele>
        <time>2011-04-16T09:31:17Z</time>
      </trkpt>
      <trkpt lat="48.01187" lon="6.7492">
        <ele>503.2</ele>
        <time>2011-04-16T09:31:19Z</time>
      </trkpt>
      <trkpt lat="48.01196" lon="6.74917">
        <ele>501.808</ele>
        <time>2011-04-16T09:31:21Z</time>
      </trkpt>
      <trkpt lat="48.01206" lon="6.74948">
        <ele>499.922</ele>
        <time>2011-04-16T09:31:27Z</time>
      </trkpt>
      <trkpt lat="48.01204" lon="6.74955">
        <ele>499.922</ele>
        <time>2011-04-16T09:31:28Z</time>
      </trkpt>
      <trkpt lat="48.01194" lon="6.75002">
        <ele>500.275</ele>
        <time>2011-04-16T09:31:35Z</time>
      </trkpt>
      <trkpt lat="48.01186" lon="6.75041">
        <ele>501.479</ele>
        <time>2011-04-16T09:31:46Z</time>
      </trkpt>
      <trkpt lat="48.01164" lon="6.75093">
        <ele>498.92</ele>
        <time>2011-04-16T09:31:56Z</time>
      </trkpt>
      <trkpt lat="48.01161" lon="6.75098">
        <ele>498.359</ele>
        <time>2011-04-16T09:31:57Z</time>
      </trkpt>
      <trkpt lat="48.01127" lon="6.75152">
        <ele>494.813</ele>
        <time>2011-04-16T09:32:05Z</time>
      </trkpt>
      <trkpt lat="48.01113" lon="6.7517">
        <ele>493.575</ele>
        <time>2011-04-16T09:32:08Z</time>
      </trkpt>
      <trkpt lat="48.01093" lon="6.75214">
        <ele>493.413</ele>
        <time>2011-04-16T09:32:16Z</time>
      </trkpt>
      <trkpt lat="48.0106" lon="6.75283">
        <ele>490.432</ele>
        <time>2011-04-16T09:32:28Z</time>
      </trkpt>
      <trkpt lat="48.01041" lon="6.75296">
        <ele>489.267</ele>
        <time>2011-04-16T09:32:31Z</time>
      </trkpt>
      <trkpt lat="48.01024" lon="6.75307">
        <ele>490.461</ele>
        <time>2011-04-16T09:32:33Z</time>
      </trkpt>
      <trkpt lat="48.01015" lon="6.75313">
        <ele>491.843</ele>
        <time>2011-04-16T09:32:35Z</time>
      </trkpt>
      <trkpt lat="48.00964" lon="6.75341">
        <ele>492.535</ele>
        <time>2011-04-16T09:32:45Z</time>
      </trkpt>
      <trkpt lat="48.00947" lon="6.75373">
        <ele>492.179</ele>
        <time>2011-04-16T09:32:57Z</time>
      </trkpt>
      <trkpt lat="48.00942" lon="6.75384">
        <ele>492.426</ele>
        <time>2011-04-16T09:33:30Z</time>
      </trkpt>
      <trkpt lat="48.00943" lon="6.75395">
        <ele>492.819</ele>
        <time>2011-04-16T09:33:34Z</time>
      </trkpt>
      <trkpt lat="48.00949" lon="6.7542">
        <ele>492.646</ele>
        <time>2011-04-16T09:33:42Z</time>
      </trkpt>
      <trkpt lat="48.00966" lon="6.75482">
        <ele>491.456</ele>
        <time>2011-04-16T09:33:57Z</time>
      </trkpt>
      <trkpt lat="48.0099" lon="6.7553">
        <ele>490.964</ele>
        <time>2011-04-16T09:34:10Z</time>
      </trkpt>
      <trkpt lat="48.00989" lon="6.75534">
        <ele>491.405</ele>
        <time>2011-04-16T09:34:23Z</time>
      </trkpt>
      <trkpt lat="48.00989" lon="6.75534">
        <ele>490.931</ele>
        <time>2011-04-16T09:34:26Z</time>
      </trkpt>
      <trkpt lat="48.00994" lon="6.7553">
        <ele>489.923</ele>
        <time>2011-04-16T09:34:31Z</time>
      </trkpt>
      <trkpt lat="48.00994" lon="6.75529">
        <ele>488.855</ele>
        <time>2011-04-16T09:34:32Z</time>
      </trkpt>
      <trkpt lat="48.00995" lon="6.75525">
        <ele>488.257</ele>
        <time>2011-04-16T09:34:40Z</time>
      </trkpt>
      <trkpt lat="48.00999" lon="6.75521">
        <ele>486.274</ele>
        <time>2011-04-16T09:34:44Z</time>
      </trkpt>
      <trkpt lat="48.00999" lon="6.75515">
        <ele>485.884</ele>
        <time>2011-04-16T09:34:58Z</time>
      </trkpt>
      <trkpt lat="48.00998" lon="6.75517">
        <ele>485.104</ele>
        <time>2011-04-16T09:38:25Z</time>
      </trkpt>
      <trkpt lat="48.00995" lon="6.75525">
        <ele>487.371</ele>
        <time>2011-04-16T09:38:34Z</time>
      </trkpt>
      <trkpt lat="48.00994" lon="6.75526">
        <ele>488.074</ele>
        <time>2011-04-16T09:38:36Z</time>
      </trkpt>
      <trkpt lat="48.0099" lon="6.75527">
        <ele>490.492</ele>
        <time>2011-04-16T09:38:41Z</time>
      </trkpt>
      <trkpt lat="48.00988" lon="6.75529">
        <ele>491.166</ele>
        <time>2011-04-16T09:38:58Z</time>
      </trkpt>
      <trkpt lat="48.00991" lon="6.75585">
        <ele>490.809</ele>
        <time>2011-04-16T09:39:21Z</time>
      </trkpt>
      <trkpt lat="48.0099" lon="6.75531">
        <ele>470.227</ele>
        <time>2011-04-17T08:38:42Z</time>
      </trkpt>
      <trkpt lat="48.00987" lon="6.75533">
        <ele>470.942</ele>
        <time>2011-04-17T08:38:49Z</time>
      </trkpt>
      <trkpt lat="48.00989" lon="6.75528">
        <ele>470.921</ele>
        <time>2011-04-17T08:39:13Z</time>
      </trkpt>
      <trkpt lat="48.00991" lon="6.75529">
        <ele>470.068</ele>
        <time>2011-04-17T08:39:17Z</time>
      </trkpt>
      <trkpt lat="48.00998" lon="6.75524">
        <ele>467.293</ele>
        <time>2011-04-17T08:39:28Z</time>
      </trkpt>
      <trkpt lat="48.01003" lon="6.75518">
        <ele>465.892</ele>
        <time>2011-04-17T08:39:33Z</time>
      </trkpt>
      <trkpt lat="48.01005" lon="6.75516">
        <ele>465.798</ele>
        <time>2011-04-17T08:39:37Z</time>
      </trkpt>
      <trkpt lat="48.01006" lon="6.75505">
        <ele>464.675</ele>
        <time>2011-04-17T08:39:46Z</time>
      </trkpt>
      <trkpt lat="48.01012" lon="6.75489">
        <ele>463.805</ele>
        <time>2011-04-17T08:39:58Z</time>
      </trkpt>
      <trkpt lat="48.01011" lon="6.75489">
        <ele>463.399</ele>
        <time>2011-04-17T08:40:19Z</time>
      </trkpt>
      <trkpt lat="48.01011" lon="6.75489">
        <ele>466.408</ele>
        <time>2011-04-17T08:44:19Z</time>
      </trkpt>
      <trkpt lat="48.01011" lon="6.75494">
        <ele>467.863</ele>
        <time>2011-04-17T08:45:35Z</time>
      </trkpt>
      <trkpt lat="48.01012" lon="6.75497">
        <ele>467.496</ele>
        <time>2011-04-17T08:45:39Z</time>
      </trkpt>
      <trkpt lat="48.01009" lon="6.7551">
        <ele>469.33</ele>
        <time>2011-04-17T08:45:53Z</time>
      </trkpt>
      <trkpt lat="48.01009" lon="6.75513">
        <ele>469.607</ele>
        <time>2011-04-17T08:45:55Z</time>
      </trkpt>
      <trkpt lat="48.01003" lon="6.75523">
        <ele>471.088</ele>
        <time>2011-04-17T08:46:06Z</time>
      </trkpt>
      <trkpt lat="48.00999" lon="6.75527">
        <ele>473.234</ele>
        <time>2011-04-17T08:46:13Z</time>
      </trkpt>
      <trkpt lat="48.00993" lon="6.75527">
        <ele>475.184</ele>
        <time>2011-04-17T08:46:23Z</time>
      </trkpt>
      <trkpt lat="48.00988" lon="6.75525">
        <ele>475.382</ele>
        <time>2011-04-17T08:46:48Z</time>
      </trkpt>
      <trkpt lat="48.00989" lon="6.75518">
        <ele>475.841</ele>
        <time>2011-04-17T08:47:04Z</time>
      </trkpt>
      <trkpt lat="48.00988" lon="6.75521">
        <ele>475.85</ele>
        <time>2011-04-17T08:47:11Z</time>
      </trkpt>
      <trkpt lat="48.00987" lon="6.75551">
        <ele>475.597</ele>
        <time>2011-04-17T08:47:20Z</time>
      </trkpt>
      <trkpt lat="48.0099" lon="6.75568">
        <ele>475.916</ele>
        <time>2011-04-17T08:47:24Z</time>
      </trkpt>
      <trkpt lat="48.01025" lon="6.75619">
        <ele>475.709</ele>
        <time>2011-04-17T08:47:40Z</time>
      </trkpt>
      <trkpt lat="48.01061" lon="6.75615">
        <ele>476.059</ele>
        <time>2011-04-17T08:47:52Z</time>
      </trkpt>
      <trkpt lat="48.0109" lon="6.75584">
        <ele>476.988</ele>
        <time>2011-04-17T08:48:05Z</time>
      </trkpt>
      <trkpt lat="48.01122" lon="6.75555">
        <ele>479.403</ele>
        <time>2011-04-17T08:48:18Z</time>
      </trkpt>
      <trkpt lat="48.0115" lon="6.75524">
        <ele>482.904</ele>
        <time>2011-04-17T08:48:30Z</time>
      </trkpt>
      <trkpt lat="48.01154" lon="6.75519">
        <ele>483.771</ele>
        <time>2011-04-17T08:48:32Z</time>
      </trkpt>
      <trkpt lat="48.01177" lon="6.75497">
        <ele>486.639</ele>
        <time>2011-04-17T08:48:44Z</time>
      </trkpt>
      <trkpt lat="48.01181" lon="6.75495">
        <ele>487.137</ele>
        <time>2011-04-17T08:48:48Z</time>
      </trkpt>
      <trkpt lat="48.01185" lon="6.75487">
        <ele>487.199</ele>
        <time>2011-04-17T08:48:52Z</time>
      </trkpt>
      <trkpt lat="48.01185" lon="6.75476">
        <ele>487.085</ele>
        <time>2011-04-17T08:48:56Z</time>
      </trkpt>
      <trkpt lat="48.01183" lon="6.7547">
        <ele>487.56</ele>
        <time>2011-04-17T08:49:11Z</time>
      </trkpt>
      <trkpt lat="48.01183" lon="6.7547">
        <ele>487.483</ele>
        <time>2011-04-17T08:49:12Z</time>
      </trkpt>
      <trkpt lat="48.0118" lon="6.75479">
        <ele>487.486</ele>
        <time>2011-04-17T08:49:18Z</time>
      </trkpt>
      <trkpt lat="48.01184" lon="6.75497">
        <ele>487.556</ele>
        <time>2011-04-17T08:49:24Z</time>
      </trkpt>
      <trkpt lat="48.01184" lon="6.75509">
        <ele>487.878</ele>
        <time>2011-04-17T08:49:36Z</time>
      </trkpt>
      <trkpt lat="48.01185" lon="6.75508">
        <ele>487.9</ele>
        <time>2011-04-17T08:50:12Z</time>
      </trkpt>
      <trkpt lat="48.01193" lon="6.75465">
        <ele>488.608</ele>
        <time>2011-04-17T08:50:24Z</time>
      </trkpt>
      <trkpt lat="48.01211" lon="6.75423">
        <ele>491.173</ele>
        <time>2011-04-17T08:50:38Z</time>
      </trkpt>
      <trkpt lat="48.01228" lon="6.75401">
        <ele>492.428</ele>
        <time>2011-04-17T08:50:47Z</time>
      </trkpt>
      <trkpt lat="48.01263" lon="6.75377">
        <ele>495.488</ele>
        <time>2011-04-17T08:51:01Z</time>
      </trkpt>
      <trkpt lat="48.01312" lon="6.75373">
        <ele>496.758</ele>
        <time>2011-04-17T08:51:19Z</time>
      </trkpt>
      <trkpt lat="48.01355" lon="6.75386">
        <ele>497.938</ele>
        <time>2011-04-17T08:51:33Z</time>
      </trkpt>
      <trkpt lat="48.01381" lon="6.75375">
        <ele>498.989</ele>
        <time>2011-04-17T08:51:44Z</time>
      </trkpt>
      <trkpt lat="48.01403" lon="6.75359">
        <ele>499.166</ele>
        <time>2011-04-17T08:51:53Z</time>
      </trkpt>
      <trkpt lat="48.01419" lon="6.75355">
        <ele>500.182</ele>
        <time>2011-04-17T08:51:57Z</time>
      </trkpt>
      <trkpt lat="48.0143" lon="6.75353">
        <ele>501.646</ele>
        <time>2011-04-17T08:52:02Z</time>
      </trkpt>
      <trkpt lat="48.01453" lon="6.7536">
        <ele>503.849</ele>
        <time>2011-04-17T08:52:13Z</time>
      </trkpt>
      <trkpt lat="48.01454" lon="6.75378">
        <ele>505.477</ele>
        <time>2011-04-17T08:52:22Z</time>
      </trkpt>
      <trkpt lat="48.01445" lon="6.75383">
        <ele>506.477</ele>
        <time>2011-04-17T08:52:28Z</time>
      </trkpt>
      <trkpt lat="48.01449" lon="6.75395">
        <ele>508.05</ele>
        <time>2011-04-17T08:52:34Z</time>
      </trkpt>
      <trkpt lat="48.01489" lon="6.75412">
        <ele>509.263</ele>
        <time>2011-04-17T08:52:53Z</time>
      </trkpt>
      <trkpt lat="48.01521" lon="6.75443">
        <ele>509.865</ele>
        <time>2011-04-17T08:53:11Z</time>
      </trkpt>
      <trkpt lat="48.01522" lon="6.75441">
        <ele>509.603</ele>
        <time>2011-04-17T08:53:27Z</time>
      </trkpt>
      <trkpt lat="48.01521" lon="6.75441">
        <ele>510.246</ele>
        <time>2011-04-17T08:54:03Z</time>
      </trkpt>
      <trkpt lat="48.01492" lon="6.7542">
        <ele>509.887</ele>
        <time>2011-04-17T08:54:16Z</time>
      </trkpt>
      <trkpt lat="48.0148" lon="6.75416">
        <ele>510.088</ele>
        <time>2011-04-17T08:54:23Z</time>
      </trkpt>
      <trkpt lat="48.01454" lon="6.75407">
        <ele>509.611</ele>
        <time>2011-04-17T08:54:34Z</time>
      </trkpt>
      <trkpt lat="48.01452" lon="6.75408">
        <ele>509.615</ele>
        <time>2011-04-17T08:54:35Z</time>
      </trkpt>
      <trkpt lat="48.01448" lon="6.75417">
        <ele>511.695</ele>
        <time>2011-04-17T08:54:40Z</time>
      </trkpt>
      <trkpt lat="48.01448" lon="6.75417">
        <ele>511.885</ele>
        <time>2011-04-17T08:55:12Z</time>
      </trkpt>
      <trkpt lat="48.01448" lon="6.75417">
        <ele>512.113</ele>
        <time>2011-04-17T08:55:35Z</time>
      </trkpt>
      <trkpt lat="48.01455" lon="6.75432">
        <ele>512.854</ele>
        <time>2011-04-17T08:55:42Z</time>
      </trkpt>
      <trkpt lat="48.01478" lon="6.75452">
        <ele>513.894</ele>
        <time>2011-04-17T08:55:59Z</time>
      </trkpt>
      <trkpt lat="48.01504" lon="6.75468">
        <ele>514.715</ele>
        <time>2011-04-17T08:56:13Z</time>
      </trkpt>
      <trkpt lat="48.01505" lon="6.75469">
        <ele>514.902</ele>
        <time>2011-04-17T08:56:14Z</time>
      </trkpt>
      <trkpt lat="48.01501" lon="6.75474">
        <ele>515.545</ele>
        <time>2011-04-17T08:56:22Z</time>
      </trkpt>
      <trkpt lat="48.015" lon="6.75475">
        <ele>515.809</ele>
        <time>2011-04-17T08:56:24Z</time>
      </trkpt>
      <trkpt lat="48.01495" lon="6.75475">
        <ele>516.058</ele>
        <time>2011-04-17T08:56:27Z</time>
      </trkpt>
      <trkpt lat="48.01477" lon="6.7547">
        <ele>517.564</ele>
        <time>2011-04-17T08:56:39Z</time>
      </trkpt>
      <trkpt lat="48.01473" lon="6.75479">
        <ele>518.753</ele>
        <time>2011-04-17T08:56:44Z</time>
      </trkpt>
      <trkpt lat="48.01487" lon="6.75496">
        <ele>520.626</ele>
        <time>2011-04-17T08:56:56Z</time>
      </trkpt>
      <trkpt lat="48.0149" lon="6.75498">
        <ele>522.166</ele>
        <time>2011-04-17T08:56:59Z</time>
      </trkpt>
      <trkpt lat="48.01512" lon="6.75512">
        <ele>524.068</ele>
        <time>2011-04-17T08:57:14Z</time>
      </trkpt>
      <trkpt lat="48.01521" lon="6.75523">
        <ele>525.49</ele>
        <time>2011-04-17T08:57:22Z</time>
      </trkpt>
      <trkpt lat="48.01534" lon="6.75547">
        <ele>527.611</ele>
        <time>2011-04-17T08:57:35Z</time>
      </trkpt>
      <trkpt lat="48.01536" lon="6.75555">
        <ele>528.132</ele>
        <time>2011-04-17T08:57:39Z</time>
      </trkpt>
      <trkpt lat="48.01528" lon="6.75591">
        <ele>530.789</ele>
        <time>2011-04-17T08:57:56Z</time>
      </trkpt>
      <trkpt lat="48.01527" lon="6.75595">
        <ele>531.416</ele>
        <time>2011-04-17T08:57:58Z</time>
      </trkpt>
      <trkpt lat="48.01522" lon="6.75609">
        <ele>532.67</ele>
        <time>2011-04-17T08:58:05Z</time>
      </trkpt>
      <trkpt lat="48.0152" lon="6.75615">
        <ele>533.755</ele>
        <time>2011-04-17T08:58:09Z</time>
      </trkpt>
      <trkpt lat="48.01518" lon="6.75639">
        <ele>536.966</ele>
        <time>2011-04-17T08:58:23Z</time>
      </trkpt>
      <trkpt lat="48.0151" lon="6.75656">
        <ele>539.324</ele>
        <time>2011-04-17T08:58:35Z</time>
      </trkpt>
      <trkpt lat="48.01507" lon="6.75667">
        <ele>539.731</ele>
        <time>2011-04-17T08:58:41Z</time>
      </trkpt>
      <trkpt lat="48.01496" lon="6.75685">
        <ele>541</ele>
        <time>2011-04-17T08:58:52Z</time>
      </trkpt>
      <trkpt lat="48.01492" lon="6.7569">
        <ele>541.33</ele>
        <time>2011-04-17T08:59:05Z</time>
      </trkpt>
      <trkpt lat="48.0149" lon="6.75692">
        <ele>541.041</ele>
        <time>2011-04-17T08:59:21Z</time>
      </trkpt>
      <trkpt lat="48.01486" lon="6.75699">
        <ele>540.865</ele>
        <time>2011-04-17T08:59:25Z</time>
      </trkpt>
      <trkpt lat="48.01485" lon="6.7572">
        <ele>542.09</ele>
        <time>2011-04-17T08:59:33Z</time>
      </trkpt>
      <trkpt lat="48.01486" lon="6.75743">
        <ele>542.568</ele>
        <time>2011-04-17T08:59:41Z</time>
      </trkpt>
      <trkpt lat="48.01489" lon="6.75774">
        <ele>543.539</ele>
        <time>2011-04-17T08:59:54Z</time>
      </trkpt>
      <trkpt lat="48.01494" lon="6.75794">
        <ele>544.13</ele>
        <time>2011-04-17T09:00:02Z</time>
      </trkpt>
      <trkpt lat="48.01507" lon="6.75827">
        <ele>545.69</ele>
        <time>2011-04-17T09:00:13Z</time>
      </trkpt>
      <trkpt lat="48.01518" lon="6.75864">
        <ele>546.204</ele>
        <time>2011-04-17T09:00:25Z</time>
      </trkpt>
      <trkpt lat="48.01522" lon="6.75876">
        <ele>545.926</ele>
        <time>2011-04-17T09:00:35Z</time>
      </trkpt>
      <trkpt lat="48.01536" lon="6.75906">
        <ele>545.608</ele>
        <time>2011-04-17T09:00:43Z</time>
      </trkpt>
      <trkpt lat="48.01547" lon="6.75929">
        <ele>542.888</ele>
        <time>2011-04-17T09:00:46Z</time>
      </trkpt>
      <trkpt lat="48.01555" lon="6.75947">
        <ele>541.432</ele>
        <time>2011-04-17T09:00:48Z</time>
      </trkpt>
      <trkpt lat="48.0156" lon="6.75956">
        <ele>540.39</ele>
        <time>2011-04-17T09:00:49Z</time>
      </trkpt>
      <trkpt lat="48.01576" lon="6.75988">
        <ele>538.364</ele>
        <time>2011-04-17T09:00:53Z</time>
      </trkpt>
      <trkpt lat="48.01604" lon="6.76028">
        <ele>537.57</ele>
        <time>2011-04-17T09:01:02Z</time>
      </trkpt>
      <trkpt lat="48.0163" lon="6.76062">
        <ele>537.234</ele>
        <time>2011-04-17T09:01:10Z</time>
      </trkpt>
      <trkpt lat="48.01634" lon="6.76066">
        <ele>537.241</ele>
        <time>2011-04-17T09:01:11Z</time>
      </trkpt>
      <trkpt lat="48.01648" lon="6.76074">
        <ele>535.989</ele>
        <time>2011-04-17T09:01:14Z</time>
      </trkpt>
      <trkpt lat="48.01657" lon="6.76081">
        <ele>534.672</ele>
        <time>2011-04-17T09:01:16Z</time>
      </trkpt>
      <trkpt lat="48.01661" lon="6.76083">
        <ele>534.301</ele>
        <time>2011-04-17T09:01:17Z</time>
      </trkpt>
      <trkpt lat="48.01672" lon="6.76095">
        <ele>533.578</ele>
        <time>2011-04-17T09:01:20Z</time>
      </trkpt>
      <trkpt lat="48.01679" lon="6.76109">
        <ele>532.817</ele>
        <time>2011-04-17T09:01:23Z</time>
      </trkpt>
      <trkpt lat="48.01689" lon="6.76123">
        <ele>532.626</ele>
        <time>2011-04-17T09:01:27Z</time>
      </trkpt>
      <trkpt lat="48.01703" lon="6.7611">
        <ele>532.137</ele>
        <time>2011-04-17T09:01:36Z</time>
      </trkpt>
      <trkpt lat="48.01716" lon="6.76117">
        <ele>533.184</ele>
        <time>2011-04-17T09:01:43Z</time>
      </trkpt>
      <trkpt lat="48.0173" lon="6.76129">
        <ele>536.255</ele>
        <time>2011-04-17T09:01:51Z</time>
      </trkpt>
      <trkpt lat="48.01735" lon="6.76137">
        <ele>537.14</ele>
        <time>2011-04-17T09:01:55Z</time>
      </trkpt>
      <trkpt lat="48.01746" lon="6.76141">
        <ele>538.875</ele>
        <time>2011-04-17T09:02:03Z</time>
      </trkpt>
      <trkpt lat="48.01755" lon="6.76137">
        <ele>538.988</ele>
        <time>2011-04-17T09:02:07Z</time>
      </trkpt>
      <trkpt lat="48.01762" lon="6.76144">
        <ele>539.743</ele>
        <time>2011-04-17T09:02:12Z</time>
      </trkpt>
      <trkpt lat="48.01766" lon="6.76159">
        <ele>541.395</ele>
        <time>2011-04-17T09:02:19Z</time>
      </trkpt>
      <trkpt lat="48.01771" lon="6.7618">
        <ele>542.291</ele>
        <time>2011-04-17T09:02:28Z</time>
      </trkpt>
      <trkpt lat="48.01775" lon="6.76192">
        <ele>542.651</ele>
        <time>2011-04-17T09:02:34Z</time>
      </trkpt>
      <trkpt lat="48.01779" lon="6.76204">
        <ele>542.646</ele>
        <time>2011-04-17T09:02:39Z</time>
      </trkpt>
      <trkpt lat="48.01785" lon="6.76214">
        <ele>542.75</ele>
        <time>2011-04-17T09:02:44Z</time>
      </trkpt>
      <trkpt lat="48.01792" lon="6.76218">
        <ele>544.705</ele>
        <time>2011-04-17T09:02:49Z</time>
      </trkpt>
      <trkpt lat="48.01794" lon="6.76222">
        <ele>545.034</ele>
        <time>2011-04-17T09:02:51Z</time>
      </trkpt>
      <trkpt lat="48.01795" lon="6.7623">
        <ele>545.219</ele>
        <time>2011-04-17T09:02:55Z</time>
      </trkpt>
      <trkpt lat="48.01801" lon="6.76251">
        <ele>546.016</ele>
        <time>2011-04-17T09:03:02Z</time>
      </trkpt>
      <trkpt lat="48.01805" lon="6.7626">
        <ele>546.709</ele>
        <time>2011-04-17T09:03:06Z</time>
      </trkpt>
      <trkpt lat="48.01808" lon="6.76262">
        <ele>546.777</ele>
        <time>2011-04-17T09:03:09Z</time>
      </trkpt>
      <trkpt lat="48.01814" lon="6.7627">
        <ele>547.682</ele>
        <time>2011-04-17T09:03:14Z</time>
      </trkpt>
      <trkpt lat="48.01824" lon="6.76292">
        <ele>547.621</ele>
        <time>2011-04-17T09:03:22Z</time>
      </trkpt>
      <trkpt lat="48.0183" lon="6.76309">
        <ele>546.267</ele>
        <time>2011-04-17T09:03:26Z</time>
      </trkpt>
      <trkpt lat="48.01847" lon="6.76314">
        <ele>545.962</ele>
        <time>2011-04-17T09:03:31Z</time>
      </trkpt>
      <trkpt lat="48.0186" lon="6.76319">
        <ele>545.792</ele>
        <time>2011-04-17T09:03:36Z</time>
      </trkpt>
      <trkpt lat="48.01864" lon="6.76325">
        <ele>544.986</ele>
        <time>2011-04-17T09:03:38Z</time>
      </trkpt>
      <trkpt lat="48.01875" lon="6.76372">
        <ele>541.336</ele>
        <time>2011-04-17T09:03:49Z</time>
      </trkpt>
      <trkpt lat="48.0188" lon="6.7639">
        <ele>538.281</ele>
        <time>2011-04-17T09:03:54Z</time>
      </trkpt>
      <trkpt lat="48.01883" lon="6.76392">
        <ele>538.285</ele>
        <time>2011-04-17T09:03:55Z</time>
      </trkpt>
      <trkpt lat="48.01885" lon="6.76392">
        <ele>537.869</ele>
        <time>2011-04-17T09:03:56Z</time>
      </trkpt>
      <trkpt lat="48.01892" lon="6.76385">
        <ele>535.945</ele>
        <time>2011-04-17T09:03:59Z</time>
      </trkpt>
      <trkpt lat="48.01902" lon="6.76395">
        <ele>533.9</ele>
        <time>2011-04-17T09:04:03Z</time>
      </trkpt>
      <trkpt lat="48.01909" lon="6.76406">
        <ele>534.44</ele>
        <time>2011-04-17T09:04:05Z</time>
      </trkpt>
      <trkpt lat="48.01925" lon="6.76446">
        <ele>536.909</ele>
        <time>2011-04-17T09:04:13Z</time>
      </trkpt>
      <trkpt lat="48.01927" lon="6.76449">
        <ele>536.914</ele>
        <time>2011-04-17T09:04:14Z</time>
      </trkpt>
      <trkpt lat="48.01928" lon="6.76465">
        <ele>537.061</ele>
        <time>2011-04-17T09:04:20Z</time>
      </trkpt>
      <trkpt lat="48.01931" lon="6.76475">
        <ele>536.843</ele>
        <time>2011-04-17T09:04:23Z</time>
      </trkpt>
      <trkpt lat="48.01925" lon="6.76483">
        <ele>537.184</ele>
        <time>2011-04-17T09:04:28Z</time>
      </trkpt>
      <trkpt lat="48.01923" lon="6.76491">
        <ele>537.668</ele>
        <time>2011-04-17T09:04:32Z</time>
      </trkpt>
      <trkpt lat="48.01926" lon="6.76504">
        <ele>536.082</ele>
        <time>2011-04-17T09:04:35Z</time>
      </trkpt>
      <trkpt lat="48.01934" lon="6.76517">
        <ele>534.336</ele>
        <time>2011-04-17T09:04:39Z</time>
      </trkpt>
      <trkpt lat="48.01944" lon="6.7653">
        <ele>533.298</ele>
        <time>2011-04-17T09:04:42Z</time>
      </trkpt>
      <trkpt lat="48.0195" lon="6.7657">
        <ele>529.472</ele>
        <time>2011-04-17T09:04:48Z</time>
      </trkpt>
      <trkpt lat="48.01942" lon="6.76588">
        <ele>527.256</ele>
        <time>2011-04-17T09:04:51Z</time>
      </trkpt>
      <trkpt lat="48.01935" lon="6.76595">
        <ele>525.749</ele>
        <time>2011-04-17T09:04:53Z</time>
      </trkpt>
      <trkpt lat="48.0193" lon="6.76604">
        <ele>525.434</ele>
        <time>2011-04-17T09:05:03Z</time>
      </trkpt>
      <trkpt lat="48.0193" lon="6.76604">
        <ele>525.527</ele>
        <time>2011-04-17T09:05:14Z</time>
      </trkpt>
      <trkpt lat="48.01931" lon="6.76625">
        <ele>524.121</ele>
        <time>2011-04-17T09:05:20Z</time>
      </trkpt>
      <trkpt lat="48.01934" lon="6.76636">
        <ele>525.813</ele>
        <time>2011-04-17T09:05:34Z</time>
      </trkpt>
      <trkpt lat="48.01933" lon="6.76636">
        <ele>525.749</ele>
        <time>2011-04-17T09:05:41Z</time>
      </trkpt>
      <trkpt lat="48.01928" lon="6.76624">
        <ele>524.553</ele>
        <time>2011-04-17T09:05:45Z</time>
      </trkpt>
      <trkpt lat="48.01958" lon="6.76597">
        <ele>521.771</ele>
        <time>2011-04-17T09:05:53Z</time>
      </trkpt>
      <trkpt lat="48.01971" lon="6.76586">
        <ele>521.146</ele>
        <time>2011-04-17T09:05:57Z</time>
      </trkpt>
      <trkpt lat="48.01996" lon="6.76586">
        <ele>521.737</ele>
        <time>2011-04-17T09:06:07Z</time>
      </trkpt>
      <trkpt lat="48.02" lon="6.76588">
        <ele>524.094</ele>
        <time>2011-04-17T09:06:10Z</time>
      </trkpt>
      <trkpt lat="48.02004" lon="6.76593">
        <ele>525.684</ele>
        <time>2011-04-17T09:06:25Z</time>
      </trkpt>
      <trkpt lat="48.02005" lon="6.76594">
        <ele>525.844</ele>
        <time>2011-04-17T09:06:33Z</time>
      </trkpt>
      <trkpt lat="48.0201" lon="6.76598">
        <ele>526.682</ele>
        <time>2011-04-17T09:06:44Z</time>
      </trkpt>
      <trkpt lat="48.02015" lon="6.76605">
        <ele>526.728</ele>
        <time>2011-04-17T09:06:48Z</time>
      </trkpt>
      <trkpt lat="48.02023" lon="6.76628">
        <ele>526.396</ele>
        <time>2011-04-17T09:06:57Z</time>
      </trkpt>
      <trkpt lat="48.02026" lon="6.76633">
        <ele>527.606</ele>
        <time>2011-04-17T09:06:59Z</time>
      </trkpt>
      <trkpt lat="48.0204" lon="6.76639">
        <ele>528.582</ele>
        <time>2011-04-17T09:07:04Z</time>
      </trkpt>
      <trkpt lat="48.02063" lon="6.76646">
        <ele>529.531</ele>
        <time>2011-04-17T09:07:12Z</time>
      </trkpt>
      <trkpt lat="48.02069" lon="6.76659">
        <ele>530.069</ele>
        <time>2011-04-17T09:07:17Z</time>
      </trkpt>
      <trkpt lat="48.02067" lon="6.7666">
        <ele>530.955</ele>
        <time>2011-04-17T09:07:24Z</time>
      </trkpt>
      <trkpt lat="48.0206" lon="6.76659">
        <ele>531.602</ele>
        <time>2011-04-17T09:07:29Z</time>
      </trkpt>
      <trkpt lat="48.02053" lon="6.76671">
        <ele>533.38</ele>
        <time>2011-04-17T09:07:39Z</time>
      </trkpt>
      <trkpt lat="48.02051" lon="6.76673">
        <ele>533.386</ele>
        <time>2011-04-17T09:07:40Z</time>
      </trkpt>
      <trkpt lat="48.02047" lon="6.76675">
        <ele>534.452</ele>
        <time>2011-04-17T09:07:47Z</time>
      </trkpt>
      <trkpt lat="48.02046" lon="6.76689">
        <ele>535.801</ele>
        <time>2011-04-17T09:07:53Z</time>
      </trkpt>
      <trkpt lat="48.02045" lon="6.76693">
        <ele>535.938</ele>
        <time>2011-04-17T09:07:55Z</time>
      </trkpt>
      <trkpt lat="48.02049" lon="6.76712">
        <ele>536.704</ele>
        <time>2011-04-17T09:08:03Z</time>
      </trkpt>
      <trkpt lat="48.02051" lon="6.76729">
        <ele>537.921</ele>
        <time>2011-04-17T09:08:12Z</time>
      </trkpt>
      <trkpt lat="48.02055" lon="6.76741">
        <ele>538.458</ele>
        <time>2011-04-17T09:08:17Z</time>
      </trkpt>
      <trkpt lat="48.0206" lon="6.7677">
        <ele>540.447</ele>
        <time>2011-04-17T09:08:30Z</time>
      </trkpt>
      <trkpt lat="48.02062" lon="6.76776">
        <ele>540.846</ele>
        <time>2011-04-17T09:08:33Z</time>
      </trkpt>
      <trkpt lat="48.02081" lon="6.7681">
        <ele>542.586</ele>
        <time>2011-04-17T09:08:46Z</time>
      </trkpt>
      <trkpt lat="48.02084" lon="6.7682">
        <ele>543.213</ele>
        <time>2011-04-17T09:08:50Z</time>
      </trkpt>
      <trkpt lat="48.02086" lon="6.76862">
        <ele>543.895</ele>
        <time>2011-04-17T09:09:04Z</time>
      </trkpt>
      <trkpt lat="48.02099" lon="6.76894">
        <ele>546.147</ele>
        <time>2011-04-17T09:09:17Z</time>
      </trkpt>
      <trkpt lat="48.02106" lon="6.769">
        <ele>546.543</ele>
        <time>2011-04-17T09:09:20Z</time>
      </trkpt>
      <trkpt lat="48.02116" lon="6.76909">
        <ele>547.69</ele>
        <time>2011-04-17T09:09:25Z</time>
      </trkpt>
      <trkpt lat="48.02134" lon="6.76931">
        <ele>548.171</ele>
        <time>2011-04-17T09:09:37Z</time>
      </trkpt>
      <trkpt lat="48.02136" lon="6.76932">
        <ele>548.183</ele>
        <time>2011-04-17T09:09:38Z</time>
      </trkpt>
      <trkpt lat="48.02141" lon="6.76933">
        <ele>546.489</ele>
        <time>2011-04-17T09:09:48Z</time>
      </trkpt>
      <trkpt lat="48.02145" lon="6.76936">
        <ele>545.632</ele>
        <time>2011-04-17T09:10:11Z</time>
      </trkpt>
      <trkpt lat="48.02145" lon="6.76936">
        <ele>544.828</ele>
        <time>2011-04-17T09:10:19Z</time>
      </trkpt>
      <trkpt lat="48.02145" lon="6.76932">
        <ele>543.467</ele>
        <time>2011-04-17T09:10:25Z</time>
      </trkpt>
      <trkpt lat="48.02141" lon="6.76923">
        <ele>542.18</ele>
        <time>2011-04-17T09:10:29Z</time>
      </trkpt>
      <trkpt lat="48.02141" lon="6.76913">
        <ele>540.69</ele>
        <time>2011-04-17T09:10:31Z</time>
      </trkpt>
      <trkpt lat="48.02141" lon="6.76909">
        <ele>539.568</ele>
        <time>2011-04-17T09:10:32Z</time>
      </trkpt>
      <trkpt lat="48.02139" lon="6.76887">
        <ele>536.896</ele>
        <time>2011-04-17T09:10:37Z</time>
      </trkpt>
      <trkpt lat="48.02132" lon="6.76875">
        <ele>535.9</ele>
        <time>2011-04-17T09:10:39Z</time>
      </trkpt>
      <trkpt lat="48.02128" lon="6.76863">
        <ele>534.848</ele>
        <time>2011-04-17T09:10:41Z</time>
      </trkpt>
      <trkpt lat="48.02123" lon="6.76832">
        <ele>533.039</ele>
        <time>2011-04-17T09:10:47Z</time>
      </trkpt>
      <trkpt lat="48.02115" lon="6.76799">
        <ele>533.603</ele>
        <time>2011-04-17T09:10:53Z</time>
      </trkpt>
      <trkpt lat="48.02095" lon="6.76754">
        <ele>530.872</ele>
        <time>2011-04-17T09:11:00Z</time>
      </trkpt>
      <trkpt lat="48.02094" lon="6.76736">
        <ele>530.17</ele>
        <time>2011-04-17T09:11:03Z</time>
      </trkpt>
      <trkpt lat="48.02082" lon="6.76693">
        <ele>531.419</ele>
        <time>2011-04-17T09:11:11Z</time>
      </trkpt>
      <trkpt lat="48.02088" lon="6.76666">
        <ele>529.782</ele>
        <time>2011-04-17T09:11:15Z</time>
      </trkpt>
      <trkpt lat="48.02087" lon="6.76652">
        <ele>528.739</ele>
        <time>2011-04-17T09:11:19Z</time>
      </trkpt>
      <trkpt lat="48.02088" lon="6.76637">
        <ele>525.637</ele>
        <time>2011-04-17T09:11:30Z</time>
      </trkpt>
      <trkpt lat="48.02087" lon="6.76636">
        <ele>525.308</ele>
        <time>2011-04-17T09:11:48Z</time>
      </trkpt>
      <trkpt lat="48.02086" lon="6.76636">
        <ele>525.089</ele>
        <time>2011-04-17T09:12:36Z</time>
      </trkpt>
      <trkpt lat="48.02086" lon="6.76636">
        <ele>525.465</ele>
        <time>2011-04-17T09:13:03Z</time>
      </trkpt>
      <trkpt lat="48.02068" lon="6.76625">
        <ele>522.674</ele>
        <time>2011-04-17T09:13:15Z</time>
      </trkpt>
      <trkpt lat="48.02051" lon="6.76621">
        <ele>521.65</ele>
        <time>2011-04-17T09:13:20Z</time>
      </trkpt>
      <trkpt lat="48.02044" lon="6.76608">
        <ele>520.866</ele>
        <time>2011-04-17T09:13:25Z</time>
      </trkpt>
      <trkpt lat="48.0204" lon="6.76597">
        <ele>519.891</ele>
        <time>2011-04-17T09:13:29Z</time>
      </trkpt>
      <trkpt lat="48.02037" lon="6.76592">
        <ele>518.711</ele>
        <time>2011-04-17T09:13:32Z</time>
      </trkpt>
      <trkpt lat="48.02041" lon="6.76587">
        <ele>517.448</ele>
        <time>2011-04-17T09:13:34Z</time>
      </trkpt>
      <trkpt lat="48.02042" lon="6.7658">
        <ele>515.5</ele>
        <time>2011-04-17T09:13:37Z</time>
      </trkpt>
      <trkpt lat="48.02042" lon="6.76577">
        <ele>515.362</ele>
        <time>2011-04-17T09:13:38Z</time>
      </trkpt>
      <trkpt lat="48.02046" lon="6.76571">
        <ele>513.993</ele>
        <time>2011-04-17T09:13:41Z</time>
      </trkpt>
      <trkpt lat="48.02046" lon="6.76564">
        <ele>510.733</ele>
        <time>2011-04-17T09:13:43Z</time>
      </trkpt>
      <trkpt lat="48.02046" lon="6.76561">
        <ele>510.735</ele>
        <time>2011-04-17T09:13:44Z</time>
      </trkpt>
      <trkpt lat="48.02046" lon="6.76557">
        <ele>510.283</ele>
        <time>2011-04-17T09:13:46Z</time>
      </trkpt>
      <trkpt lat="48.02054" lon="6.76549">
        <ele>506.492</ele>
        <time>2011-04-17T09:13:51Z</time>
      </trkpt>
      <trkpt lat="48.02056" lon="6.76552">
        <ele>505.71</ele>
        <time>2011-04-17T09:13:54Z</time>
      </trkpt>
      <trkpt lat="48.02066" lon="6.76556">
        <ele>504.455</ele>
        <time>2011-04-17T09:13:57Z</time>
      </trkpt>
      <trkpt lat="48.02069" lon="6.76555">
        <ele>502.805</ele>
        <time>2011-04-17T09:13:58Z</time>
      </trkpt>
      <trkpt lat="48.02102" lon="6.76569">
        <ele>505.023</ele>
        <time>2011-04-17T09:14:07Z</time>
      </trkpt>
      <trkpt lat="48.02108" lon="6.76571">
        <ele>506.369</ele>
        <time>2011-04-17T09:14:09Z</time>
      </trkpt>
      <trkpt lat="48.02117" lon="6.76582">
        <ele>507.384</ele>
        <time>2011-04-17T09:14:14Z</time>
      </trkpt>
      <trkpt lat="48.02121" lon="6.76592">
        <ele>508.527</ele>
        <time>2011-04-17T09:14:18Z</time>
      </trkpt>
      <trkpt lat="48.02144" lon="6.76621">
        <ele>507.626</ele>
        <time>2011-04-17T09:14:29Z</time>
      </trkpt>
      <trkpt lat="48.02147" lon="6.76644">
        <ele>505.637</ele>
        <time>2011-04-17T09:14:34Z</time>
      </trkpt>
      <trkpt lat="48.02153" lon="6.76679">
        <ele>503.686</ele>
        <time>2011-04-17T09:14:43Z</time>
      </trkpt>
      <trkpt lat="48.02156" lon="6.76697">
        <ele>502.557</ele>
        <time>2011-04-17T09:14:51Z</time>
      </trkpt>
      <trkpt lat="48.02165" lon="6.76701">
        <ele>501.602</ele>
        <time>2011-04-17T09:14:55Z</time>
      </trkpt>
      <trkpt lat="48.02179" lon="6.76708">
        <ele>499.646</ele>
        <time>2011-04-17T09:14:58Z</time>
      </trkpt>
      <trkpt lat="48.02203" lon="6.76726">
        <ele>495.753</ele>
        <time>2011-04-17T09:15:04Z</time>
      </trkpt>
      <trkpt lat="48.02226" lon="6.76738">
        <ele>492.888</ele>
        <time>2011-04-17T09:15:11Z</time>
      </trkpt>
      <trkpt lat="48.02232" lon="6.76744">
        <ele>491.848</ele>
        <time>2011-04-17T09:15:16Z</time>
      </trkpt>
      <trkpt lat="48.0224" lon="6.76789">
        <ele>492.041</ele>
        <time>2011-04-17T09:15:27Z</time>
      </trkpt>
      <trkpt lat="48.02267" lon="6.76853">
        <ele>495.502</ele>
        <time>2011-04-17T09:15:47Z</time>
      </trkpt>
      <trkpt lat="48.02295" lon="6.76888">
        <ele>497.872</ele>
        <time>2011-04-17T09:16:02Z</time>
      </trkpt>
      <trkpt lat="48.02301" lon="6.76901">
        <ele>498.685</ele>
        <time>2011-04-17T09:16:07Z</time>
      </trkpt>
      <trkpt lat="48.02323" lon="6.76936">
        <ele>500.916</ele>
        <time>2011-04-17T09:16:22Z</time>
      </trkpt>
      <trkpt lat="48.02355" lon="6.76976">
        <ele>503.009</ele>
        <time>2011-04-17T09:16:41Z</time>
      </trkpt>
      <trkpt lat="48.02375" lon="6.76989">
        <ele>503.675</ele>
        <time>2011-04-17T09:16:50Z</time>
      </trkpt>
      <trkpt lat="48.02397" lon="6.77008">
        <ele>505.968</ele>
        <time>2011-04-17T09:17:02Z</time>
      </trkpt>
      <trkpt lat="48.02416" lon="6.77033">
        <ele>506.778</ele>
        <time>2011-04-17T09:17:13Z</time>
      </trkpt>
      <trkpt lat="48.02439" lon="6.77067">
        <ele>507.464</ele>
        <time>2011-04-17T09:17:25Z</time>
      </trkpt>
      <trkpt lat="48.0244" lon="6.77073">
        <ele>507.229</ele>
        <time>2011-04-17T09:17:27Z</time>
      </trkpt>
      <trkpt lat="48.0246" lon="6.77107">
        <ele>507.623</ele>
        <time>2011-04-17T09:17:38Z</time>
      </trkpt>
      <trkpt lat="48.02471" lon="6.77125">
        <ele>508.751</ele>
        <time>2011-04-17T09:17:43Z</time>
      </trkpt>
      <trkpt lat="48.02471" lon="6.7713">
        <ele>509.074</ele>
        <time>2011-04-17T09:17:45Z</time>
      </trkpt>
      <trkpt lat="48.02475" lon="6.77136">
        <ele>508.96</ele>
        <time>2011-04-17T09:17:47Z</time>
      </trkpt>
      <trkpt lat="48.02482" lon="6.77147">
        <ele>509.289</ele>
        <time>2011-04-17T09:17:51Z</time>
      </trkpt>
      <trkpt lat="48.02484" lon="6.77153">
        <ele>509.672</ele>
        <time>2011-04-17T09:17:53Z</time>
      </trkpt>
      <trkpt lat="48.02492" lon="6.77171">
        <ele>510.616</ele>
        <time>2011-04-17T09:17:59Z</time>
      </trkpt>
      <trkpt lat="48.02499" lon="6.77189">
        <ele>511.728</ele>
        <time>2011-04-17T09:18:05Z</time>
      </trkpt>
      <trkpt lat="48.0251" lon="6.77219">
        <ele>513.753</ele>
        <time>2011-04-17T09:18:17Z</time>
      </trkpt>
      <trkpt lat="48.02512" lon="6.77226">
        <ele>514.226</ele>
        <time>2011-04-17T09:18:20Z</time>
      </trkpt>
      <trkpt lat="48.02525" lon="6.77251">
        <ele>515.765</ele>
        <time>2011-04-17T09:18:29Z</time>
      </trkpt>
      <trkpt lat="48.02528" lon="6.77268">
        <ele>516.48</ele>
        <time>2011-04-17T09:18:35Z</time>
      </trkpt>
      <trkpt lat="48.02535" lon="6.77285">
        <ele>516.241</ele>
        <time>2011-04-17T09:18:41Z</time>
      </trkpt>
      <trkpt lat="48.02542" lon="6.77312">
        <ele>516.776</ele>
        <time>2011-04-17T09:18:48Z</time>
      </trkpt>
      <trkpt lat="48.02548" lon="6.77321">
        <ele>517.135</ele>
        <time>2011-04-17T09:18:50Z</time>
      </trkpt>
      <trkpt lat="48.02554" lon="6.77337">
        <ele>518.187</ele>
        <time>2011-04-17T09:18:55Z</time>
      </trkpt>
      <trkpt lat="48.02554" lon="6.7735">
        <ele>518.526</ele>
        <time>2011-04-17T09:18:59Z</time>
      </trkpt>
      <trkpt lat="48.02557" lon="6.77382">
        <ele>519.942</ele>
        <time>2011-04-17T09:19:08Z</time>
      </trkpt>
      <trkpt lat="48.0256" lon="6.77429">
        <ele>522.17</ele>
        <time>2011-04-17T09:19:22Z</time>
      </trkpt>
      <trkpt lat="48.02569" lon="6.77497">
        <ele>525.37</ele>
        <time>2011-04-17T09:19:44Z</time>
      </trkpt>
      <trkpt lat="48.02573" lon="6.77513">
        <ele>526.225</ele>
        <time>2011-04-17T09:19:50Z</time>
      </trkpt>
      <trkpt lat="48.0258" lon="6.77541">
        <ele>528.156</ele>
        <time>2011-04-17T09:20:01Z</time>
      </trkpt>
      <trkpt lat="48.02565" lon="6.77559">
        <ele>531.252</ele>
        <time>2011-04-17T09:20:14Z</time>
      </trkpt>
      <trkpt lat="48.02548" lon="6.77535">
        <ele>533.668</ele>
        <time>2011-04-17T09:20:30Z</time>
      </trkpt>
      <trkpt lat="48.02546" lon="6.77539">
        <ele>534.093</ele>
        <time>2011-04-17T09:20:34Z</time>
      </trkpt>
      <trkpt lat="48.02568" lon="6.77586">
        <ele>533.58</ele>
        <time>2011-04-17T09:20:51Z</time>
      </trkpt>
      <trkpt lat="48.02591" lon="6.77649">
        <ele>534.077</ele>
        <time>2011-04-17T09:21:10Z</time>
      </trkpt>
      <trkpt lat="48.0262" lon="6.77721">
        <ele>535.866</ele>
        <time>2011-04-17T09:21:34Z</time>
      </trkpt>
      <trkpt lat="48.02629" lon="6.77769">
        <ele>536.923</ele>
        <time>2011-04-17T09:21:47Z</time>
      </trkpt>
      <trkpt lat="48.02636" lon="6.77806">
        <ele>537.895</ele>
        <time>2011-04-17T09:21:57Z</time>
      </trkpt>
      <trkpt lat="48.02639" lon="6.77822">
        <ele>538.318</ele>
        <time>2011-04-17T09:22:03Z</time>
      </trkpt>
      <trkpt lat="48.02659" lon="6.77869">
        <ele>539.089</ele>
        <time>2011-04-17T09:22:16Z</time>
      </trkpt>
      <trkpt lat="48.02674" lon="6.77906">
        <ele>539.74</ele>
        <time>2011-04-17T09:22:28Z</time>
      </trkpt>
      <trkpt lat="48.02668" lon="6.77923">
        <ele>542.577</ele>
        <time>2011-04-17T09:22:35Z</time>
      </trkpt>
      <trkpt lat="48.02667" lon="6.77929">
        <ele>542.866</ele>
        <time>2011-04-17T09:22:38Z</time>
      </trkpt>
      <trkpt lat="48.02668" lon="6.7794">
        <ele>544.298</ele>
        <time>2011-04-17T09:22:43Z</time>
      </trkpt>
      <trkpt lat="48.0267" lon="6.77945">
        <ele>544.931</ele>
        <time>2011-04-17T09:22:46Z</time>
      </trkpt>
      <trkpt lat="48.02672" lon="6.77956">
        <ele>545.926</ele>
        <time>2011-04-17T09:22:51Z</time>
      </trkpt>
      <trkpt lat="48.02671" lon="6.77962">
        <ele>546.336</ele>
        <time>2011-04-17T09:22:53Z</time>
      </trkpt>
      <trkpt lat="48.02676" lon="6.77981">
        <ele>547.771</ele>
        <time>2011-04-17T09:23:02Z</time>
      </trkpt>
      <trkpt lat="48.0268" lon="6.77986">
        <ele>548.218</ele>
        <time>2011-04-17T09:23:05Z</time>
      </trkpt>
      <trkpt lat="48.02686" lon="6.78008">
        <ele>549.557</ele>
        <time>2011-04-17T09:23:15Z</time>
      </trkpt>
      <trkpt lat="48.02686" lon="6.78013">
        <ele>549.895</ele>
        <time>2011-04-17T09:23:17Z</time>
      </trkpt>
      <trkpt lat="48.0269" lon="6.78041">
        <ele>553.246</ele>
        <time>2011-04-17T09:23:30Z</time>
      </trkpt>
      <trkpt lat="48.02693" lon="6.78047">
        <ele>553.264</ele>
        <time>2011-04-17T09:23:33Z</time>
      </trkpt>
      <trkpt lat="48.02692" lon="6.78074">
        <ele>554.545</ele>
        <time>2011-04-17T09:23:44Z</time>
      </trkpt>
      <trkpt lat="48.02698" lon="6.78103">
        <ele>557.279</ele>
        <time>2011-04-17T09:23:57Z</time>
      </trkpt>
      <trkpt lat="48.02699" lon="6.78114">
        <ele>557.605</ele>
        <time>2011-04-17T09:24:02Z</time>
      </trkpt>
      <trkpt lat="48.027" lon="6.78127">
        <ele>558.482</ele>
        <time>2011-04-17T09:24:08Z</time>
      </trkpt>
      <trkpt lat="48.02702" lon="6.78144">
        <ele>559.253</ele>
        <time>2011-04-17T09:24:16Z</time>
      </trkpt>
      <trkpt lat="48.02707" lon="6.78169">
        <ele>561.458</ele>
        <time>2011-04-17T09:24:28Z</time>
      </trkpt>
      <trkpt lat="48.02705" lon="6.78191">
        <ele>564.353</ele>
        <time>2011-04-17T09:24:41Z</time>
      </trkpt>
      <trkpt lat="48.02699" lon="6.78208">
        <ele>564.473</ele>
        <time>2011-04-17T09:24:48Z</time>
      </trkpt>
      <trkpt lat="48.0269" lon="6.78243">
        <ele>567.44</ele>
        <time>2011-04-17T09:25:03Z</time>
      </trkpt>
      <trkpt lat="48.02686" lon="6.7827">
        <ele>569.138</ele>
        <time>2011-04-17T09:25:14Z</time>
      </trkpt>
      <trkpt lat="48.02683" lon="6.78294">
        <ele>571.6</ele>
        <time>2011-04-17T09:25:24Z</time>
      </trkpt>
      <trkpt lat="48.02684" lon="6.78322">
        <ele>574.593</ele>
        <time>2011-04-17T09:25:37Z</time>
      </trkpt>
      <trkpt lat="48.02687" lon="6.78334">
        <ele>575.695</ele>
        <time>2011-04-17T09:25:44Z</time>
      </trkpt>
      <trkpt lat="48.02688" lon="6.78347">
        <ele>576.551</ele>
        <time>2011-04-17T09:25:49Z</time>
      </trkpt>
      <trkpt lat="48.02699" lon="6.78384">
        <ele>578.86</ele>
        <time>2011-04-17T09:26:06Z</time>
      </trkpt>
      <trkpt lat="48.02694" lon="6.78422">
        <ele>579.798</ele>
        <time>2011-04-17T09:26:19Z</time>
      </trkpt>
      <trkpt lat="48.02695" lon="6.78423">
        <ele>580.128</ele>
        <time>2011-04-17T09:26:20Z</time>
      </trkpt>
      <trkpt lat="48.02705" lon="6.78427">
        <ele>581.175</ele>
        <time>2011-04-17T09:26:25Z</time>
      </trkpt>
      <trkpt lat="48.02711" lon="6.78433">
        <ele>582.553</ele>
        <time>2011-04-17T09:26:30Z</time>
      </trkpt>
      <trkpt lat="48.02711" lon="6.78432">
        <ele>582.322</ele>
        <time>2011-04-17T09:26:32Z</time>
      </trkpt>
      <trkpt lat="48.02733" lon="6.78444">
        <ele>581.593</ele>
        <time>2011-04-17T09:26:42Z</time>
      </trkpt>
      <trkpt lat="48.02751" lon="6.7846">
        <ele>581.157</ele>
        <time>2011-04-17T09:26:51Z</time>
      </trkpt>
      <trkpt lat="48.02769" lon="6.78478">
        <ele>579.616</ele>
        <time>2011-04-17T09:26:59Z</time>
      </trkpt>
      <trkpt lat="48.0279" lon="6.7849">
        <ele>579.719</ele>
        <time>2011-04-17T09:27:06Z</time>
      </trkpt>
      <trkpt lat="48.02807" lon="6.78494">
        <ele>579.899</ele>
        <time>2011-04-17T09:27:11Z</time>
      </trkpt>
      <trkpt lat="48.02839" lon="6.78508">
        <ele>580.67</ele>
        <time>2011-04-17T09:27:22Z</time>
      </trkpt>
      <trkpt lat="48.02865" lon="6.78516">
        <ele>582.077</ele>
        <time>2011-04-17T09:27:32Z</time>
      </trkpt>
      <trkpt lat="48.02887" lon="6.78531">
        <ele>582.978</ele>
        <time>2011-04-17T09:27:41Z</time>
      </trkpt>
      <trkpt lat="48.02895" lon="6.78541">
        <ele>582.693</ele>
        <time>2011-04-17T09:27:52Z</time>
      </trkpt>
      <trkpt lat="48.02896" lon="6.7854">
        <ele>581.893</ele>
        <time>2011-04-17T09:28:09Z</time>
      </trkpt>
      <trkpt lat="48.02896" lon="6.78541">
        <ele>584.349</ele>
        <time>2011-04-17T09:32:01Z</time>
      </trkpt>
      <trkpt lat="48.02896" lon="6.78541">
        <ele>584.498</ele>
        <time>2011-04-17T09:32:07Z</time>
      </trkpt>
      <trkpt lat="48.02907" lon="6.78557">
        <ele>584.887</ele>
        <time>2011-04-17T09:32:15Z</time>
      </trkpt>
      <trkpt lat="48.0294" lon="6.78599">
        <ele>588.14</ele>
        <time>2011-04-17T09:32:32Z</time>
      </trkpt>
      <trkpt lat="48.02961" lon="6.78621">
        <ele>590.698</ele>
        <time>2011-04-17T09:32:46Z</time>
      </trkpt>
      <trkpt lat="48.02976" lon="6.78639">
        <ele>594.24</ele>
        <time>2011-04-17T09:32:56Z</time>
      </trkpt>
      <trkpt lat="48.02977" lon="6.78642">
        <ele>594.236</ele>
        <time>2011-04-17T09:32:57Z</time>
      </trkpt>
      <trkpt lat="48.02987" lon="6.78656">
        <ele>595.74</ele>
        <time>2011-04-17T09:33:03Z</time>
      </trkpt>
      <trkpt lat="48.03" lon="6.78694">
        <ele>595.365</ele>
        <time>2011-04-17T09:33:16Z</time>
      </trkpt>
      <trkpt lat="48.03002" lon="6.78705">
        <ele>594.304</ele>
        <time>2011-04-17T09:33:18Z</time>
      </trkpt>
      <trkpt lat="48.03012" lon="6.78759">
        <ele>594.018</ele>
        <time>2011-04-17T09:33:28Z</time>
      </trkpt>
      <trkpt lat="48.03028" lon="6.78816">
        <ele>594.755</ele>
        <time>2011-04-17T09:33:41Z</time>
      </trkpt>
      <trkpt lat="48.03029" lon="6.78819">
        <ele>594.4</ele>
        <time>2011-04-17T09:33:42Z</time>
      </trkpt>
      <trkpt lat="48.03068" lon="6.78846">
        <ele>595.012</ele>
        <time>2011-04-17T09:33:56Z</time>
      </trkpt>
      <trkpt lat="48.03074" lon="6.78856">
        <ele>594.886</ele>
        <time>2011-04-17T09:33:59Z</time>
      </trkpt>
      <trkpt lat="48.03076" lon="6.78876">
        <ele>593.289</ele>
        <time>2011-04-17T09:34:02Z</time>
      </trkpt>
      <trkpt lat="48.03076" lon="6.78884">
        <ele>592.415</ele>
        <time>2011-04-17T09:34:03Z</time>
      </trkpt>
      <trkpt lat="48.03087" lon="6.78927">
        <ele>592.56</ele>
        <time>2011-04-17T09:34:10Z</time>
      </trkpt>
      <trkpt lat="48.03124" lon="6.78991">
        <ele>594.57</ele>
        <time>2011-04-17T09:34:27Z</time>
      </trkpt>
      <trkpt lat="48.03145" lon="6.79048">
        <ele>595.332</ele>
        <time>2011-04-17T09:34:43Z</time>
      </trkpt>
      <trkpt lat="48.03144" lon="6.79053">
        <ele>595.839</ele>
        <time>2011-04-17T09:34:45Z</time>
      </trkpt>
      <trkpt lat="48.03135" lon="6.79046">
        <ele>596.699</ele>
        <time>2011-04-17T09:34:52Z</time>
      </trkpt>
      <trkpt lat="48.0313" lon="6.7904">
        <ele>598.182</ele>
        <time>2011-04-17T09:34:55Z</time>
      </trkpt>
      <trkpt lat="48.03104" lon="6.79006">
        <ele>601.409</ele>
        <time>2011-04-17T09:35:15Z</time>
      </trkpt>
      <trkpt lat="48.03095" lon="6.78998">
        <ele>603.213</ele>
        <time>2011-04-17T09:35:23Z</time>
      </trkpt>
      <trkpt lat="48.03076" lon="6.78986">
        <ele>605.367</ele>
        <time>2011-04-17T09:35:37Z</time>
      </trkpt>
      <trkpt lat="48.03056" lon="6.78975">
        <ele>606.954</ele>
        <time>2011-04-17T09:35:50Z</time>
      </trkpt>
      <trkpt lat="48.03047" lon="6.78964">
        <ele>607.555</ele>
        <time>2011-04-17T09:35:58Z</time>
      </trkpt>
      <trkpt lat="48.03044" lon="6.78962">
        <ele>608.259</ele>
        <time>2011-04-17T09:36:01Z</time>
      </trkpt>
      <trkpt lat="48.03042" lon="6.78958">
        <ele>608.721</ele>
        <time>2011-04-17T09:36:04Z</time>
      </trkpt>
      <trkpt lat="48.03039" lon="6.78937">
        <ele>610.787</ele>
        <time>2011-04-17T09:36:16Z</time>
      </trkpt>
      <trkpt lat="48.03035" lon="6.78926">
        <ele>611.94</ele>
        <time>2011-04-17T09:36:23Z</time>
      </trkpt>
      <trkpt lat="48.0301" lon="6.78909">
        <ele>614.424</ele>
        <time>2011-04-17T09:36:39Z</time>
      </trkpt>
      <trkpt lat="48.02991" lon="6.789">
        <ele>615.239</ele>
        <time>2011-04-17T09:36:53Z</time>
      </trkpt>
      <trkpt lat="48.02977" lon="6.78875">
        <ele>618.258</ele>
        <time>2011-04-17T09:37:06Z</time>
      </trkpt>
      <trkpt lat="48.02977" lon="6.78874">
        <ele>618.576</ele>
        <time>2011-04-17T09:37:08Z</time>
      </trkpt>
      <trkpt lat="48.02964" lon="6.78835">
        <ele>618.82</ele>
        <time>2011-04-17T09:37:22Z</time>
      </trkpt>
      <trkpt lat="48.02947" lon="6.788">
        <ele>620.043</ele>
        <time>2011-04-17T09:37:37Z</time>
      </trkpt>
      <trkpt lat="48.02923" lon="6.78776">
        <ele>620.546</ele>
        <time>2011-04-17T09:37:48Z</time>
      </trkpt>
      <trkpt lat="48.02889" lon="6.78749">
        <ele>621.38</ele>
        <time>2011-04-17T09:38:04Z</time>
      </trkpt>
      <trkpt lat="48.02862" lon="6.78726">
        <ele>620.765</ele>
        <time>2011-04-17T09:38:17Z</time>
      </trkpt>
      <trkpt lat="48.02857" lon="6.7873">
        <ele>620.815</ele>
        <time>2011-04-17T09:38:21Z</time>
      </trkpt>
      <trkpt lat="48.02836" lon="6.7872">
        <ele>622.709</ele>
        <time>2011-04-17T09:38:35Z</time>
      </trkpt>
      <trkpt lat="48.02809" lon="6.78721">
        <ele>626.199</ele>
        <time>2011-04-17T09:38:52Z</time>
      </trkpt>
      <trkpt lat="48.02797" lon="6.7873">
        <ele>628.544</ele>
        <time>2011-04-17T09:39:04Z</time>
      </trkpt>
      <trkpt lat="48.02783" lon="6.78726">
        <ele>629.321</ele>
        <time>2011-04-17T09:39:16Z</time>
      </trkpt>
      <trkpt lat="48.02783" lon="6.78724">
        <ele>629.158</ele>
        <time>2011-04-17T09:40:36Z</time>
      </trkpt>
      <trkpt lat="48.02766" lon="6.78715">
        <ele>629.541</ele>
        <time>2011-04-17T09:42:41Z</time>
      </trkpt>
      <trkpt lat="48.02741" lon="6.78699">
        <ele>632.231</ele>
        <time>2011-04-17T09:42:54Z</time>
      </trkpt>
      <trkpt lat="48.0273" lon="6.78703">
        <ele>634.087</ele>
        <time>2011-04-17T09:42:59Z</time>
      </trkpt>
      <trkpt lat="48.02727" lon="6.78704">
        <ele>634.719</ele>
        <time>2011-04-17T09:43:01Z</time>
      </trkpt>
      <trkpt lat="48.02716" lon="6.78709">
        <ele>636.623</ele>
        <time>2011-04-17T09:43:10Z</time>
      </trkpt>
      <trkpt lat="48.02694" lon="6.78712">
        <ele>638.526</ele>
        <time>2011-04-17T09:43:21Z</time>
      </trkpt>
      <trkpt lat="48.02675" lon="6.78724">
        <ele>642.067</ele>
        <time>2011-04-17T09:43:35Z</time>
      </trkpt>
      <trkpt lat="48.02665" lon="6.78742">
        <ele>645.317</ele>
        <time>2011-04-17T09:43:49Z</time>
      </trkpt>
      <trkpt lat="48.02654" lon="6.78765">
        <ele>648.6</ele>
        <time>2011-04-17T09:44:05Z</time>
      </trkpt>
      <trkpt lat="48.02651" lon="6.78778">
        <ele>649.94</ele>
        <time>2011-04-17T09:44:13Z</time>
      </trkpt>
      <trkpt lat="48.02651" lon="6.78783">
        <ele>650.474</ele>
        <time>2011-04-17T09:44:18Z</time>
      </trkpt>
      <trkpt lat="48.02645" lon="6.78785">
        <ele>651.267</ele>
        <time>2011-04-17T09:44:29Z</time>
      </trkpt>
      <trkpt lat="48.02644" lon="6.78786">
        <ele>651.241</ele>
        <time>2011-04-17T09:44:34Z</time>
      </trkpt>
      <trkpt lat="48.02643" lon="6.78798">
        <ele>653.315</ele>
        <time>2011-04-17T09:44:41Z</time>
      </trkpt>
      <trkpt lat="48.02646" lon="6.78808">
        <ele>654.976</ele>
        <time>2011-04-17T09:44:46Z</time>
      </trkpt>
      <trkpt lat="48.02646" lon="6.78815">
        <ele>655.908</ele>
        <time>2011-04-17T09:44:53Z</time>
      </trkpt>
      <trkpt lat="48.02646" lon="6.78822">
        <ele>657.041</ele>
        <time>2011-04-17T09:45:13Z</time>
      </trkpt>
      <trkpt lat="48.02645" lon="6.78831">
        <ele>657.556</ele>
        <time>2011-04-17T09:45:18Z</time>
      </trkpt>
      <trkpt lat="48.02644" lon="6.78837">
        <ele>658.522</ele>
        <time>2011-04-17T09:45:21Z</time>
      </trkpt>
      <trkpt lat="48.02641" lon="6.78843">
        <ele>659.562</ele>
        <time>2011-04-17T09:45:24Z</time>
      </trkpt>
      <trkpt lat="48.02641" lon="6.78846">
        <ele>659.973</ele>
        <time>2011-04-17T09:45:27Z</time>
      </trkpt>
      <trkpt lat="48.0264" lon="6.7885">
        <ele>660.169</ele>
        <time>2011-04-17T09:45:29Z</time>
      </trkpt>
      <trkpt lat="48.0264" lon="6.78856">
        <ele>661.121</ele>
        <time>2011-04-17T09:45:33Z</time>
      </trkpt>
      <trkpt lat="48.02633" lon="6.78888">
        <ele>664.3</ele>
        <time>2011-04-17T09:45:49Z</time>
      </trkpt>
      <trkpt lat="48.0263" lon="6.78912">
        <ele>665.554</ele>
        <time>2011-04-17T09:46:00Z</time>
      </trkpt>
      <trkpt lat="48.02629" lon="6.78915">
        <ele>665.59</ele>
        <time>2011-04-17T09:46:01Z</time>
      </trkpt>
      <trkpt lat="48.02618" lon="6.78922">
        <ele>666.168</ele>
        <time>2011-04-17T09:46:13Z</time>
      </trkpt>
      <trkpt lat="48.02617" lon="6.7892">
        <ele>666.953</ele>
        <time>2011-04-17T09:50:45Z</time>
      </trkpt>
      <trkpt lat="48.02616" lon="6.78918">
        <ele>666.639</ele>
        <time>2011-04-17T09:50:48Z</time>
      </trkpt>
      <trkpt lat="48.02612" lon="6.78914">
        <ele>666.371</ele>
        <time>2011-04-17T09:50:51Z</time>
      </trkpt>
      <trkpt lat="48.02594" lon="6.7888">
        <ele>667.162</ele>
        <time>2011-04-17T09:51:02Z</time>
      </trkpt>
      <trkpt lat="48.02583" lon="6.78838">
        <ele>666.835</ele>
        <time>2011-04-17T09:51:11Z</time>
      </trkpt>
      <trkpt lat="48.02578" lon="6.78818">
        <ele>666.245</ele>
        <time>2011-04-17T09:51:14Z</time>
      </trkpt>
      <trkpt lat="48.02565" lon="6.7878">
        <ele>666.077</ele>
        <time>2011-04-17T09:51:20Z</time>
      </trkpt>
      <trkpt lat="48.02562" lon="6.7877">
        <ele>666.492</ele>
        <time>2011-04-17T09:51:23Z</time>
      </trkpt>
      <trkpt lat="48.02559" lon="6.78753">
        <ele>665.496</ele>
        <time>2011-04-17T09:51:27Z</time>
      </trkpt>
      <trkpt lat="48.02556" lon="6.78724">
        <ele>664.466</ele>
        <time>2011-04-17T09:51:32Z</time>
      </trkpt>
      <trkpt lat="48.02552" lon="6.78704">
        <ele>663.619</ele>
        <time>2011-04-17T09:51:35Z</time>
      </trkpt>
      <trkpt lat="48.0255" lon="6.78683">
        <ele>663.452</ele>
        <time>2011-04-17T09:51:38Z</time>
      </trkpt>
      <trkpt lat="48.02539" lon="6.78634">
        <ele>664.946</ele>
        <time>2011-04-17T09:51:47Z</time>
      </trkpt>
      <trkpt lat="48.02538" lon="6.78629">
        <ele>664.732</ele>
        <time>2011-04-17T09:51:48Z</time>
      </trkpt>
      <trkpt lat="48.02537" lon="6.78604">
        <ele>663.701</ele>
        <time>2011-04-17T09:51:52Z</time>
      </trkpt>
      <trkpt lat="48.02538" lon="6.78591">
        <ele>662.288</ele>
        <time>2011-04-17T09:51:54Z</time>
      </trkpt>
      <trkpt lat="48.0254" lon="6.78571">
        <ele>661.749</ele>
        <time>2011-04-17T09:51:59Z</time>
      </trkpt>
      <trkpt lat="48.02537" lon="6.78531">
        <ele>660.735</ele>
        <time>2011-04-17T09:52:10Z</time>
      </trkpt>
      <trkpt lat="48.02538" lon="6.78526">
        <ele>660.446</ele>
        <time>2011-04-17T09:52:20Z</time>
      </trkpt>
      <trkpt lat="48.0254" lon="6.78521">
        <ele>660.168</ele>
        <time>2011-04-17T09:52:23Z</time>
      </trkpt>
      <trkpt lat="48.02539" lon="6.78514">
        <ele>659.98</ele>
        <time>2011-04-17T09:52:26Z</time>
      </trkpt>
      <trkpt lat="48.02533" lon="6.78508">
        <ele>661.625</ele>
        <time>2011-04-17T09:52:36Z</time>
      </trkpt>
      <trkpt lat="48.02531" lon="6.78503">
        <ele>661.411</ele>
        <time>2011-04-17T09:52:44Z</time>
      </trkpt>
      <trkpt lat="48.02531" lon="6.78499">
        <ele>661.084</ele>
        <time>2011-04-17T09:52:47Z</time>
      </trkpt>
      <trkpt lat="48.02533" lon="6.78494">
        <ele>659.709</ele>
        <time>2011-04-17T09:52:51Z</time>
      </trkpt>
      <trkpt lat="48.02531" lon="6.78488">
        <ele>659.724</ele>
        <time>2011-04-17T09:52:54Z</time>
      </trkpt>
      <trkpt lat="48.02529" lon="6.78486">
        <ele>659.13</ele>
        <time>2011-04-17T09:52:56Z</time>
      </trkpt>
      <trkpt lat="48.02524" lon="6.78482">
        <ele>658.25</ele>
        <time>2011-04-17T09:52:59Z</time>
      </trkpt>
      <trkpt lat="48.0252" lon="6.78468">
        <ele>657.234</ele>
        <time>2011-04-17T09:53:04Z</time>
      </trkpt>
      <trkpt lat="48.02516" lon="6.7845">
        <ele>656.224</ele>
        <time>2011-04-17T09:53:12Z</time>
      </trkpt>
      <trkpt lat="48.02519" lon="6.78441">
        <ele>656.366</ele>
        <time>2011-04-17T09:53:17Z</time>
      </trkpt>
      <trkpt lat="48.02519" lon="6.78426">
        <ele>654.528</ele>
        <time>2011-04-17T09:53:22Z</time>
      </trkpt>
      <trkpt lat="48.02517" lon="6.78404">
        <ele>652.216</ele>
        <time>2011-04-17T09:53:26Z</time>
      </trkpt>
      <trkpt lat="48.02516" lon="6.78395">
        <ele>652.422</ele>
        <time>2011-04-17T09:53:37Z</time>
      </trkpt>
      <trkpt lat="48.02515" lon="6.78392">
        <ele>652.578</ele>
        <time>2011-04-17T09:53:40Z</time>
      </trkpt>
      <trkpt lat="48.0252" lon="6.78357">
        <ele>651.104</ele>
        <time>2011-04-17T09:53:49Z</time>
      </trkpt>
      <trkpt lat="48.02512" lon="6.78324">
        <ele>647.423</ele>
        <time>2011-04-17T09:53:58Z</time>
      </trkpt>
      <trkpt lat="48.0251" lon="6.7832">
        <ele>647.422</ele>
        <time>2011-04-17T09:53:59Z</time>
      </trkpt>
      <trkpt lat="48.02505" lon="6.78314">
        <ele>646.656</ele>
        <time>2011-04-17T09:54:01Z</time>
      </trkpt>
      <trkpt lat="48.02503" lon="6.78306">
        <ele>645.211</ele>
        <time>2011-04-17T09:54:03Z</time>
      </trkpt>
      <trkpt lat="48.02501" lon="6.78296">
        <ele>643.482</ele>
        <time>2011-04-17T09:54:05Z</time>
      </trkpt>
      <trkpt lat="48.02495" lon="6.78278">
        <ele>641.987</ele>
        <time>2011-04-17T09:54:08Z</time>
      </trkpt>
      <trkpt lat="48.02492" lon="6.78272">
        <ele>640.282</ele>
        <time>2011-04-17T09:54:09Z</time>
      </trkpt>
      <trkpt lat="48.02469" lon="6.78216">
        <ele>637.491</ele>
        <time>2011-04-17T09:54:18Z</time>
      </trkpt>
      <trkpt lat="48.02474" lon="6.78167">
        <ele>638.024</ele>
        <time>2011-04-17T09:54:27Z</time>
      </trkpt>
      <trkpt lat="48.02468" lon="6.78121">
        <ele>637.15</ele>
        <time>2011-04-17T09:54:35Z</time>
      </trkpt>
      <trkpt lat="48.02462" lon="6.78071">
        <ele>634.054</ele>
        <time>2011-04-17T09:54:42Z</time>
      </trkpt>
      <trkpt lat="48.02461" lon="6.78063">
        <ele>634.053</ele>
        <time>2011-04-17T09:54:43Z</time>
      </trkpt>
      <trkpt lat="48.02455" lon="6.78014">
        <ele>632.083</ele>
        <time>2011-04-17T09:54:49Z</time>
      </trkpt>
      <trkpt lat="48.02455" lon="6.77978">
        <ele>631.836</ele>
        <time>2011-04-17T09:54:53Z</time>
      </trkpt>
      <trkpt lat="48.02443" lon="6.77949">
        <ele>628.175</ele>
        <time>2011-04-17T09:55:02Z</time>
      </trkpt>
      <trkpt lat="48.0244" lon="6.77943">
        <ele>627.907</ele>
        <time>2011-04-17T09:55:03Z</time>
      </trkpt>
      <trkpt lat="48.02438" lon="6.77935">
        <ele>627.37</ele>
        <time>2011-04-17T09:55:05Z</time>
      </trkpt>
      <trkpt lat="48.02441" lon="6.7792">
        <ele>626.441</ele>
        <time>2011-04-17T09:55:08Z</time>
      </trkpt>
      <trkpt lat="48.02437" lon="6.77908">
        <ele>625.551</ele>
        <time>2011-04-17T09:55:13Z</time>
      </trkpt>
      <trkpt lat="48.02428" lon="6.77902">
        <ele>624.697</ele>
        <time>2011-04-17T09:55:16Z</time>
      </trkpt>
      <trkpt lat="48.02423" lon="6.77888">
        <ele>627.069</ele>
        <time>2011-04-17T09:55:24Z</time>
      </trkpt>
      <trkpt lat="48.02424" lon="6.7788">
        <ele>627.952</ele>
        <time>2011-04-17T09:55:39Z</time>
      </trkpt>
      <trkpt lat="48.02432" lon="6.7788">
        <ele>629.976</ele>
        <time>2011-04-17T09:55:53Z</time>
      </trkpt>
      <trkpt lat="48.02436" lon="6.77865">
        <ele>630.685</ele>
        <time>2011-04-17T09:56:03Z</time>
      </trkpt>
      <trkpt lat="48.02444" lon="6.7784">
        <ele>629.513</ele>
        <time>2011-04-17T09:56:11Z</time>
      </trkpt>
      <trkpt lat="48.02442" lon="6.77838">
        <ele>629.546</ele>
        <time>2011-04-17T09:56:12Z</time>
      </trkpt>
      <trkpt lat="48.02438" lon="6.77819">
        <ele>626.517</ele>
        <time>2011-04-17T09:56:17Z</time>
      </trkpt>
      <trkpt lat="48.02425" lon="6.77819">
        <ele>623.076</ele>
        <time>2011-04-17T09:56:24Z</time>
      </trkpt>
      <trkpt lat="48.02424" lon="6.7782">
        <ele>623.074</ele>
        <time>2011-04-17T09:56:25Z</time>
      </trkpt>
      <trkpt lat="48.02422" lon="6.77821">
        <ele>622.214</ele>
        <time>2011-04-17T09:56:26Z</time>
      </trkpt>
      <trkpt lat="48.02418" lon="6.77827">
        <ele>621.203</ele>
        <time>2011-04-17T09:56:29Z</time>
      </trkpt>
      <trkpt lat="48.02416" lon="6.77828">
        <ele>620.317</ele>
        <time>2011-04-17T09:56:32Z</time>
      </trkpt>
      <trkpt lat="48.02417" lon="6.77814">
        <ele>619.032</ele>
        <time>2011-04-17T09:56:38Z</time>
      </trkpt>
      <trkpt lat="48.0242" lon="6.77796">
        <ele>617.029</ele>
        <time>2011-04-17T09:56:41Z</time>
      </trkpt>
      <trkpt lat="48.02423" lon="6.77785">
        <ele>619.253</ele>
        <time>2011-04-17T09:56:45Z</time>
      </trkpt>
      <trkpt lat="48.02425" lon="6.77772">
        <ele>619.224</ele>
        <time>2011-04-17T09:56:49Z</time>
      </trkpt>
      <trkpt lat="48.02426" lon="6.77768">
        <ele>619.217</ele>
        <time>2011-04-17T09:56:51Z</time>
      </trkpt>
      <trkpt lat="48.02424" lon="6.77763">
        <ele>619.491</ele>
        <time>2011-04-17T09:56:54Z</time>
      </trkpt>
      <trkpt lat="48.02421" lon="6.7776">
        <ele>619.313</ele>
        <time>2011-04-17T09:56:56Z</time>
      </trkpt>
      <trkpt lat="48.02421" lon="6.77749">
        <ele>619.467</ele>
        <time>2011-04-17T09:56:59Z</time>
      </trkpt>
      <trkpt lat="48.02405" lon="6.77704">
        <ele>614.786</ele>
        <time>2011-04-17T09:57:08Z</time>
      </trkpt>
      <trkpt lat="48.02404" lon="6.77698">
        <ele>614.783</ele>
        <time>2011-04-17T09:57:09Z</time>
      </trkpt>
      <trkpt lat="48.02403" lon="6.77685">
        <ele>614.237</ele>
        <time>2011-04-17T09:57:11Z</time>
      </trkpt>
      <trkpt lat="48.02399" lon="6.77674">
        <ele>612.425</ele>
        <time>2011-04-17T09:57:13Z</time>
      </trkpt>
      <trkpt lat="48.02395" lon="6.77664">
        <ele>608.494</ele>
        <time>2011-04-17T09:57:15Z</time>
      </trkpt>
      <trkpt lat="48.02393" lon="6.77659">
        <ele>608.493</ele>
        <time>2011-04-17T09:57:16Z</time>
      </trkpt>
      <trkpt lat="48.02392" lon="6.77654">
        <ele>607.148</ele>
        <time>2011-04-17T09:57:18Z</time>
      </trkpt>
      <trkpt lat="48.0239" lon="6.77651">
        <ele>607.545</ele>
        <time>2011-04-17T09:58:11Z</time>
      </trkpt>
      <trkpt lat="48.0239" lon="6.77648">
        <ele>607.135</ele>
        <time>2011-04-17T09:59:42Z</time>
      </trkpt>
      <trkpt lat="48.02391" lon="6.77647">
        <ele>607.142</ele>
        <time>2011-04-17T09:59:46Z</time>
      </trkpt>
      <trkpt lat="48.02387" lon="6.77651">
        <ele>606.087</ele>
        <time>2011-04-17T09:59:50Z</time>
      </trkpt>
      <trkpt lat="48.02382" lon="6.77656">
        <ele>604.769</ele>
        <time>2011-04-17T09:59:53Z</time>
      </trkpt>
      <trkpt lat="48.02379" lon="6.77659">
        <ele>603.425</ele>
        <time>2011-04-17T09:59:55Z</time>
      </trkpt>
      <trkpt lat="48.02377" lon="6.7766">
        <ele>602.644</ele>
        <time>2011-04-17T09:59:56Z</time>
      </trkpt>
      <trkpt lat="48.02374" lon="6.77659">
        <ele>600.679</ele>
        <time>2011-04-17T09:59:58Z</time>
      </trkpt>
      <trkpt lat="48.02372" lon="6.77658">
        <ele>599.699</ele>
        <time>2011-04-17T10:00:12Z</time>
      </trkpt>
      <trkpt lat="48.02371" lon="6.77661">
        <ele>598.224</ele>
        <time>2011-04-17T10:00:17Z</time>
      </trkpt>
      <trkpt lat="48.02374" lon="6.77675">
        <ele>596.367</ele>
        <time>2011-04-17T10:00:27Z</time>
      </trkpt>
      <trkpt lat="48.02374" lon="6.77698">
        <ele>594.571</ele>
        <time>2011-04-17T10:00:31Z</time>
      </trkpt>
      <trkpt lat="48.02371" lon="6.77713">
        <ele>592.212</ele>
        <time>2011-04-17T10:00:34Z</time>
      </trkpt>
      <trkpt lat="48.02376" lon="6.77771">
        <ele>591.371</ele>
        <time>2011-04-17T10:00:44Z</time>
      </trkpt>
      <trkpt lat="48.02376" lon="6.77798">
        <ele>591.539</ele>
        <time>2011-04-17T10:00:49Z</time>
      </trkpt>
      <trkpt lat="48.02369" lon="6.77804">
        <ele>589.741</ele>
        <time>2011-04-17T10:00:53Z</time>
      </trkpt>
      <trkpt lat="48.02366" lon="6.7781">
        <ele>587.498</ele>
        <time>2011-04-17T10:00:58Z</time>
      </trkpt>
      <trkpt lat="48.02367" lon="6.7786">
        <ele>587.959</ele>
        <time>2011-04-17T10:01:05Z</time>
      </trkpt>
      <trkpt lat="48.02368" lon="6.77879">
        <ele>586.178</ele>
        <time>2011-04-17T10:01:07Z</time>
      </trkpt>
      <trkpt lat="48.02367" lon="6.77922">
        <ele>582.971</ele>
        <time>2011-04-17T10:01:11Z</time>
      </trkpt>
      <trkpt lat="48.02367" lon="6.77934">
        <ele>582.963</ele>
        <time>2011-04-17T10:01:12Z</time>
      </trkpt>
      <trkpt lat="48.02369" lon="6.77956">
        <ele>581.607</ele>
        <time>2011-04-17T10:01:14Z</time>
      </trkpt>
      <trkpt lat="48.02368" lon="6.77979">
        <ele>580.662</ele>
        <time>2011-04-17T10:01:16Z</time>
      </trkpt>
      <trkpt lat="48.02365" lon="6.78007">
        <ele>578.74</ele>
        <time>2011-04-17T10:01:19Z</time>
      </trkpt>
      <trkpt lat="48.02367" lon="6.78028">
        <ele>579.862</ele>
        <time>2011-04-17T10:01:22Z</time>
      </trkpt>
      <trkpt lat="48.02365" lon="6.78012">
        <ele>580.192</ele>
        <time>2011-04-17T10:01:30Z</time>
      </trkpt>
      <trkpt lat="48.02362" lon="6.78003">
        <ele>579.929</ele>
        <time>2011-04-17T10:01:51Z</time>
      </trkpt>
      <trkpt lat="48.02361" lon="6.77993">
        <ele>579.265</ele>
        <time>2011-04-17T10:01:53Z</time>
      </trkpt>
      <trkpt lat="48.02358" lon="6.77982">
        <ele>577.406</ele>
        <time>2011-04-17T10:01:56Z</time>
      </trkpt>
      <trkpt lat="48.0235" lon="6.77987">
        <ele>574.764</ele>
        <time>2011-04-17T10:02:00Z</time>
      </trkpt>
      <trkpt lat="48.02352" lon="6.77986">
        <ele>575.065</ele>
        <time>2011-04-17T10:02:09Z</time>
      </trkpt>
      <trkpt lat="48.02346" lon="6.7799">
        <ele>573.353</ele>
        <time>2011-04-17T10:02:13Z</time>
      </trkpt>
      <trkpt lat="48.0234" lon="6.77998">
        <ele>569.476</ele>
        <time>2011-04-17T10:02:16Z</time>
      </trkpt>
      <trkpt lat="48.02339" lon="6.78001">
        <ele>569.473</ele>
        <time>2011-04-17T10:02:17Z</time>
      </trkpt>
      <trkpt lat="48.02332" lon="6.78001">
        <ele>567.607</ele>
        <time>2011-04-17T10:02:21Z</time>
      </trkpt>
      <trkpt lat="48.02328" lon="6.77985">
        <ele>562.73</ele>
        <time>2011-04-17T10:02:25Z</time>
      </trkpt>
      <trkpt lat="48.02326" lon="6.7798">
        <ele>562.728</ele>
        <time>2011-04-17T10:02:26Z</time>
      </trkpt>
      <trkpt lat="48.0232" lon="6.77971">
        <ele>561.001</ele>
        <time>2011-04-17T10:02:28Z</time>
      </trkpt>
      <trkpt lat="48.02316" lon="6.77962">
        <ele>561.204</ele>
        <time>2011-04-17T10:02:31Z</time>
      </trkpt>
      <trkpt lat="48.02313" lon="6.77961">
        <ele>561.262</ele>
        <time>2011-04-17T10:02:33Z</time>
      </trkpt>
      <trkpt lat="48.02319" lon="6.77976">
        <ele>561.078</ele>
        <time>2011-04-17T10:02:41Z</time>
      </trkpt>
      <trkpt lat="48.02317" lon="6.77971">
        <ele>561.137</ele>
        <time>2011-04-17T10:02:50Z</time>
      </trkpt>
      <trkpt lat="48.02317" lon="6.77971">
        <ele>561.148</ele>
        <time>2011-04-17T10:03:04Z</time>
      </trkpt>
      <trkpt lat="48.02314" lon="6.7798">
        <ele>560.873</ele>
        <time>2011-04-17T10:03:08Z</time>
      </trkpt>
      <trkpt lat="48.02283" lon="6.78084">
        <ele>557.954</ele>
        <time>2011-04-17T10:03:24Z</time>
      </trkpt>
      <trkpt lat="48.02283" lon="6.7814">
        <ele>555.636</ele>
        <time>2011-04-17T10:03:31Z</time>
      </trkpt>
      <trkpt lat="48.02283" lon="6.78217">
        <ele>551.596</ele>
        <time>2011-04-17T10:03:39Z</time>
      </trkpt>
      <trkpt lat="48.02283" lon="6.78227">
        <ele>551.593</ele>
        <time>2011-04-17T10:03:40Z</time>
      </trkpt>
      <trkpt lat="48.02289" lon="6.78298">
        <ele>549.044</ele>
        <time>2011-04-17T10:03:47Z</time>
      </trkpt>
      <trkpt lat="48.02293" lon="6.78328">
        <ele>548.235</ele>
        <time>2011-04-17T10:03:50Z</time>
      </trkpt>
      <trkpt lat="48.02294" lon="6.78368">
        <ele>546.709</ele>
        <time>2011-04-17T10:03:54Z</time>
      </trkpt>
      <trkpt lat="48.02271" lon="6.7849">
        <ele>546.49</ele>
        <time>2011-04-17T10:04:07Z</time>
      </trkpt>
      <trkpt lat="48.0226" lon="6.78578">
        <ele>546.315</ele>
        <time>2011-04-17T10:04:22Z</time>
      </trkpt>
      <trkpt lat="48.02257" lon="6.78597">
        <ele>546.11</ele>
        <time>2011-04-17T10:04:26Z</time>
      </trkpt>
      <trkpt lat="48.0225" lon="6.78599">
        <ele>545.026</ele>
        <time>2011-04-17T10:04:34Z</time>
      </trkpt>
      <trkpt lat="48.02251" lon="6.78599">
        <ele>545.02</ele>
        <time>2011-04-17T10:04:35Z</time>
      </trkpt>
      <trkpt lat="48.02253" lon="6.786">
        <ele>545.2</ele>
        <time>2011-04-17T10:04:40Z</time>
      </trkpt>
      <trkpt lat="48.02252" lon="6.78602">
        <ele>545.322</ele>
        <time>2011-04-17T10:04:46Z</time>
      </trkpt>
      <trkpt lat="48.02255" lon="6.78606">
        <ele>545.752</ele>
        <time>2011-04-17T10:04:48Z</time>
      </trkpt>
      <trkpt lat="48.02246" lon="6.78661">
        <ele>546.062</ele>
        <time>2011-04-17T10:04:58Z</time>
      </trkpt>
      <trkpt lat="48.02242" lon="6.78712">
        <ele>547.09</ele>
        <time>2011-04-17T10:05:12Z</time>
      </trkpt>
      <trkpt lat="48.02242" lon="6.78717">
        <ele>547.634</ele>
        <time>2011-04-17T10:05:14Z</time>
      </trkpt>
      <trkpt lat="48.02252" lon="6.78707">
        <ele>547.506</ele>
        <time>2011-04-17T10:05:22Z</time>
      </trkpt>
      <trkpt lat="48.02251" lon="6.78707">
        <ele>547.141</ele>
        <time>2011-04-17T10:05:28Z</time>
      </trkpt>
      <trkpt lat="48.02243" lon="6.78715">
        <ele>547.092</ele>
        <time>2011-04-17T10:05:35Z</time>
      </trkpt>
      <trkpt lat="48.02245" lon="6.78767">
        <ele>547.931</ele>
        <time>2011-04-17T10:05:46Z</time>
      </trkpt>
      <trkpt lat="48.02241" lon="6.78764">
        <ele>546.589</ele>
        <time>2011-04-17T10:05:50Z</time>
      </trkpt>
      <trkpt lat="48.02227" lon="6.78759">
        <ele>545.019</ele>
        <time>2011-04-17T10:05:52Z</time>
      </trkpt>
      <trkpt lat="48.0222" lon="6.78758">
        <ele>542.992</ele>
        <time>2011-04-17T10:05:53Z</time>
      </trkpt>
      <trkpt lat="48.02184" lon="6.78757">
        <ele>542.44</ele>
        <time>2011-04-17T10:05:58Z</time>
      </trkpt>
      <trkpt lat="48.02172" lon="6.78757">
        <ele>543.113</ele>
        <time>2011-04-17T10:06:00Z</time>
      </trkpt>
      <trkpt lat="48.02154" lon="6.78735">
        <ele>544.398</ele>
        <time>2011-04-17T10:06:05Z</time>
      </trkpt>
      <trkpt lat="48.02144" lon="6.78673">
        <ele>543.613</ele>
        <time>2011-04-17T10:06:14Z</time>
      </trkpt>
      <trkpt lat="48.02141" lon="6.78632">
        <ele>542.604</ele>
        <time>2011-04-17T10:06:20Z</time>
      </trkpt>
      <trkpt lat="48.02124" lon="6.78607">
        <ele>543.653</ele>
        <time>2011-04-17T10:06:27Z</time>
      </trkpt>
      <trkpt lat="48.02093" lon="6.78609">
        <ele>547.978</ele>
        <time>2011-04-17T10:06:39Z</time>
      </trkpt>
      <trkpt lat="48.02067" lon="6.78577">
        <ele>551.333</ele>
        <time>2011-04-17T10:06:53Z</time>
      </trkpt>
      <trkpt lat="48.02044" lon="6.78526">
        <ele>554.481</ele>
        <time>2011-04-17T10:07:09Z</time>
      </trkpt>
      <trkpt lat="48.02026" lon="6.7846">
        <ele>557.462</ele>
        <time>2011-04-17T10:07:28Z</time>
      </trkpt>
      <trkpt lat="48.02016" lon="6.78432">
        <ele>558.821</ele>
        <time>2011-04-17T10:07:36Z</time>
      </trkpt>
      <trkpt lat="48.02008" lon="6.7836">
        <ele>557.827</ele>
        <time>2011-04-17T10:07:50Z</time>
      </trkpt>
      <trkpt lat="48.01999" lon="6.78298">
        <ele>559.947</ele>
        <time>2011-04-17T10:08:02Z</time>
      </trkpt>
      <trkpt lat="48.01984" lon="6.78234">
        <ele>559.114</ele>
        <time>2011-04-17T10:08:13Z</time>
      </trkpt>
      <trkpt lat="48.01956" lon="6.78125">
        <ele>561.651</ele>
        <time>2011-04-17T10:08:31Z</time>
      </trkpt>
      <trkpt lat="48.01931" lon="6.78063">
        <ele>562.786</ele>
        <time>2011-04-17T10:08:45Z</time>
      </trkpt>
      <trkpt lat="48.01919" lon="6.7805">
        <ele>562.351</ele>
        <time>2011-04-17T10:08:48Z</time>
      </trkpt>
      <trkpt lat="48.01905" lon="6.78021">
        <ele>562.355</ele>
        <time>2011-04-17T10:08:54Z</time>
      </trkpt>
      <trkpt lat="48.01908" lon="6.77975">
        <ele>565.225</ele>
        <time>2011-04-17T10:09:03Z</time>
      </trkpt>
      <trkpt lat="48.01907" lon="6.77958">
        <ele>565.756</ele>
        <time>2011-04-17T10:09:07Z</time>
      </trkpt>
      <trkpt lat="48.01899" lon="6.77928">
        <ele>563.539</ele>
        <time>2011-04-17T10:09:12Z</time>
      </trkpt>
      <trkpt lat="48.01902" lon="6.77886">
        <ele>564.027</ele>
        <time>2011-04-17T10:09:18Z</time>
      </trkpt>
      <trkpt lat="48.01894" lon="6.77857">
        <ele>564.049</ele>
        <time>2011-04-17T10:09:24Z</time>
      </trkpt>
      <trkpt lat="48.01876" lon="6.77827">
        <ele>563.414</ele>
        <time>2011-04-17T10:09:31Z</time>
      </trkpt>
      <trkpt lat="48.01855" lon="6.778">
        <ele>564.518</ele>
        <time>2011-04-17T10:09:38Z</time>
      </trkpt>
      <trkpt lat="48.01859" lon="6.77774">
        <ele>563.935</ele>
        <time>2011-04-17T10:09:43Z</time>
      </trkpt>
      <trkpt lat="48.01863" lon="6.77745">
        <ele>561.694</ele>
        <time>2011-04-17T10:09:46Z</time>
      </trkpt>
      <trkpt lat="48.01861" lon="6.77722">
        <ele>559.942</ele>
        <time>2011-04-17T10:09:48Z</time>
      </trkpt>
      <trkpt lat="48.01856" lon="6.77698">
        <ele>557.809</ele>
        <time>2011-04-17T10:09:50Z</time>
      </trkpt>
      <trkpt lat="48.01853" lon="6.77686">
        <ele>556.561</ele>
        <time>2011-04-17T10:09:51Z</time>
      </trkpt>
      <trkpt lat="48.01843" lon="6.77667">
        <ele>555.345</ele>
        <time>2011-04-17T10:09:53Z</time>
      </trkpt>
      <trkpt lat="48.0183" lon="6.77649">
        <ele>554.925</ele>
        <time>2011-04-17T10:09:55Z</time>
      </trkpt>
      <trkpt lat="48.01816" lon="6.77602">
        <ele>555.883</ele>
        <time>2011-04-17T10:10:00Z</time>
      </trkpt>
      <trkpt lat="48.01802" lon="6.77569">
        <ele>554.38</ele>
        <time>2011-04-17T10:10:04Z</time>
      </trkpt>
      <trkpt lat="48.01793" lon="6.77545">
        <ele>554.772</ele>
        <time>2011-04-17T10:10:07Z</time>
      </trkpt>
      <trkpt lat="48.0177" lon="6.77483">
        <ele>555.598</ele>
        <time>2011-04-17T10:10:16Z</time>
      </trkpt>
      <trkpt lat="48.01738" lon="6.77399">
        <ele>557.138</ele>
        <time>2011-04-17T10:10:29Z</time>
      </trkpt>
      <trkpt lat="48.017" lon="6.77349">
        <ele>556.771</ele>
        <time>2011-04-17T10:10:41Z</time>
      </trkpt>
      <trkpt lat="48.01695" lon="6.77335">
        <ele>555.396</ele>
        <time>2011-04-17T10:10:43Z</time>
      </trkpt>
      <trkpt lat="48.0169" lon="6.77318">
        <ele>556.445</ele>
        <time>2011-04-17T10:10:50Z</time>
      </trkpt>
      <trkpt lat="48.0167" lon="6.773">
        <ele>554.948</ele>
        <time>2011-04-17T10:10:57Z</time>
      </trkpt>
      <trkpt lat="48.01656" lon="6.77287">
        <ele>554.264</ele>
        <time>2011-04-17T10:11:00Z</time>
      </trkpt>
      <trkpt lat="48.01653" lon="6.77257">
        <ele>552.8</ele>
        <time>2011-04-17T10:11:04Z</time>
      </trkpt>
      <trkpt lat="48.01657" lon="6.77242">
        <ele>553.512</ele>
        <time>2011-04-17T10:11:06Z</time>
      </trkpt>
      <trkpt lat="48.01658" lon="6.77224">
        <ele>553.713</ele>
        <time>2011-04-17T10:11:08Z</time>
      </trkpt>
      <trkpt lat="48.01655" lon="6.77191">
        <ele>553.606</ele>
        <time>2011-04-17T10:11:12Z</time>
      </trkpt>
      <trkpt lat="48.01646" lon="6.77166">
        <ele>555.164</ele>
        <time>2011-04-17T10:11:16Z</time>
      </trkpt>
      <trkpt lat="48.01629" lon="6.77141">
        <ele>556.216</ele>
        <time>2011-04-17T10:11:22Z</time>
      </trkpt>
      <trkpt lat="48.0162" lon="6.77128">
        <ele>556.024</ele>
        <time>2011-04-17T10:11:25Z</time>
      </trkpt>
      <trkpt lat="48.01609" lon="6.77102">
        <ele>556.977</ele>
        <time>2011-04-17T10:11:30Z</time>
      </trkpt>
      <trkpt lat="48.01613" lon="6.77061">
        <ele>559.168</ele>
        <time>2011-04-17T10:11:39Z</time>
      </trkpt>
      <trkpt lat="48.01608" lon="6.77034">
        <ele>560.626</ele>
        <time>2011-04-17T10:11:46Z</time>
      </trkpt>
      <trkpt lat="48.01574" lon="6.77009">
        <ele>561.297</ele>
        <time>2011-04-17T10:11:59Z</time>
      </trkpt>
      <trkpt lat="48.01527" lon="6.76987">
        <ele>562.901</ele>
        <time>2011-04-17T10:12:12Z</time>
      </trkpt>
      <trkpt lat="48.01495" lon="6.76975">
        <ele>563.153</ele>
        <time>2011-04-17T10:12:22Z</time>
      </trkpt>
      <trkpt lat="48.01453" lon="6.76916">
        <ele>562.624</ele>
        <time>2011-04-17T10:12:36Z</time>
      </trkpt>
      <trkpt lat="48.01443" lon="6.76892">
        <ele>562.734</ele>
        <time>2011-04-17T10:12:40Z</time>
      </trkpt>
      <trkpt lat="48.01434" lon="6.76802">
        <ele>566.173</ele>
        <time>2011-04-17T10:12:55Z</time>
      </trkpt>
      <trkpt lat="48.01427" lon="6.76747">
        <ele>565.854</ele>
        <time>2011-04-17T10:13:08Z</time>
      </trkpt>
      <trkpt lat="48.0141" lon="6.76706">
        <ele>564.196</ele>
        <time>2011-04-17T10:13:15Z</time>
      </trkpt>
      <trkpt lat="48.01393" lon="6.76686">
        <ele>562.917</ele>
        <time>2011-04-17T10:13:19Z</time>
      </trkpt>
      <trkpt lat="48.01371" lon="6.76664">
        <ele>560.279</ele>
        <time>2011-04-17T10:13:23Z</time>
      </trkpt>
      <trkpt lat="48.01358" lon="6.76625">
        <ele>559.252</ele>
        <time>2011-04-17T10:13:28Z</time>
      </trkpt>
      <trkpt lat="48.01337" lon="6.76596">
        <ele>557.727</ele>
        <time>2011-04-17T10:13:34Z</time>
      </trkpt>
      <trkpt lat="48.01326" lon="6.76579">
        <ele>556.322</ele>
        <time>2011-04-17T10:13:37Z</time>
      </trkpt>
      <trkpt lat="48.01317" lon="6.76565">
        <ele>554.025</ele>
        <time>2011-04-17T10:13:40Z</time>
      </trkpt>
      <trkpt lat="48.01311" lon="6.76557">
        <ele>553.133</ele>
        <time>2011-04-17T10:13:42Z</time>
      </trkpt>
      <trkpt lat="48.0129" lon="6.7649">
        <ele>553.896</ele>
        <time>2011-04-17T10:13:52Z</time>
      </trkpt>
      <trkpt lat="48.01287" lon="6.7648">
        <ele>553.889</ele>
        <time>2011-04-17T10:13:53Z</time>
      </trkpt>
      <trkpt lat="48.01285" lon="6.76468">
        <ele>553.453</ele>
        <time>2011-04-17T10:13:55Z</time>
      </trkpt>
      <trkpt lat="48.01276" lon="6.76414">
        <ele>554.808</ele>
        <time>2011-04-17T10:14:03Z</time>
      </trkpt>
      <trkpt lat="48.0128" lon="6.76395">
        <ele>555.487</ele>
        <time>2011-04-17T10:14:07Z</time>
      </trkpt>
      <trkpt lat="48.01293" lon="6.76393">
        <ele>554.653</ele>
        <time>2011-04-17T10:14:12Z</time>
      </trkpt>
      <trkpt lat="48.01298" lon="6.76395">
        <ele>552.758</ele>
        <time>2011-04-17T10:14:14Z</time>
      </trkpt>
      <trkpt lat="48.01303" lon="6.764">
        <ele>550.486</ele>
        <time>2011-04-17T10:14:17Z</time>
      </trkpt>
      <trkpt lat="48.013" lon="6.76404">
        <ele>549.038</ele>
        <time>2011-04-17T10:14:26Z</time>
      </trkpt>
      <trkpt lat="48.01297" lon="6.76405">
        <ele>547.97</ele>
        <time>2011-04-17T10:14:31Z</time>
      </trkpt>
      <trkpt lat="48.01295" lon="6.76411">
        <ele>545.605</ele>
        <time>2011-04-17T10:14:35Z</time>
      </trkpt>
      <trkpt lat="48.01295" lon="6.76416">
        <ele>545.047</ele>
        <time>2011-04-17T10:14:39Z</time>
      </trkpt>
      <trkpt lat="48.01298" lon="6.76428">
        <ele>548.308</ele>
        <time>2011-04-17T10:14:48Z</time>
      </trkpt>
      <trkpt lat="48.01297" lon="6.7643">
        <ele>548.301</ele>
        <time>2011-04-17T10:14:49Z</time>
      </trkpt>
      <trkpt lat="48.013" lon="6.76436">
        <ele>547.957</ele>
        <time>2011-04-17T10:15:03Z</time>
      </trkpt>
      <trkpt lat="48.013" lon="6.7644">
        <ele>547.861</ele>
        <time>2011-04-17T10:15:06Z</time>
      </trkpt>
      <trkpt lat="48.01298" lon="6.76456">
        <ele>548.813</ele>
        <time>2011-04-17T10:15:11Z</time>
      </trkpt>
      <trkpt lat="48.01302" lon="6.76466">
        <ele>550.122</ele>
        <time>2011-04-17T10:15:15Z</time>
      </trkpt>
      <trkpt lat="48.01306" lon="6.76475">
        <ele>550.589</ele>
        <time>2011-04-17T10:15:19Z</time>
      </trkpt>
      <trkpt lat="48.01322" lon="6.76471">
        <ele>546.844</ele>
        <time>2011-04-17T10:15:23Z</time>
      </trkpt>
      <trkpt lat="48.01339" lon="6.76484">
        <ele>539.982</ele>
        <time>2011-04-17T10:15:30Z</time>
      </trkpt>
      <trkpt lat="48.01339" lon="6.76489">
        <ele>539.977</ele>
        <time>2011-04-17T10:15:31Z</time>
      </trkpt>
      <trkpt lat="48.01346" lon="6.76505">
        <ele>537.477</ele>
        <time>2011-04-17T10:15:33Z</time>
      </trkpt>
      <trkpt lat="48.01358" lon="6.76515">
        <ele>536.103</ele>
        <time>2011-04-17T10:15:36Z</time>
      </trkpt>
      <trkpt lat="48.01367" lon="6.76512">
        <ele>534.077</ele>
        <time>2011-04-17T10:15:40Z</time>
      </trkpt>
      <trkpt lat="48.01367" lon="6.76506">
        <ele>531.517</ele>
        <time>2011-04-17T10:15:42Z</time>
      </trkpt>
      <trkpt lat="48.01364" lon="6.76491">
        <ele>530.729</ele>
        <time>2011-04-17T10:15:46Z</time>
      </trkpt>
      <trkpt lat="48.01368" lon="6.76484">
        <ele>529.31</ele>
        <time>2011-04-17T10:16:11Z</time>
      </trkpt>
      <trkpt lat="48.01371" lon="6.76487">
        <ele>529.337</ele>
        <time>2011-04-17T10:16:22Z</time>
      </trkpt>
      <trkpt lat="48.01371" lon="6.76487">
        <ele>529.028</ele>
        <time>2011-04-17T10:16:35Z</time>
      </trkpt>
      <trkpt lat="48.01381" lon="6.76512">
        <ele>528.772</ele>
        <time>2011-04-17T10:16:41Z</time>
      </trkpt>
      <trkpt lat="48.014" lon="6.76525">
        <ele>526.301</ele>
        <time>2011-04-17T10:16:45Z</time>
      </trkpt>
      <trkpt lat="48.01423" lon="6.7655">
        <ele>525.162</ele>
        <time>2011-04-17T10:16:50Z</time>
      </trkpt>
      <trkpt lat="48.01447" lon="6.76566">
        <ele>523.471</ele>
        <time>2011-04-17T10:16:54Z</time>
      </trkpt>
      <trkpt lat="48.01463" lon="6.7657">
        <ele>521.312</ele>
        <time>2011-04-17T10:16:56Z</time>
      </trkpt>
      <trkpt lat="48.01485" lon="6.7658">
        <ele>518.588</ele>
        <time>2011-04-17T10:16:59Z</time>
      </trkpt>
      <trkpt lat="48.01491" lon="6.76582">
        <ele>518.459</ele>
        <time>2011-04-17T10:17:00Z</time>
      </trkpt>
      <trkpt lat="48.01532" lon="6.76617">
        <ele>515.738</ele>
        <time>2011-04-17T10:17:06Z</time>
      </trkpt>
      <trkpt lat="48.01561" lon="6.76651">
        <ele>513.307</ele>
        <time>2011-04-17T10:17:11Z</time>
      </trkpt>
      <trkpt lat="48.01582" lon="6.76689">
        <ele>511.264</ele>
        <time>2011-04-17T10:17:15Z</time>
      </trkpt>
      <trkpt lat="48.01586" lon="6.76697">
        <ele>510.354</ele>
        <time>2011-04-17T10:17:16Z</time>
      </trkpt>
      <trkpt lat="48.0161" lon="6.76736">
        <ele>508.759</ele>
        <time>2011-04-17T10:17:20Z</time>
      </trkpt>
      <trkpt lat="48.01636" lon="6.76804">
        <ele>507.941</ele>
        <time>2011-04-17T10:17:24Z</time>
      </trkpt>
      <trkpt lat="48.01655" lon="6.76838">
        <ele>508.906</ele>
        <time>2011-04-17T10:17:27Z</time>
      </trkpt>
      <trkpt lat="48.01684" lon="6.76911">
        <ele>509.314</ele>
        <time>2011-04-17T10:17:33Z</time>
      </trkpt>
      <trkpt lat="48.01694" lon="6.76941">
        <ele>509.831</ele>
        <time>2011-04-17T10:17:36Z</time>
      </trkpt>
      <trkpt lat="48.01706" lon="6.76947">
        <ele>511.578</ele>
        <time>2011-04-17T10:17:39Z</time>
      </trkpt>
      <trkpt lat="48.01724" lon="6.76964">
        <ele>510.669</ele>
        <time>2011-04-17T10:17:44Z</time>
      </trkpt>
      <trkpt lat="48.01753" lon="6.7699">
        <ele>511.967</ele>
        <time>2011-04-17T10:17:54Z</time>
      </trkpt>
      <trkpt lat="48.01771" lon="6.77014">
        <ele>512.293</ele>
        <time>2011-04-17T10:18:01Z</time>
      </trkpt>
      <trkpt lat="48.01794" lon="6.77037">
        <ele>512.891</ele>
        <time>2011-04-17T10:18:08Z</time>
      </trkpt>
      <trkpt lat="48.01803" lon="6.77044">
        <ele>512.895</ele>
        <time>2011-04-17T10:18:10Z</time>
      </trkpt>
      <trkpt lat="48.01858" lon="6.77061">
        <ele>515.416</ele>
        <time>2011-04-17T10:18:24Z</time>
      </trkpt>
      <trkpt lat="48.01875" lon="6.77032">
        <ele>518.705</ele>
        <time>2011-04-17T10:18:33Z</time>
      </trkpt>
      <trkpt lat="48.01876" lon="6.77029">
        <ele>518.704</ele>
        <time>2011-04-17T10:18:34Z</time>
      </trkpt>
      <trkpt lat="48.01878" lon="6.7702">
        <ele>519.265</ele>
        <time>2011-04-17T10:18:37Z</time>
      </trkpt>
      <trkpt lat="48.01865" lon="6.76969">
        <ele>519.373</ele>
        <time>2011-04-17T10:18:51Z</time>
      </trkpt>
      <trkpt lat="48.01862" lon="6.76963">
        <ele>519.37</ele>
        <time>2011-04-17T10:18:52Z</time>
      </trkpt>
      <trkpt lat="48.01846" lon="6.76925">
        <ele>520.035</ele>
        <time>2011-04-17T10:19:00Z</time>
      </trkpt>
      <trkpt lat="48.01842" lon="6.76915">
        <ele>520.824</ele>
        <time>2011-04-17T10:19:03Z</time>
      </trkpt>
      <trkpt lat="48.01824" lon="6.76873">
        <ele>520.756</ele>
        <time>2011-04-17T10:19:14Z</time>
      </trkpt>
      <trkpt lat="48.01809" lon="6.76836">
        <ele>521.425</ele>
        <time>2011-04-17T10:19:23Z</time>
      </trkpt>
      <trkpt lat="48.01804" lon="6.76825">
        <ele>523.733</ele>
        <time>2011-04-17T10:19:27Z</time>
      </trkpt>
      <trkpt lat="48.01796" lon="6.76808">
        <ele>525.106</ele>
        <time>2011-04-17T10:19:32Z</time>
      </trkpt>
      <trkpt lat="48.0179" lon="6.76793">
        <ele>526.332</ele>
        <time>2011-04-17T10:19:40Z</time>
      </trkpt>
      <trkpt lat="48.01788" lon="6.76789">
        <ele>528.551</ele>
        <time>2011-04-17T10:19:56Z</time>
      </trkpt>
      <trkpt lat="48.01788" lon="6.76789">
        <ele>530.03</ele>
        <time>2011-04-17T10:20:08Z</time>
      </trkpt>
      <trkpt lat="48.01771" lon="6.7673">
        <ele>528.076</ele>
        <time>2011-04-17T10:20:19Z</time>
      </trkpt>
      <trkpt lat="48.01767" lon="6.76696">
        <ele>527.775</ele>
        <time>2011-04-17T10:20:24Z</time>
      </trkpt>
      <trkpt lat="48.01765" lon="6.76673">
        <ele>529.295</ele>
        <time>2011-04-17T10:20:28Z</time>
      </trkpt>
      <trkpt lat="48.01832" lon="6.76616">
        <ele>530.511</ele>
        <time>2011-04-17T10:20:39Z</time>
      </trkpt>
      <trkpt lat="48.01838" lon="6.76584">
        <ele>530.181</ele>
        <time>2011-04-17T10:20:45Z</time>
      </trkpt>
      <trkpt lat="48.01854" lon="6.76579">
        <ele>532.634</ele>
        <time>2011-04-17T10:20:53Z</time>
      </trkpt>
      <trkpt lat="48.01859" lon="6.76579">
        <ele>533.882</ele>
        <time>2011-04-17T10:20:55Z</time>
      </trkpt>
      <trkpt lat="48.01864" lon="6.7658">
        <ele>534.289</ele>
        <time>2011-04-17T10:21:03Z</time>
      </trkpt>
      <trkpt lat="48.01864" lon="6.7658">
        <ele>534.407</ele>
        <time>2011-04-17T10:21:29Z</time>
      </trkpt>
      <trkpt lat="48.01866" lon="6.76581">
        <ele>534.768</ele>
        <time>2011-04-17T10:22:39Z</time>
      </trkpt>
      <trkpt lat="48.01866" lon="6.76581">
        <ele>534.968</ele>
        <time>2011-04-17T10:23:07Z</time>
      </trkpt>
      <trkpt lat="48.01852" lon="6.7657">
        <ele>535.35</ele>
        <time>2011-04-17T10:23:15Z</time>
      </trkpt>
      <trkpt lat="48.01846" lon="6.76544">
        <ele>538.001</ele>
        <time>2011-04-17T10:23:24Z</time>
      </trkpt>
      <trkpt lat="48.01845" lon="6.76531">
        <ele>538.441</ele>
        <time>2011-04-17T10:23:29Z</time>
      </trkpt>
      <trkpt lat="48.01842" lon="6.76518">
        <ele>537.156</ele>
        <time>2011-04-17T10:23:32Z</time>
      </trkpt>
      <trkpt lat="48.0184" lon="6.76508">
        <ele>533.485</ele>
        <time>2011-04-17T10:23:34Z</time>
      </trkpt>
      <trkpt lat="48.01838" lon="6.76503">
        <ele>533.482</ele>
        <time>2011-04-17T10:23:35Z</time>
      </trkpt>
      <trkpt lat="48.01839" lon="6.76469">
        <ele>534.511</ele>
        <time>2011-04-17T10:23:44Z</time>
      </trkpt>
      <trkpt lat="48.01847" lon="6.7646">
        <ele>535.219</ele>
        <time>2011-04-17T10:23:49Z</time>
      </trkpt>
      <trkpt lat="48.01853" lon="6.76452">
        <ele>536.878</ele>
        <time>2011-04-17T10:23:55Z</time>
      </trkpt>
      <trkpt lat="48.01849" lon="6.76445">
        <ele>537.82</ele>
        <time>2011-04-17T10:23:59Z</time>
      </trkpt>
      <trkpt lat="48.01846" lon="6.76442">
        <ele>538.264</ele>
        <time>2011-04-17T10:24:01Z</time>
      </trkpt>
      <trkpt lat="48.01819" lon="6.76436">
        <ele>540.572</ele>
        <time>2011-04-17T10:24:16Z</time>
      </trkpt>
      <trkpt lat="48.01803" lon="6.7643">
        <ele>540.256</ele>
        <time>2011-04-17T10:24:23Z</time>
      </trkpt>
      <trkpt lat="48.01767" lon="6.7639">
        <ele>538.286</ele>
        <time>2011-04-17T10:24:37Z</time>
      </trkpt>
      <trkpt lat="48.01755" lon="6.76367">
        <ele>538.216</ele>
        <time>2011-04-17T10:24:42Z</time>
      </trkpt>
      <trkpt lat="48.01741" lon="6.7635">
        <ele>535.922</ele>
        <time>2011-04-17T10:24:46Z</time>
      </trkpt>
      <trkpt lat="48.01735" lon="6.76317">
        <ele>538.323</ele>
        <time>2011-04-17T10:24:55Z</time>
      </trkpt>
      <trkpt lat="48.01734" lon="6.76311">
        <ele>538.324</ele>
        <time>2011-04-17T10:24:56Z</time>
      </trkpt>
      <trkpt lat="48.01733" lon="6.76285">
        <ele>540.535</ele>
        <time>2011-04-17T10:25:03Z</time>
      </trkpt>
      <trkpt lat="48.01733" lon="6.7625">
        <ele>542.287</ele>
        <time>2011-04-17T10:25:13Z</time>
      </trkpt>
      <trkpt lat="48.01726" lon="6.76226">
        <ele>541.393</ele>
        <time>2011-04-17T10:25:19Z</time>
      </trkpt>
      <trkpt lat="48.01723" lon="6.76206">
        <ele>540.846</ele>
        <time>2011-04-17T10:25:23Z</time>
      </trkpt>
      <trkpt lat="48.01717" lon="6.7619">
        <ele>540.017</ele>
        <time>2011-04-17T10:25:27Z</time>
      </trkpt>
      <trkpt lat="48.01707" lon="6.76183">
        <ele>538.876</ele>
        <time>2011-04-17T10:25:31Z</time>
      </trkpt>
      <trkpt lat="48.01702" lon="6.76181">
        <ele>537.736</ele>
        <time>2011-04-17T10:25:33Z</time>
      </trkpt>
      <trkpt lat="48.01683" lon="6.76155">
        <ele>538.558</ele>
        <time>2011-04-17T10:25:43Z</time>
      </trkpt>
      <trkpt lat="48.01683" lon="6.76153">
        <ele>538.558</ele>
        <time>2011-04-17T10:25:44Z</time>
      </trkpt>
      <trkpt lat="48.01682" lon="6.76149">
        <ele>538.712</ele>
        <time>2011-04-17T10:25:46Z</time>
      </trkpt>
      <trkpt lat="48.01686" lon="6.76147">
        <ele>538.665</ele>
        <time>2011-04-17T10:25:50Z</time>
      </trkpt>
      <trkpt lat="48.01701" lon="6.76114">
        <ele>538.149</ele>
        <time>2011-04-17T10:26:02Z</time>
      </trkpt>
      <trkpt lat="48.01702" lon="6.7611">
        <ele>537.993</ele>
        <time>2011-04-17T10:26:16Z</time>
      </trkpt>
      <trkpt lat="48.01701" lon="6.76115">
        <ele>538.485</ele>
        <time>2011-04-17T10:26:46Z</time>
      </trkpt>
      <trkpt lat="48.01696" lon="6.76125">
        <ele>538.047</ele>
        <time>2011-04-17T10:26:50Z</time>
      </trkpt>
      <trkpt lat="48.01689" lon="6.76124">
        <ele>538.463</ele>
        <time>2011-04-17T10:26:54Z</time>
      </trkpt>
      <trkpt lat="48.01686" lon="6.7612">
        <ele>538.936</ele>
        <time>2011-04-17T10:26:56Z</time>
      </trkpt>
      <trkpt lat="48.0166" lon="6.76086">
        <ele>541.107</ele>
        <time>2011-04-17T10:27:08Z</time>
      </trkpt>
      <trkpt lat="48.01632" lon="6.76068">
        <ele>543.337</ele>
        <time>2011-04-17T10:27:24Z</time>
      </trkpt>
      <trkpt lat="48.01617" lon="6.76051">
        <ele>544.525</ele>
        <time>2011-04-17T10:27:34Z</time>
      </trkpt>
      <trkpt lat="48.01598" lon="6.76025">
        <ele>544.651</ele>
        <time>2011-04-17T10:27:47Z</time>
      </trkpt>
      <trkpt lat="48.01573" lon="6.75992">
        <ele>545.514</ele>
        <time>2011-04-17T10:28:02Z</time>
      </trkpt>
      <trkpt lat="48.0155" lon="6.75951">
        <ele>548.046</ele>
        <time>2011-04-17T10:28:19Z</time>
      </trkpt>
      <trkpt lat="48.01536" lon="6.75912">
        <ele>551.83</ele>
        <time>2011-04-17T10:28:34Z</time>
      </trkpt>
      <trkpt lat="48.01518" lon="6.75878">
        <ele>552.974</ele>
        <time>2011-04-17T10:28:49Z</time>
      </trkpt>
      <trkpt lat="48.01506" lon="6.7583">
        <ele>552.752</ele>
        <time>2011-04-17T10:29:03Z</time>
      </trkpt>
      <trkpt lat="48.01497" lon="6.75796">
        <ele>551.565</ele>
        <time>2011-04-17T10:29:10Z</time>
      </trkpt>
      <trkpt lat="48.01483" lon="6.75719">
        <ele>548.865</ele>
        <time>2011-04-17T10:29:23Z</time>
      </trkpt>
      <trkpt lat="48.01482" lon="6.7571">
        <ele>548.876</ele>
        <time>2011-04-17T10:29:25Z</time>
      </trkpt>
      <trkpt lat="48.01482" lon="6.75703">
        <ele>548.496</ele>
        <time>2011-04-17T10:29:40Z</time>
      </trkpt>
      <trkpt lat="48.01482" lon="6.75701">
        <ele>548.333</ele>
        <time>2011-04-17T10:30:28Z</time>
      </trkpt>
      <trkpt lat="48.01489" lon="6.75692">
        <ele>548.889</ele>
        <time>2011-04-17T10:30:32Z</time>
      </trkpt>
      <trkpt lat="48.01497" lon="6.75676">
        <ele>547.537</ele>
        <time>2011-04-17T10:30:36Z</time>
      </trkpt>
      <trkpt lat="48.0151" lon="6.75644">
        <ele>545.057</ele>
        <time>2011-04-17T10:30:43Z</time>
      </trkpt>
      <trkpt lat="48.01511" lon="6.75639">
        <ele>543.626</ele>
        <time>2011-04-17T10:30:44Z</time>
      </trkpt>
      <trkpt lat="48.01518" lon="6.7562">
        <ele>540.478</ele>
        <time>2011-04-17T10:30:47Z</time>
      </trkpt>
      <trkpt lat="48.0152" lon="6.75614">
        <ele>540.477</ele>
        <time>2011-04-17T10:30:48Z</time>
      </trkpt>
      <trkpt lat="48.01525" lon="6.75598">
        <ele>539.147</ele>
        <time>2011-04-17T10:30:50Z</time>
      </trkpt>
      <trkpt lat="48.01531" lon="6.75579">
        <ele>537.481</ele>
        <time>2011-04-17T10:30:53Z</time>
      </trkpt>
      <trkpt lat="48.0153" lon="6.75566">
        <ele>536.838</ele>
        <time>2011-04-17T10:30:55Z</time>
      </trkpt>
      <trkpt lat="48.01527" lon="6.75555">
        <ele>535.155</ele>
        <time>2011-04-17T10:30:57Z</time>
      </trkpt>
      <trkpt lat="48.01524" lon="6.75544">
        <ele>534.755</ele>
        <time>2011-04-17T10:30:59Z</time>
      </trkpt>
      <trkpt lat="48.01519" lon="6.75533">
        <ele>532.721</ele>
        <time>2011-04-17T10:31:01Z</time>
      </trkpt>
      <trkpt lat="48.01493" lon="6.75512">
        <ele>530.577</ele>
        <time>2011-04-17T10:31:08Z</time>
      </trkpt>
      <trkpt lat="48.01474" lon="6.7549">
        <ele>528.502</ele>
        <time>2011-04-17T10:31:13Z</time>
      </trkpt>
      <trkpt lat="48.01482" lon="6.75474">
        <ele>526.116</ele>
        <time>2011-04-17T10:31:18Z</time>
      </trkpt>
      <trkpt lat="48.01492" lon="6.75479">
        <ele>524.533</ele>
        <time>2011-04-17T10:31:21Z</time>
      </trkpt>
      <trkpt lat="48.01504" lon="6.75476">
        <ele>523.544</ele>
        <time>2011-04-17T10:31:28Z</time>
      </trkpt>
      <trkpt lat="48.01495" lon="6.75467">
        <ele>522.977</ele>
        <time>2011-04-17T10:31:33Z</time>
      </trkpt>
      <trkpt lat="48.01467" lon="6.7545">
        <ele>522.415</ele>
        <time>2011-04-17T10:31:41Z</time>
      </trkpt>
      <trkpt lat="48.01459" lon="6.75445">
        <ele>522.504</ele>
        <time>2011-04-17T10:31:43Z</time>
      </trkpt>
      <trkpt lat="48.01444" lon="6.75417">
        <ele>520.254</ele>
        <time>2011-04-17T10:31:49Z</time>
      </trkpt>
      <trkpt lat="48.0145" lon="6.75409">
        <ele>519.009</ele>
        <time>2011-04-17T10:31:53Z</time>
      </trkpt>
      <trkpt lat="48.01444" lon="6.75393">
        <ele>517.044</ele>
        <time>2011-04-17T10:32:00Z</time>
      </trkpt>
      <trkpt lat="48.01447" lon="6.75385">
        <ele>516.108</ele>
        <time>2011-04-17T10:32:02Z</time>
      </trkpt>
      <trkpt lat="48.01451" lon="6.75382">
        <ele>515.428</ele>
        <time>2011-04-17T10:32:03Z</time>
      </trkpt>
      <trkpt lat="48.01447" lon="6.75359">
        <ele>512.605</ele>
        <time>2011-04-17T10:32:10Z</time>
      </trkpt>
      <trkpt lat="48.01432" lon="6.75354">
        <ele>512.2</ele>
        <time>2011-04-17T10:32:13Z</time>
      </trkpt>
      <trkpt lat="48.01418" lon="6.75351">
        <ele>509.942</ele>
        <time>2011-04-17T10:32:16Z</time>
      </trkpt>
      <trkpt lat="48.01375" lon="6.75375">
        <ele>507.456</ele>
        <time>2011-04-17T10:32:25Z</time>
      </trkpt>
      <trkpt lat="48.01347" lon="6.75381">
        <ele>507.214</ele>
        <time>2011-04-17T10:32:29Z</time>
      </trkpt>
      <trkpt lat="48.01316" lon="6.75372">
        <ele>505.224</ele>
        <time>2011-04-17T10:32:33Z</time>
      </trkpt>
      <trkpt lat="48.01248" lon="6.75385">
        <ele>503.618</ele>
        <time>2011-04-17T10:32:42Z</time>
      </trkpt>
      <trkpt lat="48.01241" lon="6.7539">
        <ele>503.615</ele>
        <time>2011-04-17T10:32:43Z</time>
      </trkpt>
      <trkpt lat="48.01217" lon="6.75414">
        <ele>501.902</ele>
        <time>2011-04-17T10:32:47Z</time>
      </trkpt>
      <trkpt lat="48.01182" lon="6.75498">
        <ele>500.677</ele>
        <time>2011-04-17T10:32:50Z</time>
      </trkpt>
      <trkpt lat="48.01182" lon="6.75498">
        <ele>500.049</ele>
        <time>2011-04-17T10:32:51Z</time>
      </trkpt>
      <trkpt lat="48.01182" lon="6.75498">
        <ele>499.17</ele>
        <time>2011-04-17T10:32:55Z</time>
      </trkpt>
      <trkpt lat="48.01179" lon="6.75484">
        <ele>497.55</ele>
        <time>2011-04-17T10:32:58Z</time>
      </trkpt>
      <trkpt lat="48.01171" lon="6.75502">
        <ele>496.905</ele>
        <time>2011-04-17T10:33:00Z</time>
      </trkpt>
      <trkpt lat="48.01161" lon="6.75511">
        <ele>495.543</ele>
        <time>2011-04-17T10:33:02Z</time>
      </trkpt>
      <trkpt lat="48.01132" lon="6.75539">
        <ele>491.116</ele>
        <time>2011-04-17T10:33:06Z</time>
      </trkpt>
      <trkpt lat="48.01124" lon="6.75548">
        <ele>491.113</ele>
        <time>2011-04-17T10:33:07Z</time>
      </trkpt>
      <trkpt lat="48.01106" lon="6.75566">
        <ele>489.014</ele>
        <time>2011-04-17T10:33:09Z</time>
      </trkpt>
      <trkpt lat="48.01097" lon="6.75575">
        <ele>485.4</ele>
        <time>2011-04-17T10:33:10Z</time>
      </trkpt>
      <trkpt lat="48.01087" lon="6.75585">
        <ele>485.396</ele>
        <time>2011-04-17T10:33:11Z</time>
      </trkpt>
      <trkpt lat="48.01078" lon="6.75594">
        <ele>482.24</ele>
        <time>2011-04-17T10:33:12Z</time>
      </trkpt>
      <trkpt lat="48.01068" lon="6.75604">
        <ele>483.556</ele>
        <time>2011-04-17T10:33:13Z</time>
      </trkpt>
      <trkpt lat="48.01064" lon="6.75608">
        <ele>483.556</ele>
        <time>2011-04-17T10:33:14Z</time>
      </trkpt>
      <trkpt lat="48.00999" lon="6.7561">
        <ele>484.816</ele>
        <time>2011-04-17T10:33:20Z</time>
      </trkpt>
      <trkpt lat="48.00984" lon="6.75586">
        <ele>484.706</ele>
        <time>2011-04-17T10:33:22Z</time>
      </trkpt>
      <trkpt lat="48.01698" lon="6.76128">
        <ele>538.939</ele>
        <time>2011-04-16T11:00:48Z</time>
      </trkpt>
      <trkpt lat="48.01703" lon="6.76116">
        <ele>539.074</ele>
        <time>2011-04-16T11:00:58Z</time>
      </trkpt>
      <trkpt lat="48.01711" lon="6.76089">
        <ele>537.258</ele>
        <time>2011-04-16T11:02:03Z</time>
      </trkpt>
      <trkpt lat="48.01723" lon="6.76035">
        <ele>531.872</ele>
        <time>2011-04-16T11:02:11Z</time>
      </trkpt>
      <trkpt lat="48.01725" lon="6.76026">
        <ele>531.874</ele>
        <time>2011-04-16T11:02:12Z</time>
      </trkpt>
      <trkpt lat="48.01729" lon="6.76002">
        <ele>530.307</ele>
        <time>2011-04-16T11:02:14Z</time>
      </trkpt>
      <trkpt lat="48.01732" lon="6.75987">
        <ele>526.766</ele>
        <time>2011-04-16T11:02:15Z</time>
      </trkpt>
      <trkpt lat="48.01735" lon="6.75974">
        <ele>526.768</ele>
        <time>2011-04-16T11:02:16Z</time>
      </trkpt>
      <trkpt lat="48.01737" lon="6.75962">
        <ele>525.252</ele>
        <time>2011-04-16T11:02:17Z</time>
      </trkpt>
      <trkpt lat="48.01741" lon="6.75929">
        <ele>522.5</ele>
        <time>2011-04-16T11:02:21Z</time>
      </trkpt>
      <trkpt lat="48.01742" lon="6.75922">
        <ele>521.226</ele>
        <time>2011-04-16T11:02:22Z</time>
      </trkpt>
      <trkpt lat="48.0174" lon="6.75898">
        <ele>519.302</ele>
        <time>2011-04-16T11:02:25Z</time>
      </trkpt>
      <trkpt lat="48.01736" lon="6.75879">
        <ele>516.159</ele>
        <time>2011-04-16T11:02:27Z</time>
      </trkpt>
      <trkpt lat="48.01729" lon="6.75855">
        <ele>514.28</ele>
        <time>2011-04-16T11:02:30Z</time>
      </trkpt>
      <trkpt lat="48.0173" lon="6.75835">
        <ele>513.055</ele>
        <time>2011-04-16T11:02:32Z</time>
      </trkpt>
      <trkpt lat="48.01731" lon="6.75822">
        <ele>510.073</ele>
        <time>2011-04-16T11:02:33Z</time>
      </trkpt>
      <trkpt lat="48.01731" lon="6.75795">
        <ele>507.628</ele>
        <time>2011-04-16T11:02:35Z</time>
      </trkpt>
      <trkpt lat="48.01731" lon="6.75766">
        <ele>505.445</ele>
        <time>2011-04-16T11:02:37Z</time>
      </trkpt>
      <trkpt lat="48.01731" lon="6.75737">
        <ele>502.883</ele>
        <time>2011-04-16T11:02:39Z</time>
      </trkpt>
      <trkpt lat="48.01732" lon="6.75711">
        <ele>499.44</ele>
        <time>2011-04-16T11:02:41Z</time>
      </trkpt>
      <trkpt lat="48.01715" lon="6.75659">
        <ele>496.955</ele>
        <time>2011-04-16T11:02:46Z</time>
      </trkpt>
      <trkpt lat="48.01698" lon="6.75631">
        <ele>495.889</ele>
        <time>2011-04-16T11:02:49Z</time>
      </trkpt>
      <trkpt lat="48.01687" lon="6.75611">
        <ele>497.306</ele>
        <time>2011-04-16T11:02:51Z</time>
      </trkpt>
      <trkpt lat="48.01682" lon="6.75602">
        <ele>499.308</ele>
        <time>2011-04-16T11:02:52Z</time>
      </trkpt>
      <trkpt lat="48.01671" lon="6.75569">
        <ele>501.579</ele>
        <time>2011-04-16T11:02:56Z</time>
      </trkpt>
      <trkpt lat="48.01667" lon="6.75556">
        <ele>502.073</ele>
        <time>2011-04-16T11:02:58Z</time>
      </trkpt>
      <trkpt lat="48.01651" lon="6.75483">
        <ele>503.283</ele>
        <time>2011-04-16T11:03:12Z</time>
      </trkpt>
      <trkpt lat="48.01644" lon="6.75436">
        <ele>504.867</ele>
        <time>2011-04-16T11:03:22Z</time>
      </trkpt>
      <trkpt lat="48.01621" lon="6.75388">
        <ele>508.08</ele>
        <time>2011-04-16T11:03:36Z</time>
      </trkpt>
      <trkpt lat="48.01583" lon="6.75377">
        <ele>507.243</ele>
        <time>2011-04-16T11:03:48Z</time>
      </trkpt>
      <trkpt lat="48.01571" lon="6.75352">
        <ele>505.999</ele>
        <time>2011-04-16T11:03:54Z</time>
      </trkpt>
      <trkpt lat="48.01566" lon="6.75342">
        <ele>505.109</ele>
        <time>2011-04-16T11:03:56Z</time>
      </trkpt>
      <trkpt lat="48.01558" lon="6.75329">
        <ele>503.18</ele>
        <time>2011-04-16T11:03:58Z</time>
      </trkpt>
      <trkpt lat="48.0155" lon="6.75318">
        <ele>501.905</ele>
        <time>2011-04-16T11:04:00Z</time>
      </trkpt>
      <trkpt lat="48.01539" lon="6.75307">
        <ele>498.622</ele>
        <time>2011-04-16T11:04:02Z</time>
      </trkpt>
      <trkpt lat="48.01533" lon="6.75301">
        <ele>498.619</ele>
        <time>2011-04-16T11:04:03Z</time>
      </trkpt>
      <trkpt lat="48.01526" lon="6.75295">
        <ele>495.202</ele>
        <time>2011-04-16T11:04:04Z</time>
      </trkpt>
      <trkpt lat="48.01519" lon="6.7529">
        <ele>495.199</ele>
        <time>2011-04-16T11:04:05Z</time>
      </trkpt>
      <trkpt lat="48.01504" lon="6.75279">
        <ele>493.405</ele>
        <time>2011-04-16T11:04:07Z</time>
      </trkpt>
      <trkpt lat="48.01473" lon="6.75257">
        <ele>488.933</ele>
        <time>2011-04-16T11:04:11Z</time>
      </trkpt>
      <trkpt lat="48.01465" lon="6.75253">
        <ele>488.93</ele>
        <time>2011-04-16T11:04:12Z</time>
      </trkpt>
      <trkpt lat="48.01445" lon="6.75244">
        <ele>487.877</ele>
        <time>2011-04-16T11:04:15Z</time>
      </trkpt>
      <trkpt lat="48.01443" lon="6.75217">
        <ele>486.92</ele>
        <time>2011-04-16T11:04:21Z</time>
      </trkpt>
      <trkpt lat="48.0145" lon="6.75207">
        <ele>485.624</ele>
        <time>2011-04-16T11:04:23Z</time>
      </trkpt>
      <trkpt lat="48.01453" lon="6.75186">
        <ele>484.518</ele>
        <time>2011-04-16T11:04:28Z</time>
      </trkpt>
      <trkpt lat="48.01453" lon="6.75178">
        <ele>484.384</ele>
        <time>2011-04-16T11:04:31Z</time>
      </trkpt>
      <trkpt lat="48.01456" lon="6.75175">
        <ele>483.869</ele>
        <time>2011-04-16T11:04:46Z</time>
      </trkpt>
      <trkpt lat="48.01458" lon="6.7517">
        <ele>482.979</ele>
        <time>2011-04-16T11:05:25Z</time>
      </trkpt>
      <trkpt lat="48.01467" lon="6.75157">
        <ele>481.994</ele>
        <time>2011-04-16T11:05:29Z</time>
      </trkpt>
      <trkpt lat="48.01479" lon="6.75147">
        <ele>480.944</ele>
        <time>2011-04-16T11:05:33Z</time>
      </trkpt>
      <trkpt lat="48.01496" lon="6.75154">
        <ele>478.004</ele>
        <time>2011-04-16T11:05:38Z</time>
      </trkpt>
      <trkpt lat="48.01503" lon="6.75153">
        <ele>476.762</ele>
        <time>2011-04-16T11:05:40Z</time>
      </trkpt>
      <trkpt lat="48.01514" lon="6.75152">
        <ele>475.052</ele>
        <time>2011-04-16T11:05:42Z</time>
      </trkpt>
      <trkpt lat="48.0152" lon="6.7515">
        <ele>473.315</ele>
        <time>2011-04-16T11:05:43Z</time>
      </trkpt>
      <trkpt lat="48.01528" lon="6.75144">
        <ele>472.158</ele>
        <time>2011-04-16T11:05:45Z</time>
      </trkpt>
      <trkpt lat="48.01584" lon="6.75111">
        <ele>468.574</ele>
        <time>2011-04-16T11:05:53Z</time>
      </trkpt>
      <trkpt lat="48.01602" lon="6.75101">
        <ele>468.196</ele>
        <time>2011-04-16T11:05:56Z</time>
      </trkpt>
      <trkpt lat="48.01665" lon="6.75132">
        <ele>465.97</ele>
        <time>2011-04-16T11:06:05Z</time>
      </trkpt>
      <trkpt lat="48.01682" lon="6.75142">
        <ele>463.423</ele>
        <time>2011-04-16T11:06:08Z</time>
      </trkpt>
      <trkpt lat="48.01693" lon="6.75149">
        <ele>462.442</ele>
        <time>2011-04-16T11:06:10Z</time>
      </trkpt>
      <trkpt lat="48.01728" lon="6.75149">
        <ele>458.773</ele>
        <time>2011-04-16T11:06:15Z</time>
      </trkpt>
      <trkpt lat="48.01791" lon="6.75122">
        <ele>455.408</ele>
        <time>2011-04-16T11:06:25Z</time>
      </trkpt>
      <trkpt lat="48.01806" lon="6.75104">
        <ele>453.656</ele>
        <time>2011-04-16T11:06:29Z</time>
      </trkpt>
      <trkpt lat="48.01805" lon="6.75085">
        <ele>451.535</ele>
        <time>2011-04-16T11:06:31Z</time>
      </trkpt>
      <trkpt lat="48.018" lon="6.75063">
        <ele>449.831</ele>
        <time>2011-04-16T11:06:33Z</time>
      </trkpt>
      <trkpt lat="48.01796" lon="6.75052">
        <ele>448.513</ele>
        <time>2011-04-16T11:06:34Z</time>
      </trkpt>
      <trkpt lat="48.01786" lon="6.75021">
        <ele>446.633</ele>
        <time>2011-04-16T11:06:37Z</time>
      </trkpt>
      <trkpt lat="48.01792" lon="6.74981">
        <ele>445.558</ele>
        <time>2011-04-16T11:06:42Z</time>
      </trkpt>
      <trkpt lat="48.01802" lon="6.74968">
        <ele>443.857</ele>
        <time>2011-04-16T11:06:44Z</time>
      </trkpt>
      <trkpt lat="48.01808" lon="6.74927">
        <ele>442.844</ele>
        <time>2011-04-16T11:06:51Z</time>
      </trkpt>
      <trkpt lat="48.01781" lon="6.74887">
        <ele>442.945</ele>
        <time>2011-04-16T11:06:59Z</time>
      </trkpt>
      <trkpt lat="48.01759" lon="6.74851">
        <ele>443.527</ele>
        <time>2011-04-16T11:07:10Z</time>
      </trkpt>
      <trkpt lat="48.01725" lon="6.74812">
        <ele>442.528</ele>
        <time>2011-04-16T11:07:16Z</time>
      </trkpt>
      <trkpt lat="48.01724" lon="6.74776">
        <ele>442.696</ele>
        <time>2011-04-16T11:07:22Z</time>
      </trkpt>
      <trkpt lat="48.01709" lon="6.74653">
        <ele>441.624</ele>
        <time>2011-04-16T11:07:36Z</time>
      </trkpt>
      <trkpt lat="48.01721" lon="6.74626">
        <ele>442.405</ele>
        <time>2011-04-16T11:07:41Z</time>
      </trkpt>
      <trkpt lat="48.01731" lon="6.74621">
        <ele>442.053</ele>
        <time>2011-04-16T11:07:46Z</time>
      </trkpt>
      <trkpt lat="48.01725" lon="6.74623">
        <ele>442.592</ele>
        <time>2011-04-16T11:07:53Z</time>
      </trkpt>
      <trkpt lat="48.01725" lon="6.74624">
        <ele>442.658</ele>
        <time>2011-04-16T11:08:07Z</time>
      </trkpt>
      <trkpt lat="48.01728" lon="6.74624">
        <ele>442.656</ele>
        <time>2011-04-16T11:08:26Z</time>
      </trkpt>
      <trkpt lat="48.01729" lon="6.74624">
        <ele>442.705</ele>
        <time>2011-04-16T11:08:43Z</time>
      </trkpt>
      <trkpt lat="48.01733" lon="6.74625">
        <ele>442.043</ele>
        <time>2011-04-16T11:09:03Z</time>
      </trkpt>
      <trkpt lat="48.01731" lon="6.7463">
        <ele>441.644</ele>
        <time>2011-04-16T11:56:15Z</time>
      </trkpt>
      <trkpt lat="48.01731" lon="6.7463">
        <ele>438.592</ele>
        <time>2011-04-16T11:56:44Z</time>
      </trkpt>
      <trkpt lat="48.01728" lon="6.74628">
        <ele>437.556</ele>
        <time>2011-04-16T12:01:30Z</time>
      </trkpt>
      <trkpt lat="48.01728" lon="6.74627">
        <ele>436.968</ele>
        <time>2011-04-16T12:02:36Z</time>
      </trkpt>
      <trkpt lat="48.01729" lon="6.74626">
        <ele>436.736</ele>
        <time>2011-04-16T12:03:00Z</time>
      </trkpt>
      <trkpt lat="48.01729" lon="6.74619">
        <ele>436.808</ele>
        <time>2011-04-16T12:03:31Z</time>
      </trkpt>
      <trkpt lat="48.01728" lon="6.74621">
        <ele>437.009</ele>
        <time>2011-04-16T12:03:51Z</time>
      </trkpt>
      <trkpt lat="48.01728" lon="6.74621">
        <ele>436.836</ele>
        <time>2011-04-16T12:04:19Z</time>
      </trkpt>
      <trkpt lat="48.01729" lon="6.74617">
        <ele>436.723</ele>
        <time>2011-04-16T12:04:22Z</time>
      </trkpt>
      <trkpt lat="48.01753" lon="6.74575">
        <ele>435.29</ele>
        <time>2011-04-16T12:04:33Z</time>
      </trkpt>
      <trkpt lat="48.01821" lon="6.74479">
        <ele>434.557</ele>
        <time>2011-04-16T12:04:51Z</time>
      </trkpt>
      <trkpt lat="48.01832" lon="6.74457">
        <ele>434.987</ele>
        <time>2011-04-16T12:04:55Z</time>
      </trkpt>
      <trkpt lat="48.01842" lon="6.74432">
        <ele>436.022</ele>
        <time>2011-04-16T12:05:00Z</time>
      </trkpt>
      <trkpt lat="48.01842" lon="6.74362">
        <ele>439.137</ele>
        <time>2011-04-16T12:05:13Z</time>
      </trkpt>
      <trkpt lat="48.01838" lon="6.74319">
        <ele>442.382</ele>
        <time>2011-04-16T12:05:23Z</time>
      </trkpt>
      <trkpt lat="48.01827" lon="6.74267">
        <ele>445.085</ele>
        <time>2011-04-16T12:05:37Z</time>
      </trkpt>
      <trkpt lat="48.01811" lon="6.74213">
        <ele>443.789</ele>
        <time>2011-04-16T12:05:49Z</time>
      </trkpt>
      <trkpt lat="48.01786" lon="6.74145">
        <ele>443.125</ele>
        <time>2011-04-16T12:06:02Z</time>
      </trkpt>
      <trkpt lat="48.01781" lon="6.741">
        <ele>443.266</ele>
        <time>2011-04-16T12:06:10Z</time>
      </trkpt>
      <trkpt lat="48.01784" lon="6.74083">
        <ele>443.631</ele>
        <time>2011-04-16T12:06:13Z</time>
      </trkpt>
      <trkpt lat="48.01782" lon="6.74085">
        <ele>443.974</ele>
        <time>2011-04-16T12:06:19Z</time>
      </trkpt>
      <trkpt lat="48.01781" lon="6.74088">
        <ele>443.332</ele>
        <time>2011-04-16T12:06:23Z</time>
      </trkpt>
      <trkpt lat="48.0178" lon="6.74082">
        <ele>442.973</ele>
        <time>2011-04-16T12:06:26Z</time>
      </trkpt>
      <trkpt lat="48.01779" lon="6.7407">
        <ele>441.688</ele>
        <time>2011-04-16T12:06:29Z</time>
      </trkpt>
      <trkpt lat="48.01778" lon="6.7406">
        <ele>441.03</ele>
        <time>2011-04-16T12:06:38Z</time>
      </trkpt>
      <trkpt lat="48.01767" lon="6.74029">
        <ele>438.847</ele>
        <time>2011-04-16T12:07:10Z</time>
      </trkpt>
      <trkpt lat="48.01752" lon="6.73974">
        <ele>434.949</ele>
        <time>2011-04-16T12:07:19Z</time>
      </trkpt>
      <trkpt lat="48.01751" lon="6.73971">
        <ele>434.95</ele>
        <time>2011-04-16T12:07:20Z</time>
      </trkpt>
      <trkpt lat="48.0175" lon="6.73968">
        <ele>434.921</ele>
        <time>2011-04-16T12:07:21Z</time>
      </trkpt>
      <trkpt lat="48.01744" lon="6.73955">
        <ele>434.195</ele>
        <time>2011-04-16T12:07:34Z</time>
      </trkpt>
      <trkpt lat="48.01741" lon="6.73945">
        <ele>434.308</ele>
        <time>2011-04-16T12:07:49Z</time>
      </trkpt>
      <trkpt lat="48.01739" lon="6.73938">
        <ele>433.826</ele>
        <time>2011-04-16T12:07:55Z</time>
      </trkpt>
      <trkpt lat="48.01733" lon="6.73912">
        <ele>432.958</ele>
        <time>2011-04-16T12:08:02Z</time>
      </trkpt>
      <trkpt lat="48.01729" lon="6.73882">
        <ele>432.275</ele>
        <time>2011-04-16T12:08:07Z</time>
      </trkpt>
      <trkpt lat="48.01725" lon="6.73811">
        <ele>431.663</ele>
        <time>2011-04-16T12:08:15Z</time>
      </trkpt>
      <trkpt lat="48.01717" lon="6.73773">
        <ele>430.854</ele>
        <time>2011-04-16T12:08:20Z</time>
      </trkpt>
      <trkpt lat="48.01715" lon="6.73754">
        <ele>429.384</ele>
        <time>2011-04-16T12:08:22Z</time>
      </trkpt>
      <trkpt lat="48.0171" lon="6.73699">
        <ele>426.541</ele>
        <time>2011-04-16T12:08:27Z</time>
      </trkpt>
      <trkpt lat="48.01704" lon="6.73643">
        <ele>425.191</ele>
        <time>2011-04-16T12:08:32Z</time>
      </trkpt>
      <trkpt lat="48.01703" lon="6.73608">
        <ele>425.453</ele>
        <time>2011-04-16T12:08:35Z</time>
      </trkpt>
      <trkpt lat="48.01695" lon="6.73489">
        <ele>424.293</ele>
        <time>2011-04-16T12:08:46Z</time>
      </trkpt>
      <trkpt lat="48.01693" lon="6.73468">
        <ele>424.755</ele>
        <time>2011-04-16T12:08:48Z</time>
      </trkpt>
      <trkpt lat="48.01694" lon="6.73434">
        <ele>423.55</ele>
        <time>2011-04-16T12:08:51Z</time>
      </trkpt>
      <trkpt lat="48.01688" lon="6.73391">
        <ele>423.822</ele>
        <time>2011-04-16T12:08:55Z</time>
      </trkpt>
      <trkpt lat="48.01685" lon="6.73373">
        <ele>424.715</ele>
        <time>2011-04-16T12:08:57Z</time>
      </trkpt>
      <trkpt lat="48.01683" lon="6.73234">
        <ele>423.954</ele>
        <time>2011-04-16T12:09:11Z</time>
      </trkpt>
      <trkpt lat="48.01679" lon="6.73101">
        <ele>420.507</ele>
        <time>2011-04-16T12:09:24Z</time>
      </trkpt>
      <trkpt lat="48.01678" lon="6.73069">
        <ele>420.006</ele>
        <time>2011-04-16T12:09:27Z</time>
      </trkpt>
      <trkpt lat="48.01686" lon="6.73008">
        <ele>419.987</ele>
        <time>2011-04-16T12:09:33Z</time>
      </trkpt>
      <trkpt lat="48.01692" lon="6.72993">
        <ele>419.678</ele>
        <time>2011-04-16T12:09:35Z</time>
      </trkpt>
      <trkpt lat="48.01697" lon="6.72968">
        <ele>422.003</ele>
        <time>2011-04-16T12:09:39Z</time>
      </trkpt>
      <trkpt lat="48.01699" lon="6.72955">
        <ele>423.314</ele>
        <time>2011-04-16T12:09:41Z</time>
      </trkpt>
      <trkpt lat="48.01702" lon="6.72933">
        <ele>425.482</ele>
        <time>2011-04-16T12:09:46Z</time>
      </trkpt>
      <trkpt lat="48.01718" lon="6.72877">
        <ele>426.571</ele>
        <time>2011-04-16T12:09:59Z</time>
      </trkpt>
      <trkpt lat="48.0174" lon="6.72796">
        <ele>426.131</ele>
        <time>2011-04-16T12:10:16Z</time>
      </trkpt>
      <trkpt lat="48.01747" lon="6.72767">
        <ele>425.869</ele>
        <time>2011-04-16T12:10:22Z</time>
      </trkpt>
      <trkpt lat="48.0176" lon="6.72749">
        <ele>425.94</ele>
        <time>2011-04-16T12:10:26Z</time>
      </trkpt>
      <trkpt lat="48.01774" lon="6.72725">
        <ele>426.006</ele>
        <time>2011-04-16T12:10:31Z</time>
      </trkpt>
      <trkpt lat="48.01782" lon="6.72712">
        <ele>425.997</ele>
        <time>2011-04-16T12:10:34Z</time>
      </trkpt>
      <trkpt lat="48.01809" lon="6.72661">
        <ele>427.562</ele>
        <time>2011-04-16T12:10:46Z</time>
      </trkpt>
      <trkpt lat="48.01842" lon="6.72615">
        <ele>430.547</ele>
        <time>2011-04-16T12:11:01Z</time>
      </trkpt>
      <trkpt lat="48.01853" lon="6.72591">
        <ele>428.987</ele>
        <time>2011-04-16T12:11:07Z</time>
      </trkpt>
      <trkpt lat="48.01856" lon="6.72563">
        <ele>427.103</ele>
        <time>2011-04-16T12:11:11Z</time>
      </trkpt>
      <trkpt lat="48.01857" lon="6.72549">
        <ele>422.364</ele>
        <time>2011-04-16T12:11:13Z</time>
      </trkpt>
      <trkpt lat="48.01858" lon="6.72516">
        <ele>422.284</ele>
        <time>2011-04-16T12:11:17Z</time>
      </trkpt>
      <trkpt lat="48.01861" lon="6.72498">
        <ele>422.718</ele>
        <time>2011-04-16T12:11:19Z</time>
      </trkpt>
      <trkpt lat="48.01862" lon="6.72469">
        <ele>423.215</ele>
        <time>2011-04-16T12:11:23Z</time>
      </trkpt>
      <trkpt lat="48.01867" lon="6.72411">
        <ele>423.761</ele>
        <time>2011-04-16T12:11:32Z</time>
      </trkpt>
      <trkpt lat="48.01874" lon="6.72375">
        <ele>420.651</ele>
        <time>2011-04-16T12:11:37Z</time>
      </trkpt>
      <trkpt lat="48.01884" lon="6.72343">
        <ele>420.288</ele>
        <time>2011-04-16T12:11:41Z</time>
      </trkpt>
      <trkpt lat="48.01881" lon="6.72283">
        <ele>420.228</ele>
        <time>2011-04-16T12:11:51Z</time>
      </trkpt>
      <trkpt lat="48.01889" lon="6.72221">
        <ele>419.951</ele>
        <time>2011-04-16T12:12:00Z</time>
      </trkpt>
      <trkpt lat="48.01893" lon="6.72163">
        <ele>418.719</ele>
        <time>2011-04-16T12:12:09Z</time>
      </trkpt>
      <trkpt lat="48.01898" lon="6.72116">
        <ele>420.617</ele>
        <time>2011-04-16T12:12:21Z</time>
      </trkpt>
      <trkpt lat="48.019" lon="6.72087">
        <ele>418.609</ele>
        <time>2011-04-16T12:12:28Z</time>
      </trkpt>
      <trkpt lat="48.01906" lon="6.72026">
        <ele>418.885</ele>
        <time>2011-04-16T12:12:39Z</time>
      </trkpt>
      <trkpt lat="48.0191" lon="6.71959">
        <ele>419.863</ele>
        <time>2011-04-16T12:12:52Z</time>
      </trkpt>
      <trkpt lat="48.0191" lon="6.71937">
        <ele>418.844</ele>
        <time>2011-04-16T12:12:56Z</time>
      </trkpt>
      <trkpt lat="48.01915" lon="6.71891">
        <ele>419.209</ele>
        <time>2011-04-16T12:13:03Z</time>
      </trkpt>
      <trkpt lat="48.01923" lon="6.71852">
        <ele>418.785</ele>
        <time>2011-04-16T12:13:09Z</time>
      </trkpt>
      <trkpt lat="48.01929" lon="6.71832">
        <ele>418.44</ele>
        <time>2011-04-16T12:13:12Z</time>
      </trkpt>
      <trkpt lat="48.01936" lon="6.71815">
        <ele>418.336</ele>
        <time>2011-04-16T12:13:15Z</time>
      </trkpt>
      <trkpt lat="48.01962" lon="6.71777">
        <ele>417.455</ele>
        <time>2011-04-16T12:13:25Z</time>
      </trkpt>
      <trkpt lat="48.01975" lon="6.71761">
        <ele>416.693</ele>
        <time>2011-04-16T12:13:28Z</time>
      </trkpt>
      <trkpt lat="48.01996" lon="6.71701">
        <ele>417.007</ele>
        <time>2011-04-16T12:13:39Z</time>
      </trkpt>
      <trkpt lat="48.02006" lon="6.71654">
        <ele>414.736</ele>
        <time>2011-04-16T12:13:46Z</time>
      </trkpt>
      <trkpt lat="48.02013" lon="6.71615">
        <ele>413.123</ele>
        <time>2011-04-16T12:13:51Z</time>
      </trkpt>
      <trkpt lat="48.02013" lon="6.71595">
        <ele>414.257</ele>
        <time>2011-04-16T12:13:59Z</time>
      </trkpt>
      <trkpt lat="48.02012" lon="6.71594">
        <ele>414.514</ele>
        <time>2011-04-16T12:14:02Z</time>
      </trkpt>
      <trkpt lat="48.02003" lon="6.71589">
        <ele>414.371</ele>
        <time>2011-04-16T12:14:06Z</time>
      </trkpt>
      <trkpt lat="48.01982" lon="6.71587">
        <ele>411.52</ele>
        <time>2011-04-16T12:14:11Z</time>
      </trkpt>
      <trkpt lat="48.01955" lon="6.71575">
        <ele>410.159</ele>
        <time>2011-04-16T12:14:15Z</time>
      </trkpt>
      <trkpt lat="48.01943" lon="6.71565">
        <ele>409.403</ele>
        <time>2011-04-16T12:14:17Z</time>
      </trkpt>
      <trkpt lat="48.01918" lon="6.71546">
        <ele>409.519</ele>
        <time>2011-04-16T12:14:21Z</time>
      </trkpt>
      <trkpt lat="48.01894" lon="6.7153">
        <ele>409.724</ele>
        <time>2011-04-16T12:14:26Z</time>
      </trkpt>
      <trkpt lat="48.01885" lon="6.7153">
        <ele>408.142</ele>
        <time>2011-04-16T12:14:28Z</time>
      </trkpt>
      <trkpt lat="48.01848" lon="6.71527">
        <ele>409.704</ele>
        <time>2011-04-16T12:14:33Z</time>
      </trkpt>
      <trkpt lat="48.01819" lon="6.71527">
        <ele>409.671</ele>
        <time>2011-04-16T12:14:37Z</time>
      </trkpt>
      <trkpt lat="48.01812" lon="6.71512">
        <ele>409.32</ele>
        <time>2011-04-16T12:14:40Z</time>
      </trkpt>
      <trkpt lat="48.01824" lon="6.7148">
        <ele>409.69</ele>
        <time>2011-04-16T12:14:45Z</time>
      </trkpt>
      <trkpt lat="48.01846" lon="6.71455">
        <ele>409.313</ele>
        <time>2011-04-16T12:14:50Z</time>
      </trkpt>
      <trkpt lat="48.01858" lon="6.71428">
        <ele>409.259</ele>
        <time>2011-04-16T12:14:54Z</time>
      </trkpt>
      <trkpt lat="48.01858" lon="6.71415">
        <ele>409.909</ele>
        <time>2011-04-16T12:14:56Z</time>
      </trkpt>
      <trkpt lat="48.01863" lon="6.71397">
        <ele>410.902</ele>
        <time>2011-04-16T12:15:00Z</time>
      </trkpt>
      <trkpt lat="48.01871" lon="6.71386">
        <ele>409.626</ele>
        <time>2011-04-16T12:15:03Z</time>
      </trkpt>
      <trkpt lat="48.01874" lon="6.71381">
        <ele>409.244</ele>
        <time>2011-04-16T12:15:04Z</time>
      </trkpt>
      <trkpt lat="48.01895" lon="6.71348">
        <ele>407.066</ele>
        <time>2011-04-16T12:15:10Z</time>
      </trkpt>
      <trkpt lat="48.01906" lon="6.7133">
        <ele>406.581</ele>
        <time>2011-04-16T12:15:13Z</time>
      </trkpt>
      <trkpt lat="48.01914" lon="6.71301">
        <ele>406.621</ele>
        <time>2011-04-16T12:15:17Z</time>
      </trkpt>
      <trkpt lat="48.01924" lon="6.71282">
        <ele>406.876</ele>
        <time>2011-04-16T12:15:22Z</time>
      </trkpt>
      <trkpt lat="48.01936" lon="6.71285">
        <ele>406.656</ele>
        <time>2011-04-16T12:15:25Z</time>
      </trkpt>
      <trkpt lat="48.01951" lon="6.71293">
        <ele>406.186</ele>
        <time>2011-04-16T12:15:28Z</time>
      </trkpt>
      <trkpt lat="48.02025" lon="6.71301">
        <ele>406.772</ele>
        <time>2011-04-16T12:15:44Z</time>
      </trkpt>
      <trkpt lat="48.02118" lon="6.71308">
        <ele>406.99</ele>
        <time>2011-04-16T12:15:57Z</time>
      </trkpt>
      <trkpt lat="48.02114" lon="6.71327">
        <ele>406.859</ele>
        <time>2011-04-16T12:16:03Z</time>
      </trkpt>
      <trkpt lat="48.02118" lon="6.71293">
        <ele>405.454</ele>
        <time>2011-04-16T12:16:08Z</time>
      </trkpt>
      <trkpt lat="48.02126" lon="6.71216">
        <ele>404.211</ele>
        <time>2011-04-16T12:16:18Z</time>
      </trkpt>
      <trkpt lat="48.02122" lon="6.71101">
        <ele>401.9</ele>
        <time>2011-04-16T12:16:33Z</time>
      </trkpt>
      <trkpt lat="48.02122" lon="6.71089">
        <ele>401.575</ele>
        <time>2011-04-16T12:16:35Z</time>
      </trkpt>
      <trkpt lat="48.02144" lon="6.71076">
        <ele>402.085</ele>
        <time>2011-04-16T12:16:40Z</time>
      </trkpt>
      <trkpt lat="48.02164" lon="6.71081">
        <ele>402.516</ele>
        <time>2011-04-16T12:16:44Z</time>
      </trkpt>
      <trkpt lat="48.02176" lon="6.71084">
        <ele>402.49</ele>
        <time>2011-04-16T12:16:47Z</time>
      </trkpt>
      <trkpt lat="48.02188" lon="6.71088">
        <ele>402.963</ele>
        <time>2011-04-16T12:16:50Z</time>
      </trkpt>
      <trkpt lat="48.02214" lon="6.71079">
        <ele>403.013</ele>
        <time>2011-04-16T12:16:56Z</time>
      </trkpt>
      <trkpt lat="48.02237" lon="6.71069">
        <ele>404.674</ele>
        <time>2011-04-16T12:17:01Z</time>
      </trkpt>
      <trkpt lat="48.02276" lon="6.71015">
        <ele>407.832</ele>
        <time>2011-04-16T12:17:16Z</time>
      </trkpt>
      <trkpt lat="48.02323" lon="6.70996">
        <ele>411.334</ele>
        <time>2011-04-16T12:17:30Z</time>
      </trkpt>
      <trkpt lat="48.02419" lon="6.70987">
        <ele>412.553</ele>
        <time>2011-04-16T12:17:54Z</time>
      </trkpt>
      <trkpt lat="48.02458" lon="6.70948">
        <ele>412.859</ele>
        <time>2011-04-16T12:18:06Z</time>
      </trkpt>
      <trkpt lat="48.02477" lon="6.70922">
        <ele>415.252</ele>
        <time>2011-04-16T12:18:13Z</time>
      </trkpt>
      <trkpt lat="48.02498" lon="6.70916">
        <ele>417.254</ele>
        <time>2011-04-16T12:18:20Z</time>
      </trkpt>
      <trkpt lat="48.02535" lon="6.70894">
        <ele>420.622</ele>
        <time>2011-04-16T12:18:35Z</time>
      </trkpt>
      <trkpt lat="48.0255" lon="6.7084">
        <ele>423.478</ele>
        <time>2011-04-16T12:18:48Z</time>
      </trkpt>
      <trkpt lat="48.02569" lon="6.70796">
        <ele>426.54</ele>
        <time>2011-04-16T12:19:02Z</time>
      </trkpt>
      <trkpt lat="48.02577" lon="6.70795">
        <ele>430.187</ele>
        <time>2011-04-16T12:19:16Z</time>
      </trkpt>
      <trkpt lat="48.02577" lon="6.70795">
        <ele>433.449</ele>
        <time>2011-04-16T12:19:25Z</time>
      </trkpt>
      <trkpt lat="48.02577" lon="6.70795">
        <ele>434.949</ele>
        <time>2011-04-16T12:19:30Z</time>
      </trkpt>
      <trkpt lat="48.02577" lon="6.70795">
        <ele>436.332</ele>
        <time>2011-04-16T12:19:34Z</time>
      </trkpt>
      <trkpt lat="48.02637" lon="6.70721">
        <ele>438.425</ele>
        <time>2011-04-16T12:19:46Z</time>
      </trkpt>
      <trkpt lat="48.02673" lon="6.7069">
        <ele>440.578</ele>
        <time>2011-04-16T12:20:05Z</time>
      </trkpt>
      <trkpt lat="48.02688" lon="6.70679">
        <ele>439.042</ele>
        <time>2011-04-16T12:20:09Z</time>
      </trkpt>
      <trkpt lat="48.02713" lon="6.7067">
        <ele>441.896</ele>
        <time>2011-04-16T12:20:19Z</time>
      </trkpt>
      <trkpt lat="48.02741" lon="6.70656">
        <ele>444.184</ele>
        <time>2011-04-16T12:20:33Z</time>
      </trkpt>
      <trkpt lat="48.0276" lon="6.70599">
        <ele>446.191</ele>
        <time>2011-04-16T12:20:51Z</time>
      </trkpt>
      <trkpt lat="48.02766" lon="6.70566">
        <ele>447.039</ele>
        <time>2011-04-16T12:21:06Z</time>
      </trkpt>
      <trkpt lat="48.02773" lon="6.70536">
        <ele>446.339</ele>
        <time>2011-04-16T12:21:34Z</time>
      </trkpt>
      <trkpt lat="48.02797" lon="6.70442">
        <ele>445.635</ele>
        <time>2011-04-16T12:21:52Z</time>
      </trkpt>
      <trkpt lat="48.02798" lon="6.70435">
        <ele>445.632</ele>
        <time>2011-04-16T12:21:53Z</time>
      </trkpt>
      <trkpt lat="48.02803" lon="6.70407">
        <ele>445.755</ele>
        <time>2011-04-16T12:21:58Z</time>
      </trkpt>
      <trkpt lat="48.02814" lon="6.70382">
        <ele>446.817</ele>
        <time>2011-04-16T12:22:06Z</time>
      </trkpt>
      <trkpt lat="48.02816" lon="6.70373">
        <ele>448.288</ele>
        <time>2011-04-16T12:22:09Z</time>
      </trkpt>
      <trkpt lat="48.02831" lon="6.70321">
        <ele>448.974</ele>
        <time>2011-04-16T12:22:21Z</time>
      </trkpt>
      <trkpt lat="48.02847" lon="6.70257">
        <ele>450.291</ele>
        <time>2011-04-16T12:22:35Z</time>
      </trkpt>
      <trkpt lat="48.02857" lon="6.7019">
        <ele>451.319</ele>
        <time>2011-04-16T12:22:49Z</time>
      </trkpt>
      <trkpt lat="48.02877" lon="6.70132">
        <ele>450.632</ele>
        <time>2011-04-16T12:23:02Z</time>
      </trkpt>
      <trkpt lat="48.02885" lon="6.70111">
        <ele>452.449</ele>
        <time>2011-04-16T12:23:10Z</time>
      </trkpt>
      <trkpt lat="48.02901" lon="6.70092">
        <ele>452.939</ele>
        <time>2011-04-16T12:23:19Z</time>
      </trkpt>
      <trkpt lat="48.02905" lon="6.70084">
        <ele>452.136</ele>
        <time>2011-04-16T12:23:21Z</time>
      </trkpt>
      <trkpt lat="48.02932" lon="6.70016">
        <ele>449.997</ele>
        <time>2011-04-16T12:23:33Z</time>
      </trkpt>
      <trkpt lat="48.02935" lon="6.7001">
        <ele>449.995</ele>
        <time>2011-04-16T12:23:34Z</time>
      </trkpt>
      <trkpt lat="48.02939" lon="6.69988">
        <ele>448.399</ele>
        <time>2011-04-16T12:23:37Z</time>
      </trkpt>
      <trkpt lat="48.0294" lon="6.69979">
        <ele>447.2</ele>
        <time>2011-04-16T12:23:38Z</time>
      </trkpt>
      <trkpt lat="48.02951" lon="6.69953">
        <ele>447.564</ele>
        <time>2011-04-16T12:23:42Z</time>
      </trkpt>
      <trkpt lat="48.02967" lon="6.69916">
        <ele>447.837</ele>
        <time>2011-04-16T12:23:49Z</time>
      </trkpt>
      <trkpt lat="48.02984" lon="6.69856">
        <ele>447.018</ele>
        <time>2011-04-16T12:23:58Z</time>
      </trkpt>
      <trkpt lat="48.02988" lon="6.69831">
        <ele>446.807</ele>
        <time>2011-04-16T12:24:03Z</time>
      </trkpt>
      <trkpt lat="48.02993" lon="6.69815">
        <ele>445.704</ele>
        <time>2011-04-16T12:24:05Z</time>
      </trkpt>
      <trkpt lat="48.03" lon="6.69799">
        <ele>444.104</ele>
        <time>2011-04-16T12:24:07Z</time>
      </trkpt>
      <trkpt lat="48.03003" lon="6.69792">
        <ele>443.705</ele>
        <time>2011-04-16T12:24:08Z</time>
      </trkpt>
      <trkpt lat="48.03" lon="6.69748">
        <ele>442.12</ele>
        <time>2011-04-16T12:24:15Z</time>
      </trkpt>
      <trkpt lat="48.02995" lon="6.69733">
        <ele>442.111</ele>
        <time>2011-04-16T12:24:17Z</time>
      </trkpt>
      <trkpt lat="48.03006" lon="6.69676">
        <ele>443.327</ele>
        <time>2011-04-16T12:24:25Z</time>
      </trkpt>
      <trkpt lat="48.03021" lon="6.69637">
        <ele>442.561</ele>
        <time>2011-04-16T12:24:31Z</time>
      </trkpt>
      <trkpt lat="48.03046" lon="6.69586">
        <ele>442.986</ele>
        <time>2011-04-16T12:24:39Z</time>
      </trkpt>
      <trkpt lat="48.03056" lon="6.69572">
        <ele>443.289</ele>
        <time>2011-04-16T12:24:42Z</time>
      </trkpt>
      <trkpt lat="48.03073" lon="6.69547">
        <ele>443.001</ele>
        <time>2011-04-16T12:24:47Z</time>
      </trkpt>
      <trkpt lat="48.03082" lon="6.69533">
        <ele>443.549</ele>
        <time>2011-04-16T12:24:50Z</time>
      </trkpt>
      <trkpt lat="48.03095" lon="6.69503">
        <ele>442.832</ele>
        <time>2011-04-16T12:24:55Z</time>
      </trkpt>
      <trkpt lat="48.03127" lon="6.69467">
        <ele>443.837</ele>
        <time>2011-04-16T12:25:05Z</time>
      </trkpt>
      <trkpt lat="48.0313" lon="6.69464">
        <ele>444.308</ele>
        <time>2011-04-16T12:25:06Z</time>
      </trkpt>
      <trkpt lat="48.03148" lon="6.69442">
        <ele>443.593</ele>
        <time>2011-04-16T12:25:13Z</time>
      </trkpt>
      <trkpt lat="48.0316" lon="6.69393">
        <ele>443.597</ele>
        <time>2011-04-16T12:25:23Z</time>
      </trkpt>
      <trkpt lat="48.03168" lon="6.69366">
        <ele>443.733</ele>
        <time>2011-04-16T12:25:29Z</time>
      </trkpt>
      <trkpt lat="48.03193" lon="6.69314">
        <ele>443.753</ele>
        <time>2011-04-16T12:25:37Z</time>
      </trkpt>
      <trkpt lat="48.03217" lon="6.69261">
        <ele>443.723</ele>
        <time>2011-04-16T12:25:46Z</time>
      </trkpt>
      <trkpt lat="48.0324" lon="6.6921">
        <ele>443.06</ele>
        <time>2011-04-16T12:25:54Z</time>
      </trkpt>
      <trkpt lat="48.03264" lon="6.69147">
        <ele>443.063</ele>
        <time>2011-04-16T12:26:05Z</time>
      </trkpt>
      <trkpt lat="48.03286" lon="6.691">
        <ele>443.087</ele>
        <time>2011-04-16T12:26:13Z</time>
      </trkpt>
      <trkpt lat="48.033" lon="6.69051">
        <ele>442.712</ele>
        <time>2011-04-16T12:26:20Z</time>
      </trkpt>
      <trkpt lat="48.03309" lon="6.69028">
        <ele>442.362</ele>
        <time>2011-04-16T12:26:24Z</time>
      </trkpt>
      <trkpt lat="48.03355" lon="6.68931">
        <ele>439.75</ele>
        <time>2011-04-16T12:26:40Z</time>
      </trkpt>
      <trkpt lat="48.03386" lon="6.68862">
        <ele>441.262</ele>
        <time>2011-04-16T12:26:53Z</time>
      </trkpt>
      <trkpt lat="48.03388" lon="6.68856">
        <ele>441.26</ele>
        <time>2011-04-16T12:26:54Z</time>
      </trkpt>
      <trkpt lat="48.03395" lon="6.68838">
        <ele>443.019</ele>
        <time>2011-04-16T12:27:00Z</time>
      </trkpt>
      <trkpt lat="48.03395" lon="6.68839">
        <ele>442.965</ele>
        <time>2011-04-16T12:27:09Z</time>
      </trkpt>
      <trkpt lat="48.03396" lon="6.68842">
        <ele>443.48</ele>
        <time>2011-04-16T12:27:20Z</time>
      </trkpt>
      <trkpt lat="48.03397" lon="6.68842">
        <ele>443.466</ele>
        <time>2011-04-16T12:27:29Z</time>
      </trkpt>
      <trkpt lat="48.03408" lon="6.68833">
        <ele>445.061</ele>
        <time>2011-04-16T12:27:38Z</time>
      </trkpt>
      <trkpt lat="48.03415" lon="6.68823">
        <ele>445.282</ele>
        <time>2011-04-16T12:27:42Z</time>
      </trkpt>
      <trkpt lat="48.03437" lon="6.68801">
        <ele>446.681</ele>
        <time>2011-04-16T12:27:53Z</time>
      </trkpt>
      <trkpt lat="48.03452" lon="6.68791">
        <ele>448.224</ele>
        <time>2011-04-16T12:28:00Z</time>
      </trkpt>
      <trkpt lat="48.03455" lon="6.68787">
        <ele>448.656</ele>
        <time>2011-04-16T12:28:03Z</time>
      </trkpt>
      <trkpt lat="48.03471" lon="6.68779">
        <ele>451.64</ele>
        <time>2011-04-16T12:28:15Z</time>
      </trkpt>
      <trkpt lat="48.03474" lon="6.68778">
        <ele>452.468</ele>
        <time>2011-04-16T12:28:17Z</time>
      </trkpt>
      <trkpt lat="48.03486" lon="6.68773">
        <ele>455.861</ele>
        <time>2011-04-16T12:28:34Z</time>
      </trkpt>
      <trkpt lat="48.03488" lon="6.68769">
        <ele>456.229</ele>
        <time>2011-04-16T12:28:38Z</time>
      </trkpt>
      <trkpt lat="48.03489" lon="6.68763">
        <ele>457.323</ele>
        <time>2011-04-16T12:28:53Z</time>
      </trkpt>
      <trkpt lat="48.03491" lon="6.68761">
        <ele>457.007</ele>
        <time>2011-04-16T12:28:55Z</time>
      </trkpt>
      <trkpt lat="48.03492" lon="6.68759">
        <ele>457.746</ele>
        <time>2011-04-16T12:28:57Z</time>
      </trkpt>
      <trkpt lat="48.03493" lon="6.68755">
        <ele>458.533</ele>
        <time>2011-04-16T12:28:59Z</time>
      </trkpt>
      <trkpt lat="48.03503" lon="6.68742">
        <ele>458.495</ele>
        <time>2011-04-16T12:29:09Z</time>
      </trkpt>
      <trkpt lat="48.03518" lon="6.68729">
        <ele>458.549</ele>
        <time>2011-04-16T12:29:19Z</time>
      </trkpt>
      <trkpt lat="48.03522" lon="6.68721">
        <ele>458.552</ele>
        <time>2011-04-16T12:30:35Z</time>
      </trkpt>
      <trkpt lat="48.03526" lon="6.68708">
        <ele>458.955</ele>
        <time>2011-04-16T12:30:40Z</time>
      </trkpt>
      <trkpt lat="48.03538" lon="6.68681">
        <ele>459.495</ele>
        <time>2011-04-16T12:30:49Z</time>
      </trkpt>
      <trkpt lat="48.03542" lon="6.68667">
        <ele>459.005</ele>
        <time>2011-04-16T12:30:52Z</time>
      </trkpt>
      <trkpt lat="48.03553" lon="6.68659">
        <ele>458.811</ele>
        <time>2011-04-16T12:30:55Z</time>
      </trkpt>
      <trkpt lat="48.03585" lon="6.68632">
        <ele>459.129</ele>
        <time>2011-04-16T12:31:04Z</time>
      </trkpt>
      <trkpt lat="48.0363" lon="6.68576">
        <ele>456.782</ele>
        <time>2011-04-16T12:31:18Z</time>
      </trkpt>
      <trkpt lat="48.03651" lon="6.68564">
        <ele>454.069</ele>
        <time>2011-04-16T12:31:22Z</time>
      </trkpt>
      <trkpt lat="48.03693" lon="6.68553">
        <ele>451.963</ele>
        <time>2011-04-16T12:31:28Z</time>
      </trkpt>
      <trkpt lat="48.03707" lon="6.68549">
        <ele>452.873</ele>
        <time>2011-04-16T12:31:31Z</time>
      </trkpt>
      <trkpt lat="48.03713" lon="6.68569">
        <ele>451.322</ele>
        <time>2011-04-16T12:31:37Z</time>
      </trkpt>
      <trkpt lat="48.03707" lon="6.68585">
        <ele>450.639</ele>
        <time>2011-04-16T12:31:40Z</time>
      </trkpt>
      <trkpt lat="48.0369" lon="6.68608">
        <ele>450.147</ele>
        <time>2011-04-16T12:31:45Z</time>
      </trkpt>
      <trkpt lat="48.03685" lon="6.68633">
        <ele>451.328</ele>
        <time>2011-04-16T12:31:50Z</time>
      </trkpt>
      <trkpt lat="48.03693" lon="6.68658">
        <ele>450.207</ele>
        <time>2011-04-16T12:31:55Z</time>
      </trkpt>
      <trkpt lat="48.0372" lon="6.68671">
        <ele>451.502</ele>
        <time>2011-04-16T12:32:05Z</time>
      </trkpt>
      <trkpt lat="48.03747" lon="6.68643">
        <ele>452.699</ele>
        <time>2011-04-16T12:32:16Z</time>
      </trkpt>
      <trkpt lat="48.03772" lon="6.68616">
        <ele>454.237</ele>
        <time>2011-04-16T12:32:27Z</time>
      </trkpt>
      <trkpt lat="48.03798" lon="6.68582">
        <ele>452.794</ele>
        <time>2011-04-16T12:32:37Z</time>
      </trkpt>
      <trkpt lat="48.03804" lon="6.6857">
        <ele>451.206</ele>
        <time>2011-04-16T12:32:39Z</time>
      </trkpt>
      <trkpt lat="48.03808" lon="6.68565">
        <ele>450.783</ele>
        <time>2011-04-16T12:32:40Z</time>
      </trkpt>
      <trkpt lat="48.03817" lon="6.68558">
        <ele>451.034</ele>
        <time>2011-04-16T12:32:42Z</time>
      </trkpt>
      <trkpt lat="48.03872" lon="6.68523">
        <ele>453.056</ele>
        <time>2011-04-16T12:32:57Z</time>
      </trkpt>
      <trkpt lat="48.03928" lon="6.68501">
        <ele>454.413</ele>
        <time>2011-04-16T12:33:14Z</time>
      </trkpt>
      <trkpt lat="48.03968" lon="6.68467">
        <ele>458.088</ele>
        <time>2011-04-16T12:33:29Z</time>
      </trkpt>
      <trkpt lat="48.0397" lon="6.68466">
        <ele>458.088</ele>
        <time>2011-04-16T12:33:30Z</time>
      </trkpt>
      <trkpt lat="48.03996" lon="6.68465">
        <ele>461.908</ele>
        <time>2011-04-16T12:33:44Z</time>
      </trkpt>
      <trkpt lat="48.04019" lon="6.68474">
        <ele>465.124</ele>
        <time>2011-04-16T12:33:58Z</time>
      </trkpt>
      <trkpt lat="48.04051" lon="6.68478">
        <ele>467.317</ele>
        <time>2011-04-16T12:34:14Z</time>
      </trkpt>
      <trkpt lat="48.04086" lon="6.68462">
        <ele>469.179</ele>
        <time>2011-04-16T12:34:34Z</time>
      </trkpt>
      <trkpt lat="48.04092" lon="6.68459">
        <ele>470.974</ele>
        <time>2011-04-16T12:34:37Z</time>
      </trkpt>
      <trkpt lat="48.04093" lon="6.68459">
        <ele>471.208</ele>
        <time>2011-04-16T12:34:38Z</time>
      </trkpt>
      <trkpt lat="48.04104" lon="6.68456">
        <ele>472.882</ele>
        <time>2011-04-16T12:34:45Z</time>
      </trkpt>
      <trkpt lat="48.04125" lon="6.68448">
        <ele>476.095</ele>
        <time>2011-04-16T12:34:57Z</time>
      </trkpt>
      <trkpt lat="48.04126" lon="6.68447">
        <ele>476.093</ele>
        <time>2011-04-16T12:34:58Z</time>
      </trkpt>
      <trkpt lat="48.04145" lon="6.68441">
        <ele>477.953</ele>
        <time>2011-04-16T12:35:10Z</time>
      </trkpt>
      <trkpt lat="48.04152" lon="6.6844">
        <ele>479.044</ele>
        <time>2011-04-16T12:35:15Z</time>
      </trkpt>
      <trkpt lat="48.04155" lon="6.68443">
        <ele>479.226</ele>
        <time>2011-04-16T12:35:18Z</time>
      </trkpt>
      <trkpt lat="48.04157" lon="6.68444">
        <ele>479.261</ele>
        <time>2011-04-16T12:35:20Z</time>
      </trkpt>
      <trkpt lat="48.04175" lon="6.68449">
        <ele>482.579</ele>
        <time>2011-04-16T12:35:34Z</time>
      </trkpt>
      <trkpt lat="48.04176" lon="6.68449">
        <ele>482.578</ele>
        <time>2011-04-16T12:35:35Z</time>
      </trkpt>
      <trkpt lat="48.04191" lon="6.68458">
        <ele>485.604</ele>
        <time>2011-04-16T12:35:50Z</time>
      </trkpt>
      <trkpt lat="48.04205" lon="6.68474">
        <ele>488.838</ele>
        <time>2011-04-16T12:36:06Z</time>
      </trkpt>
      <trkpt lat="48.04211" lon="6.68481">
        <ele>490.438</ele>
        <time>2011-04-16T12:36:12Z</time>
      </trkpt>
      <trkpt lat="48.04227" lon="6.68495">
        <ele>493.508</ele>
        <time>2011-04-16T12:36:27Z</time>
      </trkpt>
      <trkpt lat="48.04229" lon="6.68496">
        <ele>493.971</ele>
        <time>2011-04-16T12:36:47Z</time>
      </trkpt>
      <trkpt lat="48.04229" lon="6.68497">
        <ele>494.227</ele>
        <time>2011-04-16T12:37:26Z</time>
      </trkpt>
      <trkpt lat="48.04234" lon="6.68502">
        <ele>494.036</ele>
        <time>2011-04-16T12:37:30Z</time>
      </trkpt>
      <trkpt lat="48.04241" lon="6.68524">
        <ele>496.893</ele>
        <time>2011-04-16T12:37:40Z</time>
      </trkpt>
      <trkpt lat="48.0424" lon="6.6853">
        <ele>498.019</ele>
        <time>2011-04-16T12:37:43Z</time>
      </trkpt>
      <trkpt lat="48.04236" lon="6.68547">
        <ele>500.008</ele>
        <time>2011-04-16T12:37:52Z</time>
      </trkpt>
      <trkpt lat="48.04232" lon="6.68555">
        <ele>501.15</ele>
        <time>2011-04-16T12:37:58Z</time>
      </trkpt>
      <trkpt lat="48.04228" lon="6.68562">
        <ele>502.182</ele>
        <time>2011-04-16T12:38:03Z</time>
      </trkpt>
      <trkpt lat="48.04221" lon="6.68573">
        <ele>503.434</ele>
        <time>2011-04-16T12:38:11Z</time>
      </trkpt>
      <trkpt lat="48.04209" lon="6.68591">
        <ele>506.833</ele>
        <time>2011-04-16T12:38:23Z</time>
      </trkpt>
      <trkpt lat="48.04185" lon="6.68606">
        <ele>509.515</ele>
        <time>2011-04-16T12:38:38Z</time>
      </trkpt>
      <trkpt lat="48.04153" lon="6.68598">
        <ele>512.069</ele>
        <time>2011-04-16T12:38:54Z</time>
      </trkpt>
      <trkpt lat="48.04132" lon="6.68591">
        <ele>512.251</ele>
        <time>2011-04-16T12:39:08Z</time>
      </trkpt>
      <trkpt lat="48.04133" lon="6.68596">
        <ele>511.926</ele>
        <time>2011-04-16T12:40:25Z</time>
      </trkpt>
      <trkpt lat="48.04131" lon="6.68596">
        <ele>511.941</ele>
        <time>2011-04-16T12:40:53Z</time>
      </trkpt>
      <trkpt lat="48.0413" lon="6.68596">
        <ele>511.545</ele>
        <time>2011-04-16T12:41:17Z</time>
      </trkpt>
      <trkpt lat="48.0413" lon="6.68596">
        <ele>511.319</ele>
        <time>2011-04-16T12:41:22Z</time>
      </trkpt>
      <trkpt lat="48.04129" lon="6.68597">
        <ele>511.225</ele>
        <time>2011-04-16T12:41:41Z</time>
      </trkpt>
      <trkpt lat="48.04128" lon="6.68598">
        <ele>511.168</ele>
        <time>2011-04-16T12:41:46Z</time>
      </trkpt>
      <trkpt lat="48.04119" lon="6.68602">
        <ele>511.233</ele>
        <time>2011-04-16T12:41:52Z</time>
      </trkpt>
      <trkpt lat="48.04097" lon="6.68622">
        <ele>511.025</ele>
        <time>2011-04-16T12:42:03Z</time>
      </trkpt>
      <trkpt lat="48.04088" lon="6.68626">
        <ele>510.848</ele>
        <time>2011-04-16T12:42:06Z</time>
      </trkpt>
      <trkpt lat="48.04054" lon="6.68649">
        <ele>509.621</ele>
        <time>2011-04-16T12:42:14Z</time>
      </trkpt>
      <trkpt lat="48.04023" lon="6.68667">
        <ele>510.147</ele>
        <time>2011-04-16T12:42:21Z</time>
      </trkpt>
      <trkpt lat="48.03995" lon="6.68682">
        <ele>510.864</ele>
        <time>2011-04-16T12:42:28Z</time>
      </trkpt>
      <trkpt lat="48.03952" lon="6.6872">
        <ele>510.898</ele>
        <time>2011-04-16T12:42:39Z</time>
      </trkpt>
      <trkpt lat="48.03925" lon="6.68764">
        <ele>514.208</ele>
        <time>2011-04-16T12:42:53Z</time>
      </trkpt>
      <trkpt lat="48.03914" lon="6.68797">
        <ele>517.421</ele>
        <time>2011-04-16T12:43:05Z</time>
      </trkpt>
      <trkpt lat="48.03907" lon="6.68819">
        <ele>520.015</ele>
        <time>2011-04-16T12:43:14Z</time>
      </trkpt>
      <trkpt lat="48.03903" lon="6.6883">
        <ele>521.28</ele>
        <time>2011-04-16T12:43:20Z</time>
      </trkpt>
      <trkpt lat="48.03903" lon="6.68835">
        <ele>521.554</ele>
        <time>2011-04-16T12:43:22Z</time>
      </trkpt>
      <trkpt lat="48.03901" lon="6.68838">
        <ele>522.578</ele>
        <time>2011-04-16T12:43:24Z</time>
      </trkpt>
      <trkpt lat="48.03896" lon="6.6887">
        <ele>525.773</ele>
        <time>2011-04-16T12:43:38Z</time>
      </trkpt>
      <trkpt lat="48.03896" lon="6.68872">
        <ele>525.78</ele>
        <time>2011-04-16T12:43:39Z</time>
      </trkpt>
      <trkpt lat="48.03885" lon="6.689">
        <ele>528.99</ele>
        <time>2011-04-16T12:43:54Z</time>
      </trkpt>
      <trkpt lat="48.03873" lon="6.68944">
        <ele>532.182</ele>
        <time>2011-04-16T12:44:12Z</time>
      </trkpt>
      <trkpt lat="48.03854" lon="6.68986">
        <ele>535.207</ele>
        <time>2011-04-16T12:44:31Z</time>
      </trkpt>
      <trkpt lat="48.03832" lon="6.69017">
        <ele>537.34</ele>
        <time>2011-04-16T12:44:46Z</time>
      </trkpt>
      <trkpt lat="48.03826" lon="6.69025">
        <ele>537.828</ele>
        <time>2011-04-16T12:44:50Z</time>
      </trkpt>
      <trkpt lat="48.03815" lon="6.69034">
        <ele>537.627</ele>
        <time>2011-04-16T12:44:55Z</time>
      </trkpt>
      <trkpt lat="48.03797" lon="6.69051">
        <ele>538.468</ele>
        <time>2011-04-16T12:45:04Z</time>
      </trkpt>
      <trkpt lat="48.03757" lon="6.69081">
        <ele>538.973</ele>
        <time>2011-04-16T12:45:18Z</time>
      </trkpt>
      <trkpt lat="48.03746" lon="6.69093">
        <ele>539.739</ele>
        <time>2011-04-16T12:45:23Z</time>
      </trkpt>
      <trkpt lat="48.03713" lon="6.69123">
        <ele>541.582</ele>
        <time>2011-04-16T12:45:36Z</time>
      </trkpt>
      <trkpt lat="48.03681" lon="6.69159">
        <ele>542.303</ele>
        <time>2011-04-16T12:45:50Z</time>
      </trkpt>
      <trkpt lat="48.03673" lon="6.69167">
        <ele>542.767</ele>
        <time>2011-04-16T12:45:54Z</time>
      </trkpt>
      <trkpt lat="48.03663" lon="6.69177">
        <ele>544.887</ele>
        <time>2011-04-16T12:46:00Z</time>
      </trkpt>
      <trkpt lat="48.03659" lon="6.69181">
        <ele>545.391</ele>
        <time>2011-04-16T12:46:02Z</time>
      </trkpt>
      <trkpt lat="48.0364" lon="6.69197">
        <ele>549.164</ele>
        <time>2011-04-16T12:46:16Z</time>
      </trkpt>
      <trkpt lat="48.03639" lon="6.69199">
        <ele>549.5</ele>
        <time>2011-04-16T12:46:17Z</time>
      </trkpt>
      <trkpt lat="48.03622" lon="6.69217">
        <ele>551.789</ele>
        <time>2011-04-16T12:46:31Z</time>
      </trkpt>
      <trkpt lat="48.03621" lon="6.69221">
        <ele>551.959</ele>
        <time>2011-04-16T12:46:33Z</time>
      </trkpt>
      <trkpt lat="48.03613" lon="6.69231">
        <ele>553.241</ele>
        <time>2011-04-16T12:46:40Z</time>
      </trkpt>
      <trkpt lat="48.03602" lon="6.69242">
        <ele>554.984</ele>
        <time>2011-04-16T12:46:48Z</time>
      </trkpt>
      <trkpt lat="48.03598" lon="6.69249">
        <ele>556.425</ele>
        <time>2011-04-16T12:46:52Z</time>
      </trkpt>
      <trkpt lat="48.0359" lon="6.69258">
        <ele>557.579</ele>
        <time>2011-04-16T12:46:58Z</time>
      </trkpt>
      <trkpt lat="48.03576" lon="6.69276">
        <ele>559.283</ele>
        <time>2011-04-16T12:47:10Z</time>
      </trkpt>
      <trkpt lat="48.03575" lon="6.69288">
        <ele>559.759</ele>
        <time>2011-04-16T12:47:16Z</time>
      </trkpt>
      <trkpt lat="48.03576" lon="6.69292">
        <ele>559.869</ele>
        <time>2011-04-16T12:47:18Z</time>
      </trkpt>
      <trkpt lat="48.0358" lon="6.69295">
        <ele>560.65</ele>
        <time>2011-04-16T12:47:22Z</time>
      </trkpt>
      <trkpt lat="48.03605" lon="6.69294">
        <ele>563.631</ele>
        <time>2011-04-16T12:47:41Z</time>
      </trkpt>
      <trkpt lat="48.03606" lon="6.69295">
        <ele>563.631</ele>
        <time>2011-04-16T12:47:42Z</time>
      </trkpt>
      <trkpt lat="48.03608" lon="6.69303">
        <ele>563.977</ele>
        <time>2011-04-16T12:47:46Z</time>
      </trkpt>
      <trkpt lat="48.03586" lon="6.69317">
        <ele>565.197</ele>
        <time>2011-04-16T12:48:00Z</time>
      </trkpt>
      <trkpt lat="48.03551" lon="6.6933">
        <ele>567.271</ele>
        <time>2011-04-16T12:48:15Z</time>
      </trkpt>
      <trkpt lat="48.03523" lon="6.69369">
        <ele>567.945</ele>
        <time>2011-04-16T12:48:28Z</time>
      </trkpt>
      <trkpt lat="48.03494" lon="6.69428">
        <ele>568.654</ele>
        <time>2011-04-16T12:48:47Z</time>
      </trkpt>
      <trkpt lat="48.03481" lon="6.69496">
        <ele>570.679</ele>
        <time>2011-04-16T12:49:07Z</time>
      </trkpt>
      <trkpt lat="48.03473" lon="6.69533">
        <ele>573.77</ele>
        <time>2011-04-16T12:49:20Z</time>
      </trkpt>
      <trkpt lat="48.03467" lon="6.69538">
        <ele>574.627</ele>
        <time>2011-04-16T12:49:23Z</time>
      </trkpt>
      <trkpt lat="48.03439" lon="6.69557">
        <ele>576.852</ele>
        <time>2011-04-16T12:49:39Z</time>
      </trkpt>
      <trkpt lat="48.03429" lon="6.69566">
        <ele>577.444</ele>
        <time>2011-04-16T12:49:45Z</time>
      </trkpt>
      <trkpt lat="48.03412" lon="6.69596">
        <ele>578.956</ele>
        <time>2011-04-16T12:49:58Z</time>
      </trkpt>
      <trkpt lat="48.03403" lon="6.69612">
        <ele>580.079</ele>
        <time>2011-04-16T12:50:04Z</time>
      </trkpt>
      <trkpt lat="48.03391" lon="6.69644">
        <ele>581.604</ele>
        <time>2011-04-16T12:50:16Z</time>
      </trkpt>
      <trkpt lat="48.03395" lon="6.69695">
        <ele>584.753</ele>
        <time>2011-04-16T12:50:34Z</time>
      </trkpt>
      <trkpt lat="48.03397" lon="6.69715">
        <ele>586.163</ele>
        <time>2011-04-16T12:50:44Z</time>
      </trkpt>
      <trkpt lat="48.03401" lon="6.69731">
        <ele>587.318</ele>
        <time>2011-04-16T12:50:52Z</time>
      </trkpt>
      <trkpt lat="48.03404" lon="6.69748">
        <ele>588.612</ele>
        <time>2011-04-16T12:50:59Z</time>
      </trkpt>
      <trkpt lat="48.03412" lon="6.69791">
        <ele>592.233</ele>
        <time>2011-04-16T12:51:18Z</time>
      </trkpt>
      <trkpt lat="48.03414" lon="6.69801">
        <ele>593.118</ele>
        <time>2011-04-16T12:51:23Z</time>
      </trkpt>
      <trkpt lat="48.03417" lon="6.69817">
        <ele>594.442</ele>
        <time>2011-04-16T12:51:37Z</time>
      </trkpt>
      <trkpt lat="48.03421" lon="6.69823">
        <ele>595.408</ele>
        <time>2011-04-16T12:52:11Z</time>
      </trkpt>
      <trkpt lat="48.03429" lon="6.69816">
        <ele>596.13</ele>
        <time>2011-04-16T12:52:16Z</time>
      </trkpt>
      <trkpt lat="48.0343" lon="6.69781">
        <ele>599.182</ele>
        <time>2011-04-16T12:52:30Z</time>
      </trkpt>
      <trkpt lat="48.03432" lon="6.69778">
        <ele>599.4</ele>
        <time>2011-04-16T12:52:32Z</time>
      </trkpt>
      <trkpt lat="48.03438" lon="6.69779">
        <ele>600.509</ele>
        <time>2011-04-16T12:52:36Z</time>
      </trkpt>
      <trkpt lat="48.03451" lon="6.69815">
        <ele>603.539</ele>
        <time>2011-04-16T12:52:53Z</time>
      </trkpt>
      <trkpt lat="48.03445" lon="6.69866">
        <ele>605.078</ele>
        <time>2011-04-16T12:53:10Z</time>
      </trkpt>
      <trkpt lat="48.03438" lon="6.69886">
        <ele>604.572</ele>
        <time>2011-04-16T12:53:23Z</time>
      </trkpt>
      <trkpt lat="48.03438" lon="6.69886">
        <ele>605.176</ele>
        <time>2011-04-16T12:54:03Z</time>
      </trkpt>
      <trkpt lat="48.03438" lon="6.69887">
        <ele>605.514</ele>
        <time>2011-04-16T12:56:32Z</time>
      </trkpt>
      <trkpt lat="48.03438" lon="6.69886">
        <ele>605.24</ele>
        <time>2011-04-16T12:56:48Z</time>
      </trkpt>
      <trkpt lat="48.0344" lon="6.69887">
        <ele>605.4</ele>
        <time>2011-04-16T12:57:06Z</time>
      </trkpt>
      <trkpt lat="48.0344" lon="6.69886">
        <ele>605.144</ele>
        <time>2011-04-16T12:58:32Z</time>
      </trkpt>
      <trkpt lat="48.03437" lon="6.69888">
        <ele>604.943</ele>
        <time>2011-04-16T12:58:35Z</time>
      </trkpt>
      <trkpt lat="48.03445" lon="6.69892">
        <ele>605.758</ele>
        <time>2011-04-16T12:58:46Z</time>
      </trkpt>
      <trkpt lat="48.03447" lon="6.69886">
        <ele>607.019</ele>
        <time>2011-04-16T12:58:49Z</time>
      </trkpt>
      <trkpt lat="48.03462" lon="6.69861">
        <ele>610.234</ele>
        <time>2011-04-16T12:59:04Z</time>
      </trkpt>
      <trkpt lat="48.03474" lon="6.69848">
        <ele>613.507</ele>
        <time>2011-04-16T12:59:17Z</time>
      </trkpt>
      <trkpt lat="48.03476" lon="6.69845">
        <ele>613.687</ele>
        <time>2011-04-16T12:59:19Z</time>
      </trkpt>
      <trkpt lat="48.03489" lon="6.69836">
        <ele>616.771</ele>
        <time>2011-04-16T12:59:37Z</time>
      </trkpt>
      <trkpt lat="48.03499" lon="6.69822">
        <ele>619.894</ele>
        <time>2011-04-16T12:59:55Z</time>
      </trkpt>
      <trkpt lat="48.03502" lon="6.69822">
        <ele>620.467</ele>
        <time>2011-04-16T12:59:59Z</time>
      </trkpt>
      <trkpt lat="48.03505" lon="6.69817">
        <ele>621.267</ele>
        <time>2011-04-16T13:00:20Z</time>
      </trkpt>
      <trkpt lat="48.03511" lon="6.69812">
        <ele>622.803</ele>
        <time>2011-04-16T13:00:41Z</time>
      </trkpt>
      <trkpt lat="48.03525" lon="6.69802">
        <ele>624.291</ele>
        <time>2011-04-16T13:00:58Z</time>
      </trkpt>
      <trkpt lat="48.03541" lon="6.6979">
        <ele>626.054</ele>
        <time>2011-04-16T13:01:10Z</time>
      </trkpt>
      <trkpt lat="48.03557" lon="6.69765">
        <ele>629.576</ele>
        <time>2011-04-16T13:01:27Z</time>
      </trkpt>
      <trkpt lat="48.03565" lon="6.69742">
        <ele>630.686</ele>
        <time>2011-04-16T13:01:40Z</time>
      </trkpt>
      <trkpt lat="48.03574" lon="6.69704">
        <ele>631.047</ele>
        <time>2011-04-16T13:01:55Z</time>
      </trkpt>
      <trkpt lat="48.03585" lon="6.69661">
        <ele>632.043</ele>
        <time>2011-04-16T13:02:11Z</time>
      </trkpt>
      <trkpt lat="48.03607" lon="6.69631">
        <ele>632.758</ele>
        <time>2011-04-16T13:02:25Z</time>
      </trkpt>
      <trkpt lat="48.03618" lon="6.69621">
        <ele>633.338</ele>
        <time>2011-04-16T13:02:32Z</time>
      </trkpt>
      <trkpt lat="48.03629" lon="6.69612">
        <ele>633.938</ele>
        <time>2011-04-16T13:02:40Z</time>
      </trkpt>
      <trkpt lat="48.03634" lon="6.69607">
        <ele>634.387</ele>
        <time>2011-04-16T13:02:56Z</time>
      </trkpt>
      <trkpt lat="48.03635" lon="6.69607">
        <ele>634.304</ele>
        <time>2011-04-16T13:02:59Z</time>
      </trkpt>
      <trkpt lat="48.03658" lon="6.69584">
        <ele>634.866</ele>
        <time>2011-04-16T13:03:11Z</time>
      </trkpt>
      <trkpt lat="48.03681" lon="6.69558">
        <ele>635.388</ele>
        <time>2011-04-16T13:03:22Z</time>
      </trkpt>
      <trkpt lat="48.03708" lon="6.69532">
        <ele>635.278</ele>
        <time>2011-04-16T13:03:34Z</time>
      </trkpt>
      <trkpt lat="48.03746" lon="6.69512">
        <ele>635.917</ele>
        <time>2011-04-16T13:03:48Z</time>
      </trkpt>
      <trkpt lat="48.03782" lon="6.69479">
        <ele>636.131</ele>
        <time>2011-04-16T13:04:03Z</time>
      </trkpt>
      <trkpt lat="48.03825" lon="6.69441">
        <ele>637.394</ele>
        <time>2011-04-16T13:04:19Z</time>
      </trkpt>
      <trkpt lat="48.03829" lon="6.69437">
        <ele>637.681</ele>
        <time>2011-04-16T13:04:21Z</time>
      </trkpt>
      <trkpt lat="48.03864" lon="6.69407">
        <ele>637.25</ele>
        <time>2011-04-16T13:04:34Z</time>
      </trkpt>
      <trkpt lat="48.0389" lon="6.69409">
        <ele>638.426</ele>
        <time>2011-04-16T13:04:44Z</time>
      </trkpt>
      <trkpt lat="48.03903" lon="6.69419">
        <ele>639.172</ele>
        <time>2011-04-16T13:04:51Z</time>
      </trkpt>
      <trkpt lat="48.03903" lon="6.69425">
        <ele>639.625</ele>
        <time>2011-04-16T13:04:53Z</time>
      </trkpt>
      <trkpt lat="48.03903" lon="6.69432">
        <ele>640.822</ele>
        <time>2011-04-16T13:04:56Z</time>
      </trkpt>
      <trkpt lat="48.03897" lon="6.69445">
        <ele>642.091</ele>
        <time>2011-04-16T13:05:04Z</time>
      </trkpt>
      <trkpt lat="48.03887" lon="6.69463">
        <ele>644.555</ele>
        <time>2011-04-16T13:05:15Z</time>
      </trkpt>
      <trkpt lat="48.03876" lon="6.69478">
        <ele>647.983</ele>
        <time>2011-04-16T13:05:30Z</time>
      </trkpt>
      <trkpt lat="48.03872" lon="6.69489">
        <ele>648.626</ele>
        <time>2011-04-16T13:05:46Z</time>
      </trkpt>
      <trkpt lat="48.03865" lon="6.69494">
        <ele>649.976</ele>
        <time>2011-04-16T13:05:54Z</time>
      </trkpt>
      <trkpt lat="48.03864" lon="6.69495">
        <ele>650.208</ele>
        <time>2011-04-16T13:05:56Z</time>
      </trkpt>
      <trkpt lat="48.03859" lon="6.69502">
        <ele>651.888</ele>
        <time>2011-04-16T13:06:11Z</time>
      </trkpt>
      <trkpt lat="48.03846" lon="6.69509">
        <ele>653.305</ele>
        <time>2011-04-16T13:06:27Z</time>
      </trkpt>
      <trkpt lat="48.03843" lon="6.6951">
        <ele>653.72</ele>
        <time>2011-04-16T13:06:29Z</time>
      </trkpt>
      <trkpt lat="48.03827" lon="6.69531">
        <ele>656.378</ele>
        <time>2011-04-16T13:06:43Z</time>
      </trkpt>
      <trkpt lat="48.03824" lon="6.69535">
        <ele>656.708</ele>
        <time>2011-04-16T13:06:45Z</time>
      </trkpt>
      <trkpt lat="48.03817" lon="6.69544">
        <ele>657.553</ele>
        <time>2011-04-16T13:06:52Z</time>
      </trkpt>
      <trkpt lat="48.03805" lon="6.69556">
        <ele>658.565</ele>
        <time>2011-04-16T13:07:01Z</time>
      </trkpt>
      <trkpt lat="48.03798" lon="6.69563">
        <ele>658.93</ele>
        <time>2011-04-16T13:07:08Z</time>
      </trkpt>
      <trkpt lat="48.03797" lon="6.69562">
        <ele>659.129</ele>
        <time>2011-04-16T13:07:18Z</time>
      </trkpt>
      <trkpt lat="48.03788" lon="6.6957">
        <ele>659.763</ele>
        <time>2011-04-16T13:07:24Z</time>
      </trkpt>
      <trkpt lat="48.03776" lon="6.69589">
        <ele>662.191</ele>
        <time>2011-04-16T13:07:35Z</time>
      </trkpt>
      <trkpt lat="48.03771" lon="6.69597">
        <ele>662.423</ele>
        <time>2011-04-16T13:07:41Z</time>
      </trkpt>
      <trkpt lat="48.0375" lon="6.69618">
        <ele>664.658</ele>
        <time>2011-04-16T13:07:55Z</time>
      </trkpt>
      <trkpt lat="48.03742" lon="6.69639">
        <ele>666.008</ele>
        <time>2011-04-16T13:08:05Z</time>
      </trkpt>
      <trkpt lat="48.03739" lon="6.69644">
        <ele>666.622</ele>
        <time>2011-04-16T13:08:09Z</time>
      </trkpt>
      <trkpt lat="48.03726" lon="6.69662">
        <ele>668.065</ele>
        <time>2011-04-16T13:08:21Z</time>
      </trkpt>
      <trkpt lat="48.03722" lon="6.69671">
        <ele>669.152</ele>
        <time>2011-04-16T13:08:28Z</time>
      </trkpt>
      <trkpt lat="48.03718" lon="6.6968">
        <ele>669.903</ele>
        <time>2011-04-16T13:08:34Z</time>
      </trkpt>
      <trkpt lat="48.03717" lon="6.69687">
        <ele>671.01</ele>
        <time>2011-04-16T13:08:37Z</time>
      </trkpt>
      <trkpt lat="48.03713" lon="6.697">
        <ele>671.799</ele>
        <time>2011-04-16T13:08:42Z</time>
      </trkpt>
      <trkpt lat="48.03703" lon="6.69724">
        <ele>673.21</ele>
        <time>2011-04-16T13:08:54Z</time>
      </trkpt>
      <trkpt lat="48.03689" lon="6.69754">
        <ele>675.899</ele>
        <time>2011-04-16T13:09:09Z</time>
      </trkpt>
      <trkpt lat="48.03684" lon="6.69764">
        <ele>676.6</ele>
        <time>2011-04-16T13:09:15Z</time>
      </trkpt>
      <trkpt lat="48.03686" lon="6.69764">
        <ele>677.506</ele>
        <time>2011-04-16T13:09:30Z</time>
      </trkpt>
      <trkpt lat="48.03686" lon="6.69764">
        <ele>677.279</ele>
        <time>2011-04-16T13:12:19Z</time>
      </trkpt>
      <trkpt lat="48.03692" lon="6.69759">
        <ele>677.966</ele>
        <time>2011-04-16T13:12:24Z</time>
      </trkpt>
      <trkpt lat="48.037" lon="6.69754">
        <ele>679.182</ele>
        <time>2011-04-16T13:12:31Z</time>
      </trkpt>
      <trkpt lat="48.03702" lon="6.69753">
        <ele>679.086</ele>
        <time>2011-04-16T13:12:33Z</time>
      </trkpt>
      <trkpt lat="48.03718" lon="6.69745">
        <ele>680.953</ele>
        <time>2011-04-16T13:12:44Z</time>
      </trkpt>
      <trkpt lat="48.03734" lon="6.69738">
        <ele>683.277</ele>
        <time>2011-04-16T13:12:56Z</time>
      </trkpt>
      <trkpt lat="48.03746" lon="6.69736">
        <ele>686.359</ele>
        <time>2011-04-16T13:13:06Z</time>
      </trkpt>
      <trkpt lat="48.03755" lon="6.69735">
        <ele>687.771</ele>
        <time>2011-04-16T13:13:20Z</time>
      </trkpt>
      <trkpt lat="48.03757" lon="6.69738">
        <ele>688.208</ele>
        <time>2011-04-16T13:13:23Z</time>
      </trkpt>
      <trkpt lat="48.03772" lon="6.69739">
        <ele>690.376</ele>
        <time>2011-04-16T13:13:39Z</time>
      </trkpt>
      <trkpt lat="48.03786" lon="6.69739">
        <ele>693.133</ele>
        <time>2011-04-16T13:13:55Z</time>
      </trkpt>
      <trkpt lat="48.03794" lon="6.69734">
        <ele>693.218</ele>
        <time>2011-04-16T13:14:08Z</time>
      </trkpt>
      <trkpt lat="48.03795" lon="6.69733">
        <ele>693.311</ele>
        <time>2011-04-16T13:14:10Z</time>
      </trkpt>
      <trkpt lat="48.03807" lon="6.69725">
        <ele>691.366</ele>
        <time>2011-04-16T13:14:15Z</time>
      </trkpt>
      <trkpt lat="48.03831" lon="6.69708">
        <ele>692.457</ele>
        <time>2011-04-16T13:14:24Z</time>
      </trkpt>
      <trkpt lat="48.03838" lon="6.69704">
        <ele>693.356</ele>
        <time>2011-04-16T13:14:28Z</time>
      </trkpt>
      <trkpt lat="48.03856" lon="6.69686">
        <ele>695.768</ele>
        <time>2011-04-16T13:14:40Z</time>
      </trkpt>
      <trkpt lat="48.03864" lon="6.69687">
        <ele>696.997</ele>
        <time>2011-04-16T13:14:43Z</time>
      </trkpt>
      <trkpt lat="48.03871" lon="6.69692">
        <ele>698.659</ele>
        <time>2011-04-16T13:14:52Z</time>
      </trkpt>
      <trkpt lat="48.03879" lon="6.697">
        <ele>697.266</ele>
        <time>2011-04-16T13:16:48Z</time>
      </trkpt>
      <trkpt lat="48.03886" lon="6.69702">
        <ele>695.722</ele>
        <time>2011-04-16T13:16:50Z</time>
      </trkpt>
      <trkpt lat="48.03893" lon="6.69707">
        <ele>693.505</ele>
        <time>2011-04-16T13:16:52Z</time>
      </trkpt>
      <trkpt lat="48.03906" lon="6.69719">
        <ele>691.006</ele>
        <time>2011-04-16T13:16:55Z</time>
      </trkpt>
      <trkpt lat="48.03913" lon="6.69729">
        <ele>690.326</ele>
        <time>2011-04-16T13:16:57Z</time>
      </trkpt>
      <trkpt lat="48.03922" lon="6.69737">
        <ele>690.49</ele>
        <time>2011-04-16T13:16:59Z</time>
      </trkpt>
      <trkpt lat="48.03941" lon="6.69751">
        <ele>688.341</ele>
        <time>2011-04-16T13:17:02Z</time>
      </trkpt>
      <trkpt lat="48.03981" lon="6.69806">
        <ele>689.106</ele>
        <time>2011-04-16T13:17:11Z</time>
      </trkpt>
      <trkpt lat="48.03998" lon="6.69835">
        <ele>692.256</ele>
        <time>2011-04-16T13:17:19Z</time>
      </trkpt>
      <trkpt lat="48.04005" lon="6.69853">
        <ele>693.313</ele>
        <time>2011-04-16T13:17:25Z</time>
      </trkpt>
      <trkpt lat="48.04023" lon="6.69873">
        <ele>695.042</ele>
        <time>2011-04-16T13:17:36Z</time>
      </trkpt>
      <trkpt lat="48.04041" lon="6.69881">
        <ele>696.171</ele>
        <time>2011-04-16T13:17:44Z</time>
      </trkpt>
      <trkpt lat="48.04066" lon="6.69891">
        <ele>696.741</ele>
        <time>2011-04-16T13:17:55Z</time>
      </trkpt>
      <trkpt lat="48.04102" lon="6.69869">
        <ele>697.833</ele>
        <time>2011-04-16T13:18:12Z</time>
      </trkpt>
      <trkpt lat="48.04125" lon="6.69857">
        <ele>700.467</ele>
        <time>2011-04-16T13:18:26Z</time>
      </trkpt>
      <trkpt lat="48.04147" lon="6.69857">
        <ele>703.365</ele>
        <time>2011-04-16T13:18:41Z</time>
      </trkpt>
      <trkpt lat="48.04163" lon="6.69853">
        <ele>705.159</ele>
        <time>2011-04-16T13:18:53Z</time>
      </trkpt>
      <trkpt lat="48.04174" lon="6.69842">
        <ele>706.655</ele>
        <time>2011-04-16T13:19:03Z</time>
      </trkpt>
      <trkpt lat="48.04184" lon="6.69837">
        <ele>707.345</ele>
        <time>2011-04-16T13:19:10Z</time>
      </trkpt>
      <trkpt lat="48.04188" lon="6.69833">
        <ele>707.558</ele>
        <time>2011-04-16T13:19:13Z</time>
      </trkpt>
      <trkpt lat="48.04211" lon="6.69819">
        <ele>708.907</ele>
        <time>2011-04-16T13:19:28Z</time>
      </trkpt>
      <trkpt lat="48.04214" lon="6.69818">
        <ele>709.266</ele>
        <time>2011-04-16T13:19:30Z</time>
      </trkpt>
      <trkpt lat="48.04217" lon="6.69817">
        <ele>709.917</ele>
        <time>2011-04-16T13:19:33Z</time>
      </trkpt>
      <trkpt lat="48.04245" lon="6.69807">
        <ele>712.578</ele>
        <time>2011-04-16T13:19:52Z</time>
      </trkpt>
      <trkpt lat="48.0426" lon="6.69805">
        <ele>714.034</ele>
        <time>2011-04-16T13:20:02Z</time>
      </trkpt>
      <trkpt lat="48.04276" lon="6.69797">
        <ele>716.73</ele>
        <time>2011-04-16T13:20:12Z</time>
      </trkpt>
      <trkpt lat="48.04296" lon="6.69794">
        <ele>719.58</ele>
        <time>2011-04-16T13:20:28Z</time>
      </trkpt>
      <trkpt lat="48.04311" lon="6.69792">
        <ele>720.494</ele>
        <time>2011-04-16T13:20:39Z</time>
      </trkpt>
      <trkpt lat="48.04323" lon="6.69789">
        <ele>722.766</ele>
        <time>2011-04-16T13:20:49Z</time>
      </trkpt>
      <trkpt lat="48.04336" lon="6.69791">
        <ele>723.813</ele>
        <time>2011-04-16T13:20:59Z</time>
      </trkpt>
      <trkpt lat="48.04351" lon="6.69786">
        <ele>725.477</ele>
        <time>2011-04-16T13:21:10Z</time>
      </trkpt>
      <trkpt lat="48.0437" lon="6.69789">
        <ele>727.726</ele>
        <time>2011-04-16T13:21:24Z</time>
      </trkpt>
      <trkpt lat="48.04394" lon="6.69811">
        <ele>729.54</ele>
        <time>2011-04-16T13:21:41Z</time>
      </trkpt>
      <trkpt lat="48.04403" lon="6.69824">
        <ele>730.59</ele>
        <time>2011-04-16T13:21:51Z</time>
      </trkpt>
      <trkpt lat="48.04417" lon="6.69841">
        <ele>732.711</ele>
        <time>2011-04-16T13:22:05Z</time>
      </trkpt>
      <trkpt lat="48.04436" lon="6.69882">
        <ele>735.314</ele>
        <time>2011-04-16T13:22:28Z</time>
      </trkpt>
      <trkpt lat="48.04442" lon="6.69899">
        <ele>736.37</ele>
        <time>2011-04-16T13:22:35Z</time>
      </trkpt>
      <trkpt lat="48.04449" lon="6.69926">
        <ele>738.332</ele>
        <time>2011-04-16T13:22:47Z</time>
      </trkpt>
      <trkpt lat="48.04454" lon="6.69946">
        <ele>739.83</ele>
        <time>2011-04-16T13:22:56Z</time>
      </trkpt>
      <trkpt lat="48.04457" lon="6.69955">
        <ele>740.841</ele>
        <time>2011-04-16T13:23:01Z</time>
      </trkpt>
      <trkpt lat="48.0446" lon="6.69966">
        <ele>741.65</ele>
        <time>2011-04-16T13:23:07Z</time>
      </trkpt>
      <trkpt lat="48.04465" lon="6.6999">
        <ele>742.656</ele>
        <time>2011-04-16T13:23:19Z</time>
      </trkpt>
      <trkpt lat="48.04463" lon="6.70027">
        <ele>744.308</ele>
        <time>2011-04-16T13:23:32Z</time>
      </trkpt>
      <trkpt lat="48.04457" lon="6.70057">
        <ele>745.158</ele>
        <time>2011-04-16T13:23:41Z</time>
      </trkpt>
      <trkpt lat="48.04451" lon="6.70083">
        <ele>746.358</ele>
        <time>2011-04-16T13:23:51Z</time>
      </trkpt>
      <trkpt lat="48.04447" lon="6.70094">
        <ele>746.298</ele>
        <time>2011-04-16T13:23:55Z</time>
      </trkpt>
      <trkpt lat="48.04444" lon="6.70102">
        <ele>746.484</ele>
        <time>2011-04-16T13:23:58Z</time>
      </trkpt>
      <trkpt lat="48.0443" lon="6.70133">
        <ele>748.286</ele>
        <time>2011-04-16T13:24:10Z</time>
      </trkpt>
      <trkpt lat="48.04407" lon="6.70155">
        <ele>748.795</ele>
        <time>2011-04-16T13:24:21Z</time>
      </trkpt>
      <trkpt lat="48.04395" lon="6.70176">
        <ele>750.087</ele>
        <time>2011-04-16T13:24:30Z</time>
      </trkpt>
      <trkpt lat="48.04391" lon="6.70186">
        <ele>750.102</ele>
        <time>2011-04-16T13:24:33Z</time>
      </trkpt>
      <trkpt lat="48.04388" lon="6.70229">
        <ele>750.972</ele>
        <time>2011-04-16T13:24:47Z</time>
      </trkpt>
      <trkpt lat="48.04387" lon="6.70247">
        <ele>751.496</ele>
        <time>2011-04-16T13:24:52Z</time>
      </trkpt>
      <trkpt lat="48.04387" lon="6.70267">
        <ele>752.881</ele>
        <time>2011-04-16T13:24:59Z</time>
      </trkpt>
      <trkpt lat="48.04378" lon="6.70311">
        <ele>754.869</ele>
        <time>2011-04-16T13:25:14Z</time>
      </trkpt>
      <trkpt lat="48.0437" lon="6.70335">
        <ele>755.449</ele>
        <time>2011-04-16T13:25:23Z</time>
      </trkpt>
      <trkpt lat="48.04363" lon="6.70363">
        <ele>755.681</ele>
        <time>2011-04-16T13:25:33Z</time>
      </trkpt>
      <trkpt lat="48.04361" lon="6.70397">
        <ele>757.575</ele>
        <time>2011-04-16T13:25:42Z</time>
      </trkpt>
      <trkpt lat="48.04357" lon="6.70412">
        <ele>757.607</ele>
        <time>2011-04-16T13:25:46Z</time>
      </trkpt>
      <trkpt lat="48.04342" lon="6.70468">
        <ele>759.841</ele>
        <time>2011-04-16T13:26:00Z</time>
      </trkpt>
      <trkpt lat="48.04338" lon="6.70481">
        <ele>760.534</ele>
        <time>2011-04-16T13:26:04Z</time>
      </trkpt>
      <trkpt lat="48.04336" lon="6.70494">
        <ele>761.254</ele>
        <time>2011-04-16T13:26:09Z</time>
      </trkpt>
      <trkpt lat="48.04332" lon="6.70527">
        <ele>762.458</ele>
        <time>2011-04-16T13:26:21Z</time>
      </trkpt>
      <trkpt lat="48.04331" lon="6.70544">
        <ele>763.574</ele>
        <time>2011-04-16T13:26:27Z</time>
      </trkpt>
      <trkpt lat="48.04332" lon="6.70548">
        <ele>763.417</ele>
        <time>2011-04-16T13:26:29Z</time>
      </trkpt>
      <trkpt lat="48.04328" lon="6.70594">
        <ele>765.294</ele>
        <time>2011-04-16T13:26:44Z</time>
      </trkpt>
      <trkpt lat="48.04323" lon="6.70621">
        <ele>766.835</ele>
        <time>2011-04-16T13:26:54Z</time>
      </trkpt>
      <trkpt lat="48.04318" lon="6.70648">
        <ele>767.529</ele>
        <time>2011-04-16T13:27:03Z</time>
      </trkpt>
      <trkpt lat="48.04312" lon="6.70671">
        <ele>768.325</ele>
        <time>2011-04-16T13:27:12Z</time>
      </trkpt>
      <trkpt lat="48.04308" lon="6.70684">
        <ele>768.94</ele>
        <time>2011-04-16T13:27:17Z</time>
      </trkpt>
      <trkpt lat="48.04292" lon="6.70723">
        <ele>769.763</ele>
        <time>2011-04-16T13:27:32Z</time>
      </trkpt>
      <trkpt lat="48.04291" lon="6.70726">
        <ele>769.96</ele>
        <time>2011-04-16T13:27:33Z</time>
      </trkpt>
      <trkpt lat="48.04277" lon="6.70766">
        <ele>772.224</ele>
        <time>2011-04-16T13:27:47Z</time>
      </trkpt>
      <trkpt lat="48.04252" lon="6.70808">
        <ele>774.154</ele>
        <time>2011-04-16T13:28:03Z</time>
      </trkpt>
      <trkpt lat="48.04236" lon="6.70838">
        <ele>774.563</ele>
        <time>2011-04-16T13:28:17Z</time>
      </trkpt>
      <trkpt lat="48.04235" lon="6.70839">
        <ele>774.509</ele>
        <time>2011-04-16T13:28:33Z</time>
      </trkpt>
      <trkpt lat="48.04234" lon="6.7084">
        <ele>775.016</ele>
        <time>2011-04-16T13:29:45Z</time>
      </trkpt>
      <trkpt lat="48.04229" lon="6.70866">
        <ele>775.472</ele>
        <time>2011-04-16T13:31:15Z</time>
      </trkpt>
      <trkpt lat="48.04214" lon="6.70909">
        <ele>776.764</ele>
        <time>2011-04-16T13:31:28Z</time>
      </trkpt>
      <trkpt lat="48.04202" lon="6.70944">
        <ele>779.331</ele>
        <time>2011-04-16T13:31:41Z</time>
      </trkpt>
      <trkpt lat="48.04197" lon="6.70959">
        <ele>779.106</ele>
        <time>2011-04-16T13:31:45Z</time>
      </trkpt>
      <trkpt lat="48.04205" lon="6.71004">
        <ele>778.45</ele>
        <time>2011-04-16T13:31:58Z</time>
      </trkpt>
      <trkpt lat="48.04221" lon="6.71045">
        <ele>775.014</ele>
        <time>2011-04-16T13:32:04Z</time>
      </trkpt>
      <trkpt lat="48.04223" lon="6.71053">
        <ele>775.017</ele>
        <time>2011-04-16T13:32:05Z</time>
      </trkpt>
      <trkpt lat="48.04228" lon="6.71092">
        <ele>771.943</ele>
        <time>2011-04-16T13:32:09Z</time>
      </trkpt>
      <trkpt lat="48.04234" lon="6.71125">
        <ele>770.089</ele>
        <time>2011-04-16T13:32:12Z</time>
      </trkpt>
      <trkpt lat="48.04235" lon="6.71147">
        <ele>768.602</ele>
        <time>2011-04-16T13:32:14Z</time>
      </trkpt>
      <trkpt lat="48.04225" lon="6.7119">
        <ele>766.011</ele>
        <time>2011-04-16T13:32:18Z</time>
      </trkpt>
      <trkpt lat="48.04206" lon="6.71215">
        <ele>764.019</ele>
        <time>2011-04-16T13:32:21Z</time>
      </trkpt>
      <trkpt lat="48.04191" lon="6.71225">
        <ele>763.341</ele>
        <time>2011-04-16T13:32:23Z</time>
      </trkpt>
      <trkpt lat="48.04176" lon="6.71238">
        <ele>762.073</ele>
        <time>2011-04-16T13:32:25Z</time>
      </trkpt>
      <trkpt lat="48.04146" lon="6.71269">
        <ele>760.678</ele>
        <time>2011-04-16T13:32:30Z</time>
      </trkpt>
      <trkpt lat="48.04126" lon="6.71296">
        <ele>760.519</ele>
        <time>2011-04-16T13:32:34Z</time>
      </trkpt>
      <trkpt lat="48.04114" lon="6.71323">
        <ele>760.413</ele>
        <time>2011-04-16T13:32:37Z</time>
      </trkpt>
      <trkpt lat="48.04093" lon="6.71357">
        <ele>761.119</ele>
        <time>2011-04-16T13:32:41Z</time>
      </trkpt>
      <trkpt lat="48.04046" lon="6.71395">
        <ele>760.923</ele>
        <time>2011-04-16T13:32:49Z</time>
      </trkpt>
      <trkpt lat="48.04025" lon="6.71431">
        <ele>760.735</ele>
        <time>2011-04-16T13:32:55Z</time>
      </trkpt>
      <trkpt lat="48.04008" lon="6.71484">
        <ele>761.639</ele>
        <time>2011-04-16T13:33:07Z</time>
      </trkpt>
      <trkpt lat="48.04005" lon="6.71489">
        <ele>762.191</ele>
        <time>2011-04-16T13:33:26Z</time>
      </trkpt>
      <trkpt lat="48.04005" lon="6.71489">
        <ele>761.747</ele>
        <time>2011-04-16T13:33:34Z</time>
      </trkpt>
      <trkpt lat="48.04026" lon="6.71523">
        <ele>761.62</ele>
        <time>2011-04-16T13:33:49Z</time>
      </trkpt>
      <trkpt lat="48.04037" lon="6.71564">
        <ele>763.333</ele>
        <time>2011-04-16T13:34:01Z</time>
      </trkpt>
      <trkpt lat="48.04039" lon="6.71568">
        <ele>764.273</ele>
        <time>2011-04-16T13:34:03Z</time>
      </trkpt>
      <trkpt lat="48.04041" lon="6.71576">
        <ele>765.374</ele>
        <time>2011-04-16T13:34:06Z</time>
      </trkpt>
      <trkpt lat="48.04043" lon="6.71584">
        <ele>767.19</ele>
        <time>2011-04-16T13:34:09Z</time>
      </trkpt>
      <trkpt lat="48.04049" lon="6.71604">
        <ele>768.969</ele>
        <time>2011-04-16T13:34:20Z</time>
      </trkpt>
      <trkpt lat="48.04054" lon="6.71639">
        <ele>769.509</ele>
        <time>2011-04-16T13:34:32Z</time>
      </trkpt>
      <trkpt lat="48.04065" lon="6.71655">
        <ele>770.292</ele>
        <time>2011-04-16T13:34:42Z</time>
      </trkpt>
      <trkpt lat="48.04071" lon="6.71654">
        <ele>772.519</ele>
        <time>2011-04-16T13:34:47Z</time>
      </trkpt>
      <trkpt lat="48.0408" lon="6.71657">
        <ele>775.043</ele>
        <time>2011-04-16T13:35:00Z</time>
      </trkpt>
      <trkpt lat="48.04092" lon="6.71666">
        <ele>777.062</ele>
        <time>2011-04-16T13:35:16Z</time>
      </trkpt>
      <trkpt lat="48.04103" lon="6.71667">
        <ele>777.96</ele>
        <time>2011-04-16T13:35:28Z</time>
      </trkpt>
      <trkpt lat="48.04119" lon="6.71673">
        <ele>780.805</ele>
        <time>2011-04-16T13:35:43Z</time>
      </trkpt>
      <trkpt lat="48.04118" lon="6.71677">
        <ele>781.519</ele>
        <time>2011-04-16T13:35:58Z</time>
      </trkpt>
      <trkpt lat="48.04125" lon="6.71699">
        <ele>783.348</ele>
        <time>2011-04-16T13:36:10Z</time>
      </trkpt>
      <trkpt lat="48.04129" lon="6.71704">
        <ele>784.674</ele>
        <time>2011-04-16T13:36:15Z</time>
      </trkpt>
      <trkpt lat="48.04133" lon="6.71705">
        <ele>785.487</ele>
        <time>2011-04-16T13:36:18Z</time>
      </trkpt>
      <trkpt lat="48.04147" lon="6.71718">
        <ele>788.884</ele>
        <time>2011-04-16T13:36:28Z</time>
      </trkpt>
      <trkpt lat="48.04158" lon="6.71731">
        <ele>790.363</ele>
        <time>2011-04-16T13:36:40Z</time>
      </trkpt>
      <trkpt lat="48.04161" lon="6.71733">
        <ele>790.873</ele>
        <time>2011-04-16T13:37:03Z</time>
      </trkpt>
      <trkpt lat="48.04173" lon="6.71746">
        <ele>791.456</ele>
        <time>2011-04-16T13:40:16Z</time>
      </trkpt>
      <trkpt lat="48.04175" lon="6.71748">
        <ele>792.033</ele>
        <time>2011-04-16T13:40:17Z</time>
      </trkpt>
      <trkpt lat="48.04186" lon="6.7176">
        <ele>794.474</ele>
        <time>2011-04-16T13:40:24Z</time>
      </trkpt>
      <trkpt lat="48.04193" lon="6.71775">
        <ele>795.487</ele>
        <time>2011-04-16T13:40:32Z</time>
      </trkpt>
      <trkpt lat="48.0419" lon="6.71781">
        <ele>795.341</ele>
        <time>2011-04-16T13:40:35Z</time>
      </trkpt>
      <trkpt lat="48.0419" lon="6.71785">
        <ele>795.825</ele>
        <time>2011-04-16T13:40:37Z</time>
      </trkpt>
      <trkpt lat="48.0419" lon="6.71795">
        <ele>795.795</ele>
        <time>2011-04-16T13:40:42Z</time>
      </trkpt>
      <trkpt lat="48.04192" lon="6.71807">
        <ele>795.535</ele>
        <time>2011-04-16T13:40:47Z</time>
      </trkpt>
      <trkpt lat="48.04191" lon="6.7182">
        <ele>796.472</ele>
        <time>2011-04-16T13:40:53Z</time>
      </trkpt>
      <trkpt lat="48.04193" lon="6.71831">
        <ele>797.507</ele>
        <time>2011-04-16T13:40:58Z</time>
      </trkpt>
      <trkpt lat="48.04197" lon="6.71864">
        <ele>798.773</ele>
        <time>2011-04-16T13:41:11Z</time>
      </trkpt>
      <trkpt lat="48.042" lon="6.71877">
        <ele>799.426</ele>
        <time>2011-04-16T13:41:16Z</time>
      </trkpt>
      <trkpt lat="48.04203" lon="6.71899">
        <ele>799.812</ele>
        <time>2011-04-16T13:41:25Z</time>
      </trkpt>
      <trkpt lat="48.04199" lon="6.71909">
        <ele>799.658</ele>
        <time>2011-04-16T13:41:46Z</time>
      </trkpt>
      <trkpt lat="48.04201" lon="6.71944">
        <ele>795.761</ele>
        <time>2011-04-16T13:45:09Z</time>
      </trkpt>
      <trkpt lat="48.04237" lon="6.72007">
        <ele>794.568</ele>
        <time>2011-04-16T13:45:19Z</time>
      </trkpt>
      <trkpt lat="48.04243" lon="6.72058">
        <ele>793.031</ele>
        <time>2011-04-16T13:45:26Z</time>
      </trkpt>
      <trkpt lat="48.04221" lon="6.72129">
        <ele>791.809</ele>
        <time>2011-04-16T13:45:39Z</time>
      </trkpt>
      <trkpt lat="48.04208" lon="6.72163">
        <ele>788.437</ele>
        <time>2011-04-16T13:45:45Z</time>
      </trkpt>
      <trkpt lat="48.04197" lon="6.72184">
        <ele>787.62</ele>
        <time>2011-04-16T13:45:47Z</time>
      </trkpt>
      <trkpt lat="48.04175" lon="6.72219">
        <ele>785.819</ele>
        <time>2011-04-16T13:45:57Z</time>
      </trkpt>
      <trkpt lat="48.04159" lon="6.72269">
        <ele>785.657</ele>
        <time>2011-04-16T13:46:07Z</time>
      </trkpt>
      <trkpt lat="48.04139" lon="6.72348">
        <ele>784.536</ele>
        <time>2011-04-16T13:46:21Z</time>
      </trkpt>
      <trkpt lat="48.04134" lon="6.72358">
        <ele>783.778</ele>
        <time>2011-04-16T13:46:23Z</time>
      </trkpt>
      <trkpt lat="48.04118" lon="6.72395">
        <ele>782.351</ele>
        <time>2011-04-16T13:46:28Z</time>
      </trkpt>
      <trkpt lat="48.04111" lon="6.72415">
        <ele>782.18</ele>
        <time>2011-04-16T13:46:31Z</time>
      </trkpt>
      <trkpt lat="48.04101" lon="6.72451">
        <ele>783.411</ele>
        <time>2011-04-16T13:46:37Z</time>
      </trkpt>
      <trkpt lat="48.04103" lon="6.72521">
        <ele>786.132</ele>
        <time>2011-04-16T13:46:50Z</time>
      </trkpt>
      <trkpt lat="48.04101" lon="6.72527">
        <ele>786.132</ele>
        <time>2011-04-16T13:46:51Z</time>
      </trkpt>
      <trkpt lat="48.04079" lon="6.72571">
        <ele>788.429</ele>
        <time>2011-04-16T13:47:05Z</time>
      </trkpt>
      <trkpt lat="48.0406" lon="6.72603">
        <ele>791.565</ele>
        <time>2011-04-16T13:47:16Z</time>
      </trkpt>
      <trkpt lat="48.04056" lon="6.72633">
        <ele>793.156</ele>
        <time>2011-04-16T13:47:27Z</time>
      </trkpt>
      <trkpt lat="48.04066" lon="6.72684">
        <ele>793.224</ele>
        <time>2011-04-16T13:47:41Z</time>
      </trkpt>
      <trkpt lat="48.04077" lon="6.72737">
        <ele>792.326</ele>
        <time>2011-04-16T13:47:53Z</time>
      </trkpt>
      <trkpt lat="48.04082" lon="6.72785">
        <ele>794.831</ele>
        <time>2011-04-16T13:48:04Z</time>
      </trkpt>
      <trkpt lat="48.04101" lon="6.72838">
        <ele>795.708</ele>
        <time>2011-04-16T13:48:16Z</time>
      </trkpt>
      <trkpt lat="48.04114" lon="6.72871">
        <ele>794.717</ele>
        <time>2011-04-16T13:48:23Z</time>
      </trkpt>
      <trkpt lat="48.04122" lon="6.72893">
        <ele>793.943</ele>
        <time>2011-04-16T13:48:27Z</time>
      </trkpt>
      <trkpt lat="48.04151" lon="6.7297">
        <ele>793.734</ele>
        <time>2011-04-16T13:48:42Z</time>
      </trkpt>
      <trkpt lat="48.04167" lon="6.73015">
        <ele>795.69</ele>
        <time>2011-04-16T13:48:55Z</time>
      </trkpt>
      <trkpt lat="48.04168" lon="6.7302">
        <ele>796.031</ele>
        <time>2011-04-16T13:49:14Z</time>
      </trkpt>
      <trkpt lat="48.04193" lon="6.73047">
        <ele>799.278</ele>
        <time>2011-04-16T13:49:28Z</time>
      </trkpt>
      <trkpt lat="48.04213" lon="6.73067">
        <ele>802.588</ele>
        <time>2011-04-16T13:49:41Z</time>
      </trkpt>
      <trkpt lat="48.04214" lon="6.73068">
        <ele>802.685</ele>
        <time>2011-04-16T13:49:42Z</time>
      </trkpt>
      <trkpt lat="48.04222" lon="6.7309">
        <ele>804.436</ele>
        <time>2011-04-16T13:49:53Z</time>
      </trkpt>
      <trkpt lat="48.04231" lon="6.73117">
        <ele>806.928</ele>
        <time>2011-04-16T13:50:07Z</time>
      </trkpt>
      <trkpt lat="48.04232" lon="6.73124">
        <ele>807.339</ele>
        <time>2011-04-16T13:50:10Z</time>
      </trkpt>
      <trkpt lat="48.04236" lon="6.73134">
        <ele>807.617</ele>
        <time>2011-04-16T13:50:15Z</time>
      </trkpt>
      <trkpt lat="48.04241" lon="6.73149">
        <ele>809.21</ele>
        <time>2011-04-16T13:50:23Z</time>
      </trkpt>
      <trkpt lat="48.04243" lon="6.73154">
        <ele>809.442</ele>
        <time>2011-04-16T13:50:26Z</time>
      </trkpt>
      <trkpt lat="48.04246" lon="6.73173">
        <ele>810.377</ele>
        <time>2011-04-16T13:50:35Z</time>
      </trkpt>
      <trkpt lat="48.04248" lon="6.73182">
        <ele>810.792</ele>
        <time>2011-04-16T13:50:39Z</time>
      </trkpt>
      <trkpt lat="48.04251" lon="6.73193">
        <ele>811.408</ele>
        <time>2011-04-16T13:50:44Z</time>
      </trkpt>
      <trkpt lat="48.04261" lon="6.73248">
        <ele>813.445</ele>
        <time>2011-04-16T13:51:05Z</time>
      </trkpt>
      <trkpt lat="48.04262" lon="6.73252">
        <ele>813.459</ele>
        <time>2011-04-16T13:51:07Z</time>
      </trkpt>
      <trkpt lat="48.04268" lon="6.73272">
        <ele>815.196</ele>
        <time>2011-04-16T13:51:16Z</time>
      </trkpt>
      <trkpt lat="48.04267" lon="6.73279">
        <ele>816.245</ele>
        <time>2011-04-16T13:51:19Z</time>
      </trkpt>
      <trkpt lat="48.04266" lon="6.73286">
        <ele>816.069</ele>
        <time>2011-04-16T13:51:22Z</time>
      </trkpt>
      <trkpt lat="48.04268" lon="6.73306">
        <ele>817.57</ele>
        <time>2011-04-16T13:51:29Z</time>
      </trkpt>
      <trkpt lat="48.04272" lon="6.73313">
        <ele>818.795</ele>
        <time>2011-04-16T13:51:32Z</time>
      </trkpt>
      <trkpt lat="48.04273" lon="6.73317">
        <ele>819.147</ele>
        <time>2011-04-16T13:51:34Z</time>
      </trkpt>
      <trkpt lat="48.04287" lon="6.73356">
        <ele>821.731</ele>
        <time>2011-04-16T13:51:54Z</time>
      </trkpt>
      <trkpt lat="48.04288" lon="6.73389">
        <ele>822.854</ele>
        <time>2011-04-16T13:52:06Z</time>
      </trkpt>
      <trkpt lat="48.04299" lon="6.73435">
        <ele>823.482</ele>
        <time>2011-04-16T13:52:20Z</time>
      </trkpt>
      <trkpt lat="48.043" lon="6.73438">
        <ele>823.396</ele>
        <time>2011-04-16T13:52:21Z</time>
      </trkpt>
      <trkpt lat="48.04331" lon="6.73513">
        <ele>821.329</ele>
        <time>2011-04-16T13:52:40Z</time>
      </trkpt>
      <trkpt lat="48.04337" lon="6.73524">
        <ele>820.406</ele>
        <time>2011-04-16T13:52:42Z</time>
      </trkpt>
      <trkpt lat="48.04345" lon="6.73545">
        <ele>819.186</ele>
        <time>2011-04-16T13:52:45Z</time>
      </trkpt>
      <trkpt lat="48.04359" lon="6.73573">
        <ele>817.344</ele>
        <time>2011-04-16T13:52:49Z</time>
      </trkpt>
      <trkpt lat="48.04368" lon="6.73603">
        <ele>816.877</ele>
        <time>2011-04-16T13:52:53Z</time>
      </trkpt>
      <trkpt lat="48.04377" lon="6.73649">
        <ele>815.579</ele>
        <time>2011-04-16T13:53:00Z</time>
      </trkpt>
      <trkpt lat="48.04383" lon="6.73655">
        <ele>814.69</ele>
        <time>2011-04-16T13:53:11Z</time>
      </trkpt>
      <trkpt lat="48.04383" lon="6.73656">
        <ele>815.891</ele>
        <time>2011-04-16T13:56:59Z</time>
      </trkpt>
      <trkpt lat="48.04385" lon="6.73677">
        <ele>813.348</ele>
        <time>2011-04-16T13:57:03Z</time>
      </trkpt>
      <trkpt lat="48.04386" lon="6.73688">
        <ele>812.475</ele>
        <time>2011-04-16T13:57:04Z</time>
      </trkpt>
      <trkpt lat="48.04383" lon="6.73725">
        <ele>811.205</ele>
        <time>2011-04-16T13:57:07Z</time>
      </trkpt>
      <trkpt lat="48.04381" lon="6.73768">
        <ele>808.913</ele>
        <time>2011-04-16T13:57:10Z</time>
      </trkpt>
      <trkpt lat="48.04379" lon="6.73795">
        <ele>808.815</ele>
        <time>2011-04-16T13:57:12Z</time>
      </trkpt>
      <trkpt lat="48.04357" lon="6.73851">
        <ele>808.104</ele>
        <time>2011-04-16T13:57:17Z</time>
      </trkpt>
      <trkpt lat="48.04348" lon="6.7387">
        <ele>808.397</ele>
        <time>2011-04-16T13:57:19Z</time>
      </trkpt>
      <trkpt lat="48.04338" lon="6.73898">
        <ele>807.675</ele>
        <time>2011-04-16T13:57:22Z</time>
      </trkpt>
      <trkpt lat="48.04328" lon="6.73941">
        <ele>805.072</ele>
        <time>2011-04-16T13:57:26Z</time>
      </trkpt>
      <trkpt lat="48.0432" lon="6.73988">
        <ele>799.948</ele>
        <time>2011-04-16T13:57:30Z</time>
      </trkpt>
      <trkpt lat="48.04317" lon="6.74">
        <ele>799.953</ele>
        <time>2011-04-16T13:57:31Z</time>
      </trkpt>
      <trkpt lat="48.04325" lon="6.7404">
        <ele>799.624</ele>
        <time>2011-04-16T13:57:35Z</time>
      </trkpt>
      <trkpt lat="48.04332" lon="6.74062">
        <ele>799.313</ele>
        <time>2011-04-16T13:57:37Z</time>
      </trkpt>
      <trkpt lat="48.0436" lon="6.74097">
        <ele>797.987</ele>
        <time>2011-04-16T13:57:42Z</time>
      </trkpt>
      <trkpt lat="48.04375" lon="6.7411">
        <ele>796.458</ele>
        <time>2011-04-16T13:57:45Z</time>
      </trkpt>
      <trkpt lat="48.04382" lon="6.74118">
        <ele>795.592</ele>
        <time>2011-04-16T13:57:47Z</time>
      </trkpt>
      <trkpt lat="48.04374" lon="6.74161">
        <ele>793.405</ele>
        <time>2011-04-16T13:57:53Z</time>
      </trkpt>
      <trkpt lat="48.04366" lon="6.74182">
        <ele>793.307</ele>
        <time>2011-04-16T13:57:56Z</time>
      </trkpt>
      <trkpt lat="48.0436" lon="6.74211">
        <ele>792.856</ele>
        <time>2011-04-16T13:58:00Z</time>
      </trkpt>
      <trkpt lat="48.0436" lon="6.74266">
        <ele>795.849</ele>
        <time>2011-04-16T13:58:07Z</time>
      </trkpt>
      <trkpt lat="48.0435" lon="6.7429">
        <ele>796.803</ele>
        <time>2011-04-16T13:58:11Z</time>
      </trkpt>
      <trkpt lat="48.04317" lon="6.7437">
        <ele>799.742</ele>
        <time>2011-04-16T13:58:26Z</time>
      </trkpt>
      <trkpt lat="48.04287" lon="6.74419">
        <ele>801.89</ele>
        <time>2011-04-16T13:58:38Z</time>
      </trkpt>
      <trkpt lat="48.0426" lon="6.74447">
        <ele>802.342</ele>
        <time>2011-04-16T13:58:46Z</time>
      </trkpt>
      <trkpt lat="48.0424" lon="6.74499">
        <ele>803.967</ele>
        <time>2011-04-16T13:58:58Z</time>
      </trkpt>
      <trkpt lat="48.04235" lon="6.74565">
        <ele>803.576</ele>
        <time>2011-04-16T13:59:12Z</time>
      </trkpt>
      <trkpt lat="48.0423" lon="6.7464">
        <ele>803.977</ele>
        <time>2011-04-16T13:59:29Z</time>
      </trkpt>
      <trkpt lat="48.04214" lon="6.74694">
        <ele>805.074</ele>
        <time>2011-04-16T13:59:42Z</time>
      </trkpt>
      <trkpt lat="48.0421" lon="6.74769">
        <ele>805.074</ele>
        <time>2011-04-16T13:59:57Z</time>
      </trkpt>
      <trkpt lat="48.04214" lon="6.74845">
        <ele>803.737</ele>
        <time>2011-04-16T14:00:12Z</time>
      </trkpt>
      <trkpt lat="48.04213" lon="6.7491">
        <ele>802.997</ele>
        <time>2011-04-16T14:00:23Z</time>
      </trkpt>
      <trkpt lat="48.04184" lon="6.74993">
        <ele>803.457</ele>
        <time>2011-04-16T14:00:39Z</time>
      </trkpt>
      <trkpt lat="48.04164" lon="6.75049">
        <ele>803.734</ele>
        <time>2011-04-16T14:00:56Z</time>
      </trkpt>
      <trkpt lat="48.0416" lon="6.75057">
        <ele>803.808</ele>
        <time>2011-04-16T14:00:59Z</time>
      </trkpt>
      <trkpt lat="48.04161" lon="6.75075">
        <ele>802.267</ele>
        <time>2011-04-16T14:01:06Z</time>
      </trkpt>
      <trkpt lat="48.04155" lon="6.75085">
        <ele>802.431</ele>
        <time>2011-04-16T14:01:11Z</time>
      </trkpt>
      <trkpt lat="48.04152" lon="6.75096">
        <ele>802.455</ele>
        <time>2011-04-16T14:01:15Z</time>
      </trkpt>
      <trkpt lat="48.04129" lon="6.75134">
        <ele>805.378</ele>
        <time>2011-04-16T14:01:31Z</time>
      </trkpt>
      <trkpt lat="48.04106" lon="6.75166">
        <ele>808.558</ele>
        <time>2011-04-16T14:01:46Z</time>
      </trkpt>
      <trkpt lat="48.04085" lon="6.75217">
        <ele>811.227</ele>
        <time>2011-04-16T14:02:07Z</time>
      </trkpt>
      <trkpt lat="48.04073" lon="6.75261">
        <ele>813.251</ele>
        <time>2011-04-16T14:02:23Z</time>
      </trkpt>
      <trkpt lat="48.04054" lon="6.75312">
        <ele>816.306</ele>
        <time>2011-04-16T14:02:42Z</time>
      </trkpt>
      <trkpt lat="48.04024" lon="6.75362">
        <ele>817.692</ele>
        <time>2011-04-16T14:03:02Z</time>
      </trkpt>
      <trkpt lat="48.04014" lon="6.75385">
        <ele>819.516</ele>
        <time>2011-04-16T14:03:11Z</time>
      </trkpt>
      <trkpt lat="48.03982" lon="6.75412">
        <ele>822.4</ele>
        <time>2011-04-16T14:03:30Z</time>
      </trkpt>
      <trkpt lat="48.03947" lon="6.75416">
        <ele>825.567</ele>
        <time>2011-04-16T14:03:47Z</time>
      </trkpt>
      <trkpt lat="48.03931" lon="6.75454">
        <ele>828.31</ele>
        <time>2011-04-16T14:04:07Z</time>
      </trkpt>
      <trkpt lat="48.03913" lon="6.75468">
        <ele>829.96</ele>
        <time>2011-04-16T14:04:23Z</time>
      </trkpt>
      <trkpt lat="48.03907" lon="6.75468">
        <ele>830.837</ele>
        <time>2011-04-16T14:04:40Z</time>
      </trkpt>
      <trkpt lat="48.03878" lon="6.75453">
        <ele>834.515</ele>
        <time>2011-04-16T14:04:59Z</time>
      </trkpt>
      <trkpt lat="48.03855" lon="6.75448">
        <ele>837.862</ele>
        <time>2011-04-16T14:05:17Z</time>
      </trkpt>
      <trkpt lat="48.03834" lon="6.75454">
        <ele>840.784</ele>
        <time>2011-04-16T14:05:32Z</time>
      </trkpt>
      <trkpt lat="48.03812" lon="6.75462">
        <ele>844.666</ele>
        <time>2011-04-16T14:05:50Z</time>
      </trkpt>
      <trkpt lat="48.03788" lon="6.7547">
        <ele>846.91</ele>
        <time>2011-04-16T14:06:07Z</time>
      </trkpt>
      <trkpt lat="48.03759" lon="6.75496">
        <ele>848.696</ele>
        <time>2011-04-16T14:06:27Z</time>
      </trkpt>
      <trkpt lat="48.03741" lon="6.75537">
        <ele>848.031</ele>
        <time>2011-04-16T14:06:39Z</time>
      </trkpt>
      <trkpt lat="48.03728" lon="6.75562">
        <ele>847.695</ele>
        <time>2011-04-16T14:06:45Z</time>
      </trkpt>
      <trkpt lat="48.03722" lon="6.75569">
        <ele>848.692</ele>
        <time>2011-04-16T14:06:57Z</time>
      </trkpt>
      <trkpt lat="48.03719" lon="6.75575">
        <ele>848.013</ele>
        <time>2011-04-16T14:07:10Z</time>
      </trkpt>
      <trkpt lat="48.03712" lon="6.75586">
        <ele>848.336</ele>
        <time>2011-04-16T14:07:15Z</time>
      </trkpt>
      <trkpt lat="48.03694" lon="6.75622">
        <ele>848.208</ele>
        <time>2011-04-16T14:07:27Z</time>
      </trkpt>
      <trkpt lat="48.03677" lon="6.75657">
        <ele>846.223</ele>
        <time>2011-04-16T14:07:43Z</time>
      </trkpt>
      <trkpt lat="48.03633" lon="6.75731">
        <ele>844.771</ele>
        <time>2011-04-16T14:07:55Z</time>
      </trkpt>
      <trkpt lat="48.03622" lon="6.75762">
        <ele>843.841</ele>
        <time>2011-04-16T14:07:59Z</time>
      </trkpt>
      <trkpt lat="48.03615" lon="6.75787">
        <ele>843.962</ele>
        <time>2011-04-16T14:08:02Z</time>
      </trkpt>
      <trkpt lat="48.03605" lon="6.7582">
        <ele>843.29</ele>
        <time>2011-04-16T14:08:06Z</time>
      </trkpt>
      <trkpt lat="48.03592" lon="6.75852">
        <ele>841.609</ele>
        <time>2011-04-16T14:08:10Z</time>
      </trkpt>
      <trkpt lat="48.03582" lon="6.75877">
        <ele>840.836</ele>
        <time>2011-04-16T14:08:13Z</time>
      </trkpt>
      <trkpt lat="48.03548" lon="6.75955">
        <ele>842.248</ele>
        <time>2011-04-16T14:08:26Z</time>
      </trkpt>
      <trkpt lat="48.03533" lon="6.75956">
        <ele>842.398</ele>
        <time>2011-04-16T14:08:30Z</time>
      </trkpt>
      <trkpt lat="48.03514" lon="6.75956">
        <ele>842.162</ele>
        <time>2011-04-16T14:08:34Z</time>
      </trkpt>
      <trkpt lat="48.035" lon="6.75959">
        <ele>841.574</ele>
        <time>2011-04-16T14:08:37Z</time>
      </trkpt>
      <trkpt lat="48.03464" lon="6.75965">
        <ele>843.085</ele>
        <time>2011-04-16T14:08:50Z</time>
      </trkpt>
      <trkpt lat="48.03429" lon="6.75947">
        <ele>842.455</ele>
        <time>2011-04-16T14:09:04Z</time>
      </trkpt>
      <trkpt lat="48.03427" lon="6.75947">
        <ele>842.184</ele>
        <time>2011-04-16T14:09:18Z</time>
      </trkpt>
      <trkpt lat="48.03427" lon="6.75948">
        <ele>840.654</ele>
        <time>2011-04-16T14:09:57Z</time>
      </trkpt>
      <trkpt lat="48.03417" lon="6.75945">
        <ele>838.947</ele>
        <time>2011-04-16T14:13:43Z</time>
      </trkpt>
      <trkpt lat="48.03402" lon="6.75923">
        <ele>834.947</ele>
        <time>2011-04-16T14:13:47Z</time>
      </trkpt>
      <trkpt lat="48.03398" lon="6.75915">
        <ele>834.946</ele>
        <time>2011-04-16T14:13:48Z</time>
      </trkpt>
      <trkpt lat="48.03374" lon="6.75877">
        <ele>831.55</ele>
        <time>2011-04-16T14:13:53Z</time>
      </trkpt>
      <trkpt lat="48.03365" lon="6.75858">
        <ele>829.69</ele>
        <time>2011-04-16T14:13:55Z</time>
      </trkpt>
      <trkpt lat="48.03361" lon="6.7585">
        <ele>827.844</ele>
        <time>2011-04-16T14:13:56Z</time>
      </trkpt>
      <trkpt lat="48.03346" lon="6.75811">
        <ele>823.979</ele>
        <time>2011-04-16T14:14:01Z</time>
      </trkpt>
      <trkpt lat="48.03338" lon="6.75783">
        <ele>822.11</ele>
        <time>2011-04-16T14:14:04Z</time>
      </trkpt>
      <trkpt lat="48.03331" lon="6.75761">
        <ele>819.976</ele>
        <time>2011-04-16T14:14:06Z</time>
      </trkpt>
      <trkpt lat="48.03324" lon="6.75739">
        <ele>818.59</ele>
        <time>2011-04-16T14:14:08Z</time>
      </trkpt>
      <trkpt lat="48.03318" lon="6.75716">
        <ele>815.488</ele>
        <time>2011-04-16T14:14:10Z</time>
      </trkpt>
      <trkpt lat="48.03316" lon="6.75705">
        <ele>815.492</ele>
        <time>2011-04-16T14:14:11Z</time>
      </trkpt>
      <trkpt lat="48.03312" lon="6.75685">
        <ele>813.91</ele>
        <time>2011-04-16T14:14:13Z</time>
      </trkpt>
      <trkpt lat="48.03311" lon="6.75676">
        <ele>813.085</ele>
        <time>2011-04-16T14:14:14Z</time>
      </trkpt>
      <trkpt lat="48.0331" lon="6.75608">
        <ele>811.619</ele>
        <time>2011-04-16T14:14:20Z</time>
      </trkpt>
      <trkpt lat="48.03315" lon="6.75581">
        <ele>809.909</ele>
        <time>2011-04-16T14:14:22Z</time>
      </trkpt>
      <trkpt lat="48.03322" lon="6.7554">
        <ele>809.508</ele>
        <time>2011-04-16T14:14:26Z</time>
      </trkpt>
      <trkpt lat="48.03318" lon="6.7551">
        <ele>806.942</ele>
        <time>2011-04-16T14:14:29Z</time>
      </trkpt>
      <trkpt lat="48.03318" lon="6.7549">
        <ele>803.584</ele>
        <time>2011-04-16T14:14:31Z</time>
      </trkpt>
      <trkpt lat="48.03328" lon="6.75461">
        <ele>802.103</ele>
        <time>2011-04-16T14:14:34Z</time>
      </trkpt>
      <trkpt lat="48.03329" lon="6.75456">
        <ele>801.92</ele>
        <time>2011-04-16T14:14:35Z</time>
      </trkpt>
      <trkpt lat="48.03322" lon="6.75452">
        <ele>800.324</ele>
        <time>2011-04-16T14:14:39Z</time>
      </trkpt>
      <trkpt lat="48.0332" lon="6.75455">
        <ele>799.3</ele>
        <time>2011-04-16T14:14:40Z</time>
      </trkpt>
      <trkpt lat="48.03287" lon="6.75504">
        <ele>797.274</ele>
        <time>2011-04-16T14:14:50Z</time>
      </trkpt>
      <trkpt lat="48.03282" lon="6.75519">
        <ele>795.556</ele>
        <time>2011-04-16T14:14:52Z</time>
      </trkpt>
      <trkpt lat="48.03275" lon="6.75542">
        <ele>793.791</ele>
        <time>2011-04-16T14:14:55Z</time>
      </trkpt>
      <trkpt lat="48.03263" lon="6.75577">
        <ele>790.296</ele>
        <time>2011-04-16T14:15:00Z</time>
      </trkpt>
      <trkpt lat="48.03258" lon="6.75593">
        <ele>789.06</ele>
        <time>2011-04-16T14:15:02Z</time>
      </trkpt>
      <trkpt lat="48.03255" lon="6.75608">
        <ele>787.937</ele>
        <time>2011-04-16T14:15:04Z</time>
      </trkpt>
      <trkpt lat="48.03253" lon="6.75627">
        <ele>786.415</ele>
        <time>2011-04-16T14:15:06Z</time>
      </trkpt>
      <trkpt lat="48.0325" lon="6.75655">
        <ele>783.606</ele>
        <time>2011-04-16T14:15:09Z</time>
      </trkpt>
      <trkpt lat="48.03243" lon="6.75689">
        <ele>781.301</ele>
        <time>2011-04-16T14:15:13Z</time>
      </trkpt>
      <trkpt lat="48.03239" lon="6.75707">
        <ele>777.979</ele>
        <time>2011-04-16T14:15:15Z</time>
      </trkpt>
      <trkpt lat="48.03236" lon="6.75717">
        <ele>777.984</ele>
        <time>2011-04-16T14:15:16Z</time>
      </trkpt>
      <trkpt lat="48.03232" lon="6.7574">
        <ele>776.526</ele>
        <time>2011-04-16T14:15:18Z</time>
      </trkpt>
      <trkpt lat="48.03227" lon="6.75762">
        <ele>774.475</ele>
        <time>2011-04-16T14:15:20Z</time>
      </trkpt>
      <trkpt lat="48.03223" lon="6.75785">
        <ele>771.374</ele>
        <time>2011-04-16T14:15:22Z</time>
      </trkpt>
      <trkpt lat="48.03221" lon="6.75796">
        <ele>771.38</ele>
        <time>2011-04-16T14:15:23Z</time>
      </trkpt>
      <trkpt lat="48.03213" lon="6.75838">
        <ele>769.985</ele>
        <time>2011-04-16T14:15:27Z</time>
      </trkpt>
      <trkpt lat="48.03206" lon="6.75873">
        <ele>767.194</ele>
        <time>2011-04-16T14:15:30Z</time>
      </trkpt>
      <trkpt lat="48.03203" lon="6.75886">
        <ele>765.821</ele>
        <time>2011-04-16T14:15:31Z</time>
      </trkpt>
      <trkpt lat="48.03192" lon="6.75922">
        <ele>764.045</ele>
        <time>2011-04-16T14:15:34Z</time>
      </trkpt>
      <trkpt lat="48.03167" lon="6.75981">
        <ele>761.3</ele>
        <time>2011-04-16T14:15:39Z</time>
      </trkpt>
      <trkpt lat="48.03152" lon="6.76021">
        <ele>758.278</ele>
        <time>2011-04-16T14:15:42Z</time>
      </trkpt>
      <trkpt lat="48.0314" lon="6.76074">
        <ele>756.309</ele>
        <time>2011-04-16T14:15:46Z</time>
      </trkpt>
      <trkpt lat="48.03133" lon="6.76102">
        <ele>755.04</ele>
        <time>2011-04-16T14:15:49Z</time>
      </trkpt>
      <trkpt lat="48.03116" lon="6.7611">
        <ele>755.611</ele>
        <time>2011-04-16T14:15:54Z</time>
      </trkpt>
      <trkpt lat="48.03107" lon="6.7609">
        <ele>755.247</ele>
        <time>2011-04-16T14:15:57Z</time>
      </trkpt>
      <trkpt lat="48.03099" lon="6.7606">
        <ele>753.941</ele>
        <time>2011-04-16T14:16:01Z</time>
      </trkpt>
      <trkpt lat="48.03098" lon="6.76044">
        <ele>753.554</ele>
        <time>2011-04-16T14:16:03Z</time>
      </trkpt>
      <trkpt lat="48.03069" lon="6.75984">
        <ele>751.276</ele>
        <time>2011-04-16T14:16:11Z</time>
      </trkpt>
      <trkpt lat="48.03058" lon="6.75975">
        <ele>751.035</ele>
        <time>2011-04-16T14:16:19Z</time>
      </trkpt>
      <trkpt lat="48.03044" lon="6.75965">
        <ele>750.168</ele>
        <time>2011-04-16T14:17:00Z</time>
      </trkpt>
      <trkpt lat="48.03036" lon="6.75955">
        <ele>748.833</ele>
        <time>2011-04-16T14:17:02Z</time>
      </trkpt>
      <trkpt lat="48.03028" lon="6.7595">
        <ele>747.548</ele>
        <time>2011-04-16T14:17:04Z</time>
      </trkpt>
      <trkpt lat="48.0302" lon="6.75959">
        <ele>745.022</ele>
        <time>2011-04-16T14:17:06Z</time>
      </trkpt>
      <trkpt lat="48.0299" lon="6.75961">
        <ele>743.037</ele>
        <time>2011-04-16T14:17:12Z</time>
      </trkpt>
      <trkpt lat="48.02978" lon="6.75948">
        <ele>742.236</ele>
        <time>2011-04-16T14:17:15Z</time>
      </trkpt>
      <trkpt lat="48.02953" lon="6.75929">
        <ele>739.219</ele>
        <time>2011-04-16T14:17:20Z</time>
      </trkpt>
      <trkpt lat="48.02946" lon="6.75925">
        <ele>739.22</ele>
        <time>2011-04-16T14:17:21Z</time>
      </trkpt>
      <trkpt lat="48.02883" lon="6.75866">
        <ele>737.221</ele>
        <time>2011-04-16T14:17:30Z</time>
      </trkpt>
      <trkpt lat="48.02866" lon="6.75822">
        <ele>737.128</ele>
        <time>2011-04-16T14:17:36Z</time>
      </trkpt>
      <trkpt lat="48.02855" lon="6.75798">
        <ele>738.358</ele>
        <time>2011-04-16T14:17:39Z</time>
      </trkpt>
      <trkpt lat="48.02844" lon="6.75779">
        <ele>741.046</ele>
        <time>2011-04-16T14:17:42Z</time>
      </trkpt>
      <trkpt lat="48.02812" lon="6.75759">
        <ele>739.263</ele>
        <time>2011-04-16T14:17:50Z</time>
      </trkpt>
      <trkpt lat="48.02793" lon="6.75735">
        <ele>738.293</ele>
        <time>2011-04-16T14:17:58Z</time>
      </trkpt>
      <trkpt lat="48.02783" lon="6.75684">
        <ele>734.94</ele>
        <time>2011-04-16T14:18:05Z</time>
      </trkpt>
      <trkpt lat="48.02773" lon="6.75655">
        <ele>733.481</ele>
        <time>2011-04-16T14:18:09Z</time>
      </trkpt>
      <trkpt lat="48.02762" lon="6.75634">
        <ele>729.388</ele>
        <time>2011-04-16T14:18:12Z</time>
      </trkpt>
      <trkpt lat="48.02759" lon="6.75626">
        <ele>727.401</ele>
        <time>2011-04-16T14:18:13Z</time>
      </trkpt>
      <trkpt lat="48.02757" lon="6.75609">
        <ele>725.433</ele>
        <time>2011-04-16T14:18:16Z</time>
      </trkpt>
      <trkpt lat="48.02754" lon="6.75594">
        <ele>721.779</ele>
        <time>2011-04-16T14:18:18Z</time>
      </trkpt>
      <trkpt lat="48.02751" lon="6.75584">
        <ele>721.779</ele>
        <time>2011-04-16T14:18:19Z</time>
      </trkpt>
      <trkpt lat="48.02745" lon="6.75568">
        <ele>719.884</ele>
        <time>2011-04-16T14:18:21Z</time>
      </trkpt>
      <trkpt lat="48.02739" lon="6.75547">
        <ele>717.908</ele>
        <time>2011-04-16T14:18:23Z</time>
      </trkpt>
      <trkpt lat="48.02735" lon="6.75537">
        <ele>714.66</ele>
        <time>2011-04-16T14:18:24Z</time>
      </trkpt>
      <trkpt lat="48.0273" lon="6.7552">
        <ele>713.476</ele>
        <time>2011-04-16T14:18:26Z</time>
      </trkpt>
      <trkpt lat="48.02727" lon="6.75511">
        <ele>711.555</ele>
        <time>2011-04-16T14:18:27Z</time>
      </trkpt>
      <trkpt lat="48.02729" lon="6.75486">
        <ele>708.908</ele>
        <time>2011-04-16T14:18:30Z</time>
      </trkpt>
      <trkpt lat="48.02726" lon="6.75447">
        <ele>707.854</ele>
        <time>2011-04-16T14:18:35Z</time>
      </trkpt>
      <trkpt lat="48.02719" lon="6.75369">
        <ele>708.506</ele>
        <time>2011-04-16T14:18:46Z</time>
      </trkpt>
      <trkpt lat="48.02721" lon="6.75341">
        <ele>709.648</ele>
        <time>2011-04-16T14:18:51Z</time>
      </trkpt>
      <trkpt lat="48.02725" lon="6.753">
        <ele>706.625</ele>
        <time>2011-04-16T14:18:58Z</time>
      </trkpt>
      <trkpt lat="48.02726" lon="6.75292">
        <ele>705.314</ele>
        <time>2011-04-16T14:18:59Z</time>
      </trkpt>
      <trkpt lat="48.02727" lon="6.75267">
        <ele>702.064</ele>
        <time>2011-04-16T14:19:02Z</time>
      </trkpt>
      <trkpt lat="48.02728" lon="6.75259">
        <ele>702.064</ele>
        <time>2011-04-16T14:19:03Z</time>
      </trkpt>
      <trkpt lat="48.02718" lon="6.75196">
        <ele>702.54</ele>
        <time>2011-04-16T14:19:10Z</time>
      </trkpt>
      <trkpt lat="48.02716" lon="6.7518">
        <ele>704.136</ele>
        <time>2011-04-16T14:19:12Z</time>
      </trkpt>
      <trkpt lat="48.02707" lon="6.75106">
        <ele>706.001</ele>
        <time>2011-04-16T14:19:24Z</time>
      </trkpt>
      <trkpt lat="48.02698" lon="6.75026">
        <ele>704.397</ele>
        <time>2011-04-16T14:19:37Z</time>
      </trkpt>
      <trkpt lat="48.02687" lon="6.74962">
        <ele>706.773</ele>
        <time>2011-04-16T14:19:49Z</time>
      </trkpt>
      <trkpt lat="48.02679" lon="6.74892">
        <ele>708.333</ele>
        <time>2011-04-16T14:20:01Z</time>
      </trkpt>
      <trkpt lat="48.02673" lon="6.74859">
        <ele>710.267</ele>
        <time>2011-04-16T14:20:13Z</time>
      </trkpt>
      <trkpt lat="48.02672" lon="6.74854">
        <ele>710.68</ele>
        <time>2011-04-16T14:20:15Z</time>
      </trkpt>
      <trkpt lat="48.02668" lon="6.74821">
        <ele>712.719</ele>
        <time>2011-04-16T14:20:27Z</time>
      </trkpt>
      <trkpt lat="48.02662" lon="6.74796">
        <ele>714.744</ele>
        <time>2011-04-16T14:20:35Z</time>
      </trkpt>
      <trkpt lat="48.02655" lon="6.74786">
        <ele>716.178</ele>
        <time>2011-04-16T14:20:51Z</time>
      </trkpt>
      <trkpt lat="48.02654" lon="6.74784">
        <ele>713.805</ele>
        <time>2011-04-16T14:21:45Z</time>
      </trkpt>
      <trkpt lat="48.02653" lon="6.74784">
        <ele>709.858</ele>
        <time>2011-04-16T14:21:50Z</time>
      </trkpt>
      <trkpt lat="48.02653" lon="6.74784">
        <ele>707.533</ele>
        <time>2011-04-16T14:21:52Z</time>
      </trkpt>
      <trkpt lat="48.02652" lon="6.74783">
        <ele>705.04</ele>
        <time>2011-04-16T14:21:54Z</time>
      </trkpt>
      <trkpt lat="48.02652" lon="6.74783">
        <ele>703.358</ele>
        <time>2011-04-16T14:21:56Z</time>
      </trkpt>
      <trkpt lat="48.0256" lon="6.74723">
        <ele>703.081</ele>
        <time>2011-04-16T14:22:04Z</time>
      </trkpt>
      <trkpt lat="48.02495" lon="6.74675">
        <ele>700.259</ele>
        <time>2011-04-16T14:22:08Z</time>
      </trkpt>
      <trkpt lat="48.02485" lon="6.74666">
        <ele>697.617</ele>
        <time>2011-04-16T14:22:09Z</time>
      </trkpt>
      <trkpt lat="48.02468" lon="6.74643">
        <ele>696.875</ele>
        <time>2011-04-16T14:22:11Z</time>
      </trkpt>
      <trkpt lat="48.0244" lon="6.74582">
        <ele>698.38</ele>
        <time>2011-04-16T14:22:17Z</time>
      </trkpt>
      <trkpt lat="48.02436" lon="6.74574">
        <ele>698.294</ele>
        <time>2011-04-16T14:22:18Z</time>
      </trkpt>
      <trkpt lat="48.02429" lon="6.74549">
        <ele>695.213</ele>
        <time>2011-04-16T14:22:21Z</time>
      </trkpt>
      <trkpt lat="48.02428" lon="6.74539">
        <ele>695.229</ele>
        <time>2011-04-16T14:22:22Z</time>
      </trkpt>
      <trkpt lat="48.02423" lon="6.74507">
        <ele>692.547</ele>
        <time>2011-04-16T14:22:25Z</time>
      </trkpt>
      <trkpt lat="48.02422" lon="6.74455">
        <ele>689.625</ele>
        <time>2011-04-16T14:22:29Z</time>
      </trkpt>
      <trkpt lat="48.02421" lon="6.74427">
        <ele>688.734</ele>
        <time>2011-04-16T14:22:31Z</time>
      </trkpt>
      <trkpt lat="48.0243" lon="6.74357">
        <ele>685.436</ele>
        <time>2011-04-16T14:22:36Z</time>
      </trkpt>
      <trkpt lat="48.0243" lon="6.74336">
        <ele>684.144</ele>
        <time>2011-04-16T14:22:38Z</time>
      </trkpt>
      <trkpt lat="48.02427" lon="6.74312">
        <ele>683.15</ele>
        <time>2011-04-16T14:22:40Z</time>
      </trkpt>
      <trkpt lat="48.02421" lon="6.74278">
        <ele>680.857</ele>
        <time>2011-04-16T14:22:43Z</time>
      </trkpt>
      <trkpt lat="48.0242" lon="6.74261">
        <ele>679.218</ele>
        <time>2011-04-16T14:22:45Z</time>
      </trkpt>
      <trkpt lat="48.02419" lon="6.74241">
        <ele>677.963</ele>
        <time>2011-04-16T14:22:47Z</time>
      </trkpt>
      <trkpt lat="48.02418" lon="6.74229">
        <ele>675.16</ele>
        <time>2011-04-16T14:22:48Z</time>
      </trkpt>
      <trkpt lat="48.0241" lon="6.74188">
        <ele>671.231</ele>
        <time>2011-04-16T14:22:51Z</time>
      </trkpt>
      <trkpt lat="48.02409" lon="6.74171">
        <ele>671.231</ele>
        <time>2011-04-16T14:22:52Z</time>
      </trkpt>
      <trkpt lat="48.02405" lon="6.74141">
        <ele>669.45</ele>
        <time>2011-04-16T14:22:54Z</time>
      </trkpt>
      <trkpt lat="48.02402" lon="6.74114">
        <ele>667.928</ele>
        <time>2011-04-16T14:22:56Z</time>
      </trkpt>
      <trkpt lat="48.02401" lon="6.74091">
        <ele>662.704</ele>
        <time>2011-04-16T14:22:58Z</time>
      </trkpt>
      <trkpt lat="48.02402" lon="6.74058">
        <ele>659.988</ele>
        <time>2011-04-16T14:23:01Z</time>
      </trkpt>
      <trkpt lat="48.02403" lon="6.74036">
        <ele>658.339</ele>
        <time>2011-04-16T14:23:03Z</time>
      </trkpt>
      <trkpt lat="48.02404" lon="6.74008">
        <ele>654</ele>
        <time>2011-04-16T14:23:06Z</time>
      </trkpt>
      <trkpt lat="48.02403" lon="6.73988">
        <ele>651.738</ele>
        <time>2011-04-16T14:23:08Z</time>
      </trkpt>
      <trkpt lat="48.02401" lon="6.73966">
        <ele>649.846</ele>
        <time>2011-04-16T14:23:10Z</time>
      </trkpt>
      <trkpt lat="48.02399" lon="6.73931">
        <ele>645.568</ele>
        <time>2011-04-16T14:23:13Z</time>
      </trkpt>
      <trkpt lat="48.02402" lon="6.73902">
        <ele>643.743</ele>
        <time>2011-04-16T14:23:15Z</time>
      </trkpt>
      <trkpt lat="48.02386" lon="6.7391">
        <ele>644.72</ele>
        <time>2011-04-16T14:56:51Z</time>
      </trkpt>
      <trkpt lat="48.02376" lon="6.73908">
        <ele>645.398</ele>
        <time>2011-04-16T14:57:06Z</time>
      </trkpt>
      <trkpt lat="48.02373" lon="6.73908">
        <ele>642.267</ele>
        <time>2011-04-16T14:58:00Z</time>
      </trkpt>
      <trkpt lat="48.02372" lon="6.73908">
        <ele>642.265</ele>
        <time>2011-04-16T14:58:01Z</time>
      </trkpt>
      <trkpt lat="48.02367" lon="6.73907">
        <ele>638.029</ele>
        <time>2011-04-16T14:58:03Z</time>
      </trkpt>
      <trkpt lat="48.02357" lon="6.73898">
        <ele>636.606</ele>
        <time>2011-04-16T14:58:06Z</time>
      </trkpt>
      <trkpt lat="48.02342" lon="6.7389">
        <ele>634.721</ele>
        <time>2011-04-16T14:58:08Z</time>
      </trkpt>
      <trkpt lat="48.02318" lon="6.73877">
        <ele>631.932</ele>
        <time>2011-04-16T14:58:11Z</time>
      </trkpt>
      <trkpt lat="48.02284" lon="6.7386">
        <ele>629.521</ele>
        <time>2011-04-16T14:58:15Z</time>
      </trkpt>
      <trkpt lat="48.02266" lon="6.73851">
        <ele>627.064</ele>
        <time>2011-04-16T14:58:17Z</time>
      </trkpt>
      <trkpt lat="48.02238" lon="6.73841">
        <ele>626.009</ele>
        <time>2011-04-16T14:58:20Z</time>
      </trkpt>
      <trkpt lat="48.02194" lon="6.73805">
        <ele>624.574</ele>
        <time>2011-04-16T14:58:26Z</time>
      </trkpt>
      <trkpt lat="48.02182" lon="6.7379">
        <ele>623.901</ele>
        <time>2011-04-16T14:58:28Z</time>
      </trkpt>
      <trkpt lat="48.02165" lon="6.73764">
        <ele>622.583</ele>
        <time>2011-04-16T14:58:31Z</time>
      </trkpt>
      <trkpt lat="48.02146" lon="6.73732">
        <ele>624.013</ele>
        <time>2011-04-16T14:58:34Z</time>
      </trkpt>
      <trkpt lat="48.02135" lon="6.73697">
        <ele>623.911</ele>
        <time>2011-04-16T14:58:37Z</time>
      </trkpt>
      <trkpt lat="48.02119" lon="6.73622">
        <ele>626.664</ele>
        <time>2011-04-16T14:58:48Z</time>
      </trkpt>
      <trkpt lat="48.02111" lon="6.73576">
        <ele>627.832</ele>
        <time>2011-04-16T14:58:58Z</time>
      </trkpt>
      <trkpt lat="48.02091" lon="6.73523">
        <ele>629.755</ele>
        <time>2011-04-16T14:59:12Z</time>
      </trkpt>
      <trkpt lat="48.02078" lon="6.73498">
        <ele>629.267</ele>
        <time>2011-04-16T14:59:25Z</time>
      </trkpt>
      <trkpt lat="48.0208" lon="6.73496">
        <ele>629.063</ele>
        <time>2011-04-16T14:59:34Z</time>
      </trkpt>
      <trkpt lat="48.02079" lon="6.73483">
        <ele>628.836</ele>
        <time>2011-04-16T14:59:44Z</time>
      </trkpt>
      <trkpt lat="48.02078" lon="6.73472">
        <ele>627.605</ele>
        <time>2011-04-16T14:59:47Z</time>
      </trkpt>
      <trkpt lat="48.02077" lon="6.7345">
        <ele>625.977</ele>
        <time>2011-04-16T14:59:50Z</time>
      </trkpt>
      <trkpt lat="48.02076" lon="6.73442">
        <ele>625.43</ele>
        <time>2011-04-16T14:59:51Z</time>
      </trkpt>
      <trkpt lat="48.0207" lon="6.73401">
        <ele>626.944</ele>
        <time>2011-04-16T14:59:57Z</time>
      </trkpt>
      <trkpt lat="48.02084" lon="6.73358">
        <ele>628.17</ele>
        <time>2011-04-16T15:00:03Z</time>
      </trkpt>
      <trkpt lat="48.02085" lon="6.73352">
        <ele>628.841</ele>
        <time>2011-04-16T15:00:05Z</time>
      </trkpt>
      <trkpt lat="48.02094" lon="6.73293">
        <ele>631.341</ele>
        <time>2011-04-16T15:00:18Z</time>
      </trkpt>
      <trkpt lat="48.02098" lon="6.73271">
        <ele>629.401</ele>
        <time>2011-04-16T15:00:23Z</time>
      </trkpt>
      <trkpt lat="48.02099" lon="6.7324">
        <ele>632.165</ele>
        <time>2011-04-16T15:00:32Z</time>
      </trkpt>
      <trkpt lat="48.02112" lon="6.732">
        <ele>633.312</ele>
        <time>2011-04-16T15:00:46Z</time>
      </trkpt>
      <trkpt lat="48.02114" lon="6.73189">
        <ele>633.777</ele>
        <time>2011-04-16T15:02:19Z</time>
      </trkpt>
      <trkpt lat="48.0212" lon="6.73189">
        <ele>633.753</ele>
        <time>2011-04-16T15:02:50Z</time>
      </trkpt>
      <trkpt lat="48.02121" lon="6.73183">
        <ele>630.978</ele>
        <time>2011-04-16T15:03:12Z</time>
      </trkpt>
      <trkpt lat="48.0212" lon="6.73177">
        <ele>629.929</ele>
        <time>2011-04-16T15:03:15Z</time>
      </trkpt>
      <trkpt lat="48.02118" lon="6.73162">
        <ele>629.449</ele>
        <time>2011-04-16T15:03:19Z</time>
      </trkpt>
      <trkpt lat="48.02106" lon="6.73148">
        <ele>627.567</ele>
        <time>2011-04-16T15:03:21Z</time>
      </trkpt>
      <trkpt lat="48.02101" lon="6.7314">
        <ele>624.701</ele>
        <time>2011-04-16T15:03:22Z</time>
      </trkpt>
      <trkpt lat="48.02093" lon="6.73108">
        <ele>621.945</ele>
        <time>2011-04-16T15:03:25Z</time>
      </trkpt>
      <trkpt lat="48.02089" lon="6.73088">
        <ele>616.123</ele>
        <time>2011-04-16T15:03:27Z</time>
      </trkpt>
      <trkpt lat="48.02089" lon="6.73078">
        <ele>616.132</ele>
        <time>2011-04-16T15:03:28Z</time>
      </trkpt>
      <trkpt lat="48.02087" lon="6.73056">
        <ele>613.36</ele>
        <time>2011-04-16T15:03:30Z</time>
      </trkpt>
      <trkpt lat="48.02085" lon="6.73045">
        <ele>609.328</ele>
        <time>2011-04-16T15:03:31Z</time>
      </trkpt>
      <trkpt lat="48.02084" lon="6.73036">
        <ele>609.339</ele>
        <time>2011-04-16T15:03:32Z</time>
      </trkpt>
      <trkpt lat="48.02082" lon="6.73013">
        <ele>606.518</ele>
        <time>2011-04-16T15:03:35Z</time>
      </trkpt>
      <trkpt lat="48.0208" lon="6.72996">
        <ele>604.185</ele>
        <time>2011-04-16T15:03:37Z</time>
      </trkpt>
      <trkpt lat="48.02078" lon="6.72989">
        <ele>601.123</ele>
        <time>2011-04-16T15:03:38Z</time>
      </trkpt>
      <trkpt lat="48.0207" lon="6.72967">
        <ele>596.493</ele>
        <time>2011-04-16T15:03:41Z</time>
      </trkpt>
      <trkpt lat="48.02069" lon="6.72969">
        <ele>596.509</ele>
        <time>2011-04-16T15:03:42Z</time>
      </trkpt>
      <trkpt lat="48.02065" lon="6.72967">
        <ele>596.061</ele>
        <time>2011-04-16T15:03:44Z</time>
      </trkpt>
      <trkpt lat="48.02045" lon="6.72977">
        <ele>591.316</ele>
        <time>2011-04-16T15:03:48Z</time>
      </trkpt>
      <trkpt lat="48.02037" lon="6.72984">
        <ele>588.251</ele>
        <time>2011-04-16T15:03:50Z</time>
      </trkpt>
      <trkpt lat="48.02033" lon="6.72987">
        <ele>588.251</ele>
        <time>2011-04-16T15:03:51Z</time>
      </trkpt>
      <trkpt lat="48.02024" lon="6.72997">
        <ele>585.91</ele>
        <time>2011-04-16T15:03:53Z</time>
      </trkpt>
      <trkpt lat="48.02012" lon="6.73012">
        <ele>581.112</ele>
        <time>2011-04-16T15:03:55Z</time>
      </trkpt>
      <trkpt lat="48.02007" lon="6.73019">
        <ele>581.112</ele>
        <time>2011-04-16T15:03:56Z</time>
      </trkpt>
      <trkpt lat="48.01998" lon="6.73037">
        <ele>578.258</ele>
        <time>2011-04-16T15:03:58Z</time>
      </trkpt>
      <trkpt lat="48.01995" lon="6.73055">
        <ele>575.774</ele>
        <time>2011-04-16T15:04:00Z</time>
      </trkpt>
      <trkpt lat="48.01989" lon="6.73082">
        <ele>573.726</ele>
        <time>2011-04-16T15:04:03Z</time>
      </trkpt>
      <trkpt lat="48.01985" lon="6.731">
        <ele>573.243</ele>
        <time>2011-04-16T15:04:05Z</time>
      </trkpt>
      <trkpt lat="48.01985" lon="6.73144">
        <ele>571.116</ele>
        <time>2011-04-16T15:04:10Z</time>
      </trkpt>
      <trkpt lat="48.0198" lon="6.7316">
        <ele>570.418</ele>
        <time>2011-04-16T15:04:12Z</time>
      </trkpt>
      <trkpt lat="48.01972" lon="6.73175">
        <ele>568.753</ele>
        <time>2011-04-16T15:04:14Z</time>
      </trkpt>
      <trkpt lat="48.01966" lon="6.73197">
        <ele>567.501</ele>
        <time>2011-04-16T15:04:16Z</time>
      </trkpt>
      <trkpt lat="48.01963" lon="6.73216">
        <ele>563.802</ele>
        <time>2011-04-16T15:04:18Z</time>
      </trkpt>
      <trkpt lat="48.01962" lon="6.73227">
        <ele>563.802</ele>
        <time>2011-04-16T15:04:19Z</time>
      </trkpt>
      <trkpt lat="48.01958" lon="6.73262">
        <ele>561.577</ele>
        <time>2011-04-16T15:04:22Z</time>
      </trkpt>
      <trkpt lat="48.01948" lon="6.73301">
        <ele>557.164</ele>
        <time>2011-04-16T15:04:25Z</time>
      </trkpt>
      <trkpt lat="48.01946" lon="6.73312">
        <ele>557.164</ele>
        <time>2011-04-16T15:04:26Z</time>
      </trkpt>
      <trkpt lat="48.01945" lon="6.73323">
        <ele>555.589</ele>
        <time>2011-04-16T15:04:27Z</time>
      </trkpt>
      <trkpt lat="48.01938" lon="6.73357">
        <ele>554.226</ele>
        <time>2011-04-16T15:04:30Z</time>
      </trkpt>
      <trkpt lat="48.01936" lon="6.73368">
        <ele>552.532</ele>
        <time>2011-04-16T15:04:31Z</time>
      </trkpt>
      <trkpt lat="48.01914" lon="6.73424">
        <ele>553.404</ele>
        <time>2011-04-16T15:04:37Z</time>
      </trkpt>
      <trkpt lat="48.0191" lon="6.73451">
        <ele>551.845</ele>
        <time>2011-04-16T15:04:40Z</time>
      </trkpt>
      <trkpt lat="48.01908" lon="6.73474">
        <ele>549.367</ele>
        <time>2011-04-16T15:04:42Z</time>
      </trkpt>
      <trkpt lat="48.01907" lon="6.73498">
        <ele>547.131</ele>
        <time>2011-04-16T15:04:44Z</time>
      </trkpt>
      <trkpt lat="48.01907" lon="6.73508">
        <ele>546.011</ele>
        <time>2011-04-16T15:04:45Z</time>
      </trkpt>
      <trkpt lat="48.01904" lon="6.73535">
        <ele>544.172</ele>
        <time>2011-04-16T15:04:47Z</time>
      </trkpt>
      <trkpt lat="48.01904" lon="6.73548">
        <ele>541.448</ele>
        <time>2011-04-16T15:04:48Z</time>
      </trkpt>
      <trkpt lat="48.01905" lon="6.7358">
        <ele>540.145</ele>
        <time>2011-04-16T15:04:51Z</time>
      </trkpt>
      <trkpt lat="48.0191" lon="6.73604">
        <ele>537.912</ele>
        <time>2011-04-16T15:04:53Z</time>
      </trkpt>
      <trkpt lat="48.01915" lon="6.73644">
        <ele>535.035</ele>
        <time>2011-04-16T15:04:56Z</time>
      </trkpt>
      <trkpt lat="48.01927" lon="6.737">
        <ele>534.681</ele>
        <time>2011-04-16T15:05:00Z</time>
      </trkpt>
      <trkpt lat="48.0193" lon="6.73715">
        <ele>534.533</ele>
        <time>2011-04-16T15:05:02Z</time>
      </trkpt>
      <trkpt lat="48.01928" lon="6.73733">
        <ele>532.781</ele>
        <time>2011-04-16T15:05:05Z</time>
      </trkpt>
      <trkpt lat="48.01925" lon="6.73738">
        <ele>530.456</ele>
        <time>2011-04-16T15:05:06Z</time>
      </trkpt>
      <trkpt lat="48.0191" lon="6.73788">
        <ele>524.389</ele>
        <time>2011-04-16T15:05:10Z</time>
      </trkpt>
      <trkpt lat="48.0192" lon="6.73828">
        <ele>523.179</ele>
        <time>2011-04-16T15:05:14Z</time>
      </trkpt>
      <trkpt lat="48.0192" lon="6.73866">
        <ele>520.814</ele>
        <time>2011-04-16T15:05:19Z</time>
      </trkpt>
      <trkpt lat="48.01919" lon="6.73891">
        <ele>518.436</ele>
        <time>2011-04-16T15:05:21Z</time>
      </trkpt>
      <trkpt lat="48.0192" lon="6.73918">
        <ele>513.534</ele>
        <time>2011-04-16T15:05:23Z</time>
      </trkpt>
      <trkpt lat="48.01918" lon="6.73931">
        <ele>513.542</ele>
        <time>2011-04-16T15:05:24Z</time>
      </trkpt>
      <trkpt lat="48.01915" lon="6.73955">
        <ele>511.355</ele>
        <time>2011-04-16T15:05:26Z</time>
      </trkpt>
      <trkpt lat="48.01913" lon="6.73965">
        <ele>509.319</ele>
        <time>2011-04-16T15:05:27Z</time>
      </trkpt>
      <trkpt lat="48.01913" lon="6.73997">
        <ele>505.079</ele>
        <time>2011-04-16T15:05:30Z</time>
      </trkpt>
      <trkpt lat="48.01915" lon="6.74009">
        <ele>505.084</ele>
        <time>2011-04-16T15:05:31Z</time>
      </trkpt>
      <trkpt lat="48.01922" lon="6.74033">
        <ele>502.673</ele>
        <time>2011-04-16T15:05:33Z</time>
      </trkpt>
      <trkpt lat="48.0193" lon="6.74058">
        <ele>500.904</ele>
        <time>2011-04-16T15:05:35Z</time>
      </trkpt>
      <trkpt lat="48.01933" lon="6.7407">
        <ele>499.783</ele>
        <time>2011-04-16T15:05:36Z</time>
      </trkpt>
      <trkpt lat="48.01937" lon="6.7411">
        <ele>494.332</ele>
        <time>2011-04-16T15:05:39Z</time>
      </trkpt>
      <trkpt lat="48.01939" lon="6.74126">
        <ele>494.333</ele>
        <time>2011-04-16T15:05:40Z</time>
      </trkpt>
      <trkpt lat="48.01941" lon="6.74143">
        <ele>491.151</ele>
        <time>2011-04-16T15:05:41Z</time>
      </trkpt>
      <trkpt lat="48.01942" lon="6.74159">
        <ele>491.151</ele>
        <time>2011-04-16T15:05:42Z</time>
      </trkpt>
      <trkpt lat="48.01944" lon="6.74175">
        <ele>487.68</ele>
        <time>2011-04-16T15:05:43Z</time>
      </trkpt>
      <trkpt lat="48.01941" lon="6.74221">
        <ele>482.131</ele>
        <time>2011-04-16T15:05:46Z</time>
      </trkpt>
      <trkpt lat="48.01937" lon="6.74236">
        <ele>482.131</ele>
        <time>2011-04-16T15:05:47Z</time>
      </trkpt>
      <trkpt lat="48.01932" lon="6.7425">
        <ele>478.496</ele>
        <time>2011-04-16T15:05:48Z</time>
      </trkpt>
      <trkpt lat="48.0192" lon="6.74298">
        <ele>474.471</ele>
        <time>2011-04-16T15:05:51Z</time>
      </trkpt>
      <trkpt lat="48.01919" lon="6.74317">
        <ele>469.131</ele>
        <time>2011-04-16T15:05:52Z</time>
      </trkpt>
      <trkpt lat="48.01918" lon="6.74356">
        <ele>466.513</ele>
        <time>2011-04-16T15:05:54Z</time>
      </trkpt>
      <trkpt lat="48.01918" lon="6.74394">
        <ele>465.89</ele>
        <time>2011-04-16T15:05:56Z</time>
      </trkpt>
      <trkpt lat="48.01922" lon="6.7443">
        <ele>464.355</ele>
        <time>2011-04-16T15:05:58Z</time>
      </trkpt>
      <trkpt lat="48.01937" lon="6.74488">
        <ele>463.549</ele>
        <time>2011-04-16T15:06:02Z</time>
      </trkpt>
      <trkpt lat="48.01944" lon="6.74536">
        <ele>461.84</ele>
        <time>2011-04-16T15:06:05Z</time>
      </trkpt>
      <trkpt lat="48.0195" lon="6.74591">
        <ele>460.802</ele>
        <time>2011-04-16T15:06:11Z</time>
      </trkpt>
      <trkpt lat="48.01951" lon="6.74602">
        <ele>460.242</ele>
        <time>2011-04-16T15:06:13Z</time>
      </trkpt>
      <trkpt lat="48.01959" lon="6.74605">
        <ele>460.619</ele>
        <time>2011-04-16T15:06:18Z</time>
      </trkpt>
      <trkpt lat="48.01951" lon="6.7459">
        <ele>460.409</ele>
        <time>2011-04-16T15:06:24Z</time>
      </trkpt>
      <trkpt lat="48.0195" lon="6.74583">
        <ele>460.701</ele>
        <time>2011-04-16T15:06:26Z</time>
      </trkpt>
      <trkpt lat="48.01946" lon="6.74573">
        <ele>461.762</ele>
        <time>2011-04-16T15:06:31Z</time>
      </trkpt>
      <trkpt lat="48.01942" lon="6.74579">
        <ele>460.345</ele>
        <time>2011-04-16T15:06:35Z</time>
      </trkpt>
      <trkpt lat="48.01939" lon="6.74593">
        <ele>457.884</ele>
        <time>2011-04-16T15:06:38Z</time>
      </trkpt>
      <trkpt lat="48.01927" lon="6.74582">
        <ele>455.56</ele>
        <time>2011-04-16T15:06:41Z</time>
      </trkpt>
      <trkpt lat="48.0192" lon="6.74567">
        <ele>453.603</ele>
        <time>2011-04-16T15:06:43Z</time>
      </trkpt>
      <trkpt lat="48.01907" lon="6.74549">
        <ele>451.58</ele>
        <time>2011-04-16T15:06:45Z</time>
      </trkpt>
      <trkpt lat="48.01901" lon="6.74541">
        <ele>449.412</ele>
        <time>2011-04-16T15:06:46Z</time>
      </trkpt>
      <trkpt lat="48.01884" lon="6.74516">
        <ele>447.848</ele>
        <time>2011-04-16T15:06:49Z</time>
      </trkpt>
      <trkpt lat="48.01859" lon="6.74479">
        <ele>443.512</ele>
        <time>2011-04-16T15:06:57Z</time>
      </trkpt>
      <trkpt lat="48.01853" lon="6.7447">
        <ele>442.885</ele>
        <time>2011-04-16T15:06:59Z</time>
      </trkpt>
      <trkpt lat="48.01837" lon="6.74443">
        <ele>441.453</ele>
        <time>2011-04-16T15:07:08Z</time>
      </trkpt>
      <trkpt lat="48.01836" lon="6.74446">
        <ele>442.027</ele>
        <time>2011-04-16T15:07:10Z</time>
      </trkpt>
      <trkpt lat="48.01834" lon="6.74448">
        <ele>442.03</ele>
        <time>2011-04-16T15:07:12Z</time>
      </trkpt>
      <trkpt lat="48.01834" lon="6.74443">
        <ele>442.137</ele>
        <time>2011-04-16T15:07:15Z</time>
      </trkpt>
      <trkpt lat="48.01838" lon="6.74414">
        <ele>442.419</ele>
        <time>2011-04-16T15:07:22Z</time>
      </trkpt>
      <trkpt lat="48.01839" lon="6.74378">
        <ele>444.405</ele>
        <time>2011-04-16T15:07:33Z</time>
      </trkpt>
      <trkpt lat="48.01838" lon="6.74337">
        <ele>447.479</ele>
        <time>2011-04-16T15:07:44Z</time>
      </trkpt>
      <trkpt lat="48.01827" lon="6.74285">
        <ele>450.293</ele>
        <time>2011-04-16T15:08:00Z</time>
      </trkpt>
      <trkpt lat="48.0181" lon="6.74273">
        <ele>449.787</ele>
        <time>2011-04-16T15:08:09Z</time>
      </trkpt>
      <trkpt lat="48.01796" lon="6.74229">
        <ele>449.44</ele>
        <time>2011-04-16T15:08:17Z</time>
      </trkpt>
      <trkpt lat="48.01787" lon="6.74197">
        <ele>449.06</ele>
        <time>2011-04-16T15:08:23Z</time>
      </trkpt>
      <trkpt lat="48.0178" lon="6.74178">
        <ele>448.7</ele>
        <time>2011-04-16T15:08:27Z</time>
      </trkpt>
      <trkpt lat="48.01773" lon="6.74155">
        <ele>448.699</ele>
        <time>2011-04-16T15:08:32Z</time>
      </trkpt>
      <trkpt lat="48.01768" lon="6.74118">
        <ele>449.033</ele>
        <time>2011-04-16T15:08:39Z</time>
      </trkpt>
      <trkpt lat="48.0177" lon="6.74086">
        <ele>447.243</ele>
        <time>2011-04-16T15:08:43Z</time>
      </trkpt>
      <trkpt lat="48.01769" lon="6.74072">
        <ele>445.413</ele>
        <time>2011-04-16T15:08:45Z</time>
      </trkpt>
      <trkpt lat="48.01769" lon="6.74064">
        <ele>444.511</ele>
        <time>2011-04-16T15:08:46Z</time>
      </trkpt>
      <trkpt lat="48.0176" lon="6.74025">
        <ele>442.325</ele>
        <time>2011-04-16T15:08:50Z</time>
      </trkpt>
      <trkpt lat="48.01741" lon="6.73992">
        <ele>440.416</ele>
        <time>2011-04-16T15:08:54Z</time>
      </trkpt>
      <trkpt lat="48.01737" lon="6.73955">
        <ele>438.737</ele>
        <time>2011-04-16T15:08:57Z</time>
      </trkpt>
      <trkpt lat="48.01722" lon="6.73899">
        <ele>437.613</ele>
        <time>2011-04-16T15:09:05Z</time>
      </trkpt>
      <trkpt lat="48.01723" lon="6.73869">
        <ele>437.072</ele>
        <time>2011-04-16T15:09:07Z</time>
      </trkpt>
      <trkpt lat="48.0172" lon="6.73805">
        <ele>437.481</ele>
        <time>2011-04-16T15:09:12Z</time>
      </trkpt>
      <trkpt lat="48.01713" lon="6.73765">
        <ele>435.502</ele>
        <time>2011-04-16T15:09:16Z</time>
      </trkpt>
      <trkpt lat="48.01707" lon="6.73719">
        <ele>433.095</ele>
        <time>2011-04-16T15:09:20Z</time>
      </trkpt>
      <trkpt lat="48.01701" lon="6.73659">
        <ele>431.111</ele>
        <time>2011-04-16T15:09:25Z</time>
      </trkpt>
      <trkpt lat="48.01698" lon="6.73608">
        <ele>430.746</ele>
        <time>2011-04-16T15:09:29Z</time>
      </trkpt>
      <trkpt lat="48.01697" lon="6.73514">
        <ele>430.894</ele>
        <time>2011-04-16T15:09:36Z</time>
      </trkpt>
      <trkpt lat="48.01693" lon="6.73466">
        <ele>430.4</ele>
        <time>2011-04-16T15:09:40Z</time>
      </trkpt>
      <trkpt lat="48.01694" lon="6.7343">
        <ele>429.842</ele>
        <time>2011-04-16T15:09:43Z</time>
      </trkpt>
      <trkpt lat="48.01686" lon="6.73388">
        <ele>429.85</ele>
        <time>2011-04-16T15:09:47Z</time>
      </trkpt>
      <trkpt lat="48.0168" lon="6.73326">
        <ele>429.798</ele>
        <time>2011-04-16T15:09:53Z</time>
      </trkpt>
      <trkpt lat="48.0168" lon="6.73295">
        <ele>429.595</ele>
        <time>2011-04-16T15:09:56Z</time>
      </trkpt>
      <trkpt lat="48.01681" lon="6.73256">
        <ele>429.307</ele>
        <time>2011-04-16T15:10:00Z</time>
      </trkpt>
      <trkpt lat="48.01673" lon="6.7315">
        <ele>427.963</ele>
        <time>2011-04-16T15:10:10Z</time>
      </trkpt>
      <trkpt lat="48.01674" lon="6.73106">
        <ele>427.389</ele>
        <time>2011-04-16T15:10:14Z</time>
      </trkpt>
      <trkpt lat="48.01674" lon="6.73062">
        <ele>425.954</ele>
        <time>2011-04-16T15:10:18Z</time>
      </trkpt>
      <trkpt lat="48.01678" lon="6.73018">
        <ele>424.94</ele>
        <time>2011-04-16T15:10:22Z</time>
      </trkpt>
      <trkpt lat="48.01689" lon="6.72982">
        <ele>426.868</ele>
        <time>2011-04-16T15:10:26Z</time>
      </trkpt>
      <trkpt lat="48.01693" lon="6.72961">
        <ele>428.096</ele>
        <time>2011-04-16T15:10:29Z</time>
      </trkpt>
      <trkpt lat="48.01695" lon="6.72943">
        <ele>430.172</ele>
        <time>2011-04-16T15:10:32Z</time>
      </trkpt>
      <trkpt lat="48.017" lon="6.72919">
        <ele>431.915</ele>
        <time>2011-04-16T15:10:37Z</time>
      </trkpt>
      <trkpt lat="48.01728" lon="6.72824">
        <ele>431.939</ele>
        <time>2011-04-16T15:10:54Z</time>
      </trkpt>
      <trkpt lat="48.01732" lon="6.72811">
        <ele>431.958</ele>
        <time>2011-04-16T15:10:56Z</time>
      </trkpt>
      <trkpt lat="48.01736" lon="6.72783">
        <ele>431.769</ele>
        <time>2011-04-16T15:11:00Z</time>
      </trkpt>
      <trkpt lat="48.01734" lon="6.72772">
        <ele>431.651</ele>
        <time>2011-04-16T15:11:02Z</time>
      </trkpt>
      <trkpt lat="48.01745" lon="6.72761">
        <ele>431.461</ele>
        <time>2011-04-16T15:11:07Z</time>
      </trkpt>
      <trkpt lat="48.01785" lon="6.72699">
        <ele>432.141</ele>
        <time>2011-04-16T15:11:22Z</time>
      </trkpt>
      <trkpt lat="48.01811" lon="6.72659">
        <ele>434.579</ele>
        <time>2011-04-16T15:11:32Z</time>
      </trkpt>
      <trkpt lat="48.01834" lon="6.72624">
        <ele>435.951</ele>
        <time>2011-04-16T15:11:43Z</time>
      </trkpt>
      <trkpt lat="48.01847" lon="6.72602">
        <ele>435.807</ele>
        <time>2011-04-16T15:11:48Z</time>
      </trkpt>
      <trkpt lat="48.01855" lon="6.7259">
        <ele>435.039</ele>
        <time>2011-04-16T15:11:50Z</time>
      </trkpt>
      <trkpt lat="48.01854" lon="6.72568">
        <ele>431.548</ele>
        <time>2011-04-16T15:11:53Z</time>
      </trkpt>
      <trkpt lat="48.01857" lon="6.72545">
        <ele>429.845</ele>
        <time>2011-04-16T15:11:55Z</time>
      </trkpt>
      <trkpt lat="48.01856" lon="6.72513">
        <ele>428.839</ele>
        <time>2011-04-16T15:11:59Z</time>
      </trkpt>
      <trkpt lat="48.01855" lon="6.72484">
        <ele>429.02</ele>
        <time>2011-04-16T15:12:03Z</time>
      </trkpt>
      <trkpt lat="48.01857" lon="6.72457">
        <ele>429.797</ele>
        <time>2011-04-16T15:12:07Z</time>
      </trkpt>
      <trkpt lat="48.0187" lon="6.72388">
        <ele>428.127</ele>
        <time>2011-04-16T15:12:16Z</time>
      </trkpt>
      <trkpt lat="48.01868" lon="6.72365">
        <ele>426.822</ele>
        <time>2011-04-16T15:12:19Z</time>
      </trkpt>
      <trkpt lat="48.01871" lon="6.72297">
        <ele>425.84</ele>
        <time>2011-04-16T15:12:29Z</time>
      </trkpt>
      <trkpt lat="48.01868" lon="6.72278">
        <ele>425.988</ele>
        <time>2011-04-16T15:12:35Z</time>
      </trkpt>
      <trkpt lat="48.01871" lon="6.72234">
        <ele>426.553</ele>
        <time>2011-04-16T15:12:43Z</time>
      </trkpt>
      <trkpt lat="48.01875" lon="6.72132">
        <ele>425.1</ele>
        <time>2011-04-16T15:12:52Z</time>
      </trkpt>
      <trkpt lat="48.0189" lon="6.72126">
        <ele>424.839</ele>
        <time>2011-04-16T15:12:58Z</time>
      </trkpt>
      <trkpt lat="48.0189" lon="6.72121">
        <ele>425.416</ele>
        <time>2011-04-16T15:13:02Z</time>
      </trkpt>
      <trkpt lat="48.01887" lon="6.72121">
        <ele>425.408</ele>
        <time>2011-04-16T15:13:11Z</time>
      </trkpt>
      <trkpt lat="48.01864" lon="6.72137">
        <ele>425.343</ele>
        <time>2011-04-16T15:14:37Z</time>
      </trkpt>
      <trkpt lat="48.01806" lon="6.72161">
        <ele>424.241</ele>
        <time>2011-04-16T15:14:49Z</time>
      </trkpt>
      <trkpt lat="48.01801" lon="6.72163">
        <ele>424.139</ele>
        <time>2011-04-16T15:14:50Z</time>
      </trkpt>
      <trkpt lat="48.01756" lon="6.72144">
        <ele>423.012</ele>
        <time>2011-04-16T15:14:58Z</time>
      </trkpt>
      <trkpt lat="48.0173" lon="6.72111">
        <ele>422.509</ele>
        <time>2011-04-16T15:15:04Z</time>
      </trkpt>
      <trkpt lat="48.01651" lon="6.72072">
        <ele>422.714</ele>
        <time>2011-04-16T15:15:20Z</time>
      </trkpt>
      <trkpt lat="48.01566" lon="6.72029">
        <ele>421.058</ele>
        <time>2011-04-16T15:15:36Z</time>
      </trkpt>
      <trkpt lat="48.01555" lon="6.7202">
        <ele>420.464</ele>
        <time>2011-04-16T15:15:38Z</time>
      </trkpt>
      <trkpt lat="48.01489" lon="6.72023">
        <ele>417.738</ele>
        <time>2011-04-16T15:15:48Z</time>
      </trkpt>
      <trkpt lat="48.01465" lon="6.72039">
        <ele>417.585</ele>
        <time>2011-04-16T15:15:52Z</time>
      </trkpt>
      <trkpt lat="48.01429" lon="6.72019">
        <ele>415.41</ele>
        <time>2011-04-16T15:15:58Z</time>
      </trkpt>
      <trkpt lat="48.01421" lon="6.71986">
        <ele>414.241</ele>
        <time>2011-04-16T15:16:01Z</time>
      </trkpt>
      <trkpt lat="48.01404" lon="6.71877">
        <ele>411.829</ele>
        <time>2011-04-16T15:16:10Z</time>
      </trkpt>
      <trkpt lat="48.01381" lon="6.71741">
        <ele>410.489</ele>
        <time>2011-04-16T15:16:21Z</time>
      </trkpt>
      <trkpt lat="48.01379" lon="6.71694">
        <ele>411.043</ele>
        <time>2011-04-16T15:16:25Z</time>
      </trkpt>
      <trkpt lat="48.01353" lon="6.71653">
        <ele>409.96</ele>
        <time>2011-04-16T15:16:31Z</time>
      </trkpt>
      <trkpt lat="48.01341" lon="6.71644">
        <ele>410.077</ele>
        <time>2011-04-16T15:16:33Z</time>
      </trkpt>
      <trkpt lat="48.01275" lon="6.71627">
        <ele>410.767</ele>
        <time>2011-04-16T15:16:44Z</time>
      </trkpt>
      <trkpt lat="48.01232" lon="6.71671">
        <ele>411.874</ele>
        <time>2011-04-16T15:16:53Z</time>
      </trkpt>
      <trkpt lat="48.01209" lon="6.71699">
        <ele>413.658</ele>
        <time>2011-04-16T15:16:59Z</time>
      </trkpt>
      <trkpt lat="48.01188" lon="6.71718">
        <ele>412.426</ele>
        <time>2011-04-16T15:17:04Z</time>
      </trkpt>
      <trkpt lat="48.01171" lon="6.7174">
        <ele>411.789</ele>
        <time>2011-04-16T15:17:08Z</time>
      </trkpt>
      <trkpt lat="48.01152" lon="6.71759">
        <ele>411.628</ele>
        <time>2011-04-16T15:17:12Z</time>
      </trkpt>
      <trkpt lat="48.01131" lon="6.71765">
        <ele>410.95</ele>
        <time>2011-04-16T15:17:16Z</time>
      </trkpt>
      <trkpt lat="48.0112" lon="6.71765">
        <ele>411.656</ele>
        <time>2011-04-16T15:17:18Z</time>
      </trkpt>
      <trkpt lat="48.01052" lon="6.71794">
        <ele>412.06</ele>
        <time>2011-04-16T15:17:30Z</time>
      </trkpt>
      <trkpt lat="48.01033" lon="6.7178">
        <ele>412.411</ele>
        <time>2011-04-16T15:17:34Z</time>
      </trkpt>
      <trkpt lat="48.01016" lon="6.71754">
        <ele>412.298</ele>
        <time>2011-04-16T15:17:39Z</time>
      </trkpt>
      <trkpt lat="48.00995" lon="6.71743">
        <ele>412.497</ele>
        <time>2011-04-16T15:17:44Z</time>
      </trkpt>
      <trkpt lat="48.00987" lon="6.71745">
        <ele>412.395</ele>
        <time>2011-04-16T15:17:46Z</time>
      </trkpt>
      <trkpt lat="48.0097" lon="6.71727">
        <ele>412.264</ele>
        <time>2011-04-16T15:17:51Z</time>
      </trkpt>
      <trkpt lat="48.00963" lon="6.71675">
        <ele>410.08</ele>
        <time>2011-04-16T15:17:57Z</time>
      </trkpt>
      <trkpt lat="48.00961" lon="6.71643">
        <ele>410.458</ele>
        <time>2011-04-16T15:18:01Z</time>
      </trkpt>
      <trkpt lat="48.00948" lon="6.71624">
        <ele>412.179</ele>
        <time>2011-04-16T15:18:06Z</time>
      </trkpt>
      <trkpt lat="48.00935" lon="6.71627">
        <ele>411.318</ele>
        <time>2011-04-16T15:18:12Z</time>
      </trkpt>
      <trkpt lat="48.00882" lon="6.71669">
        <ele>411.687</ele>
        <time>2011-04-16T15:18:22Z</time>
      </trkpt>
    </trkseg>
  </trk>
</gpx>